[[{"header":{"parameterUnit":"m.s-1","parameterCategory":1,"la1":30.6,"la2":28.766,"lo1":-90.7593,"lo2":-88.6598,"dy":0.0162,"dx":0.0183,"nx":116,"ny":114,"refTime":"2024-06-16T06:00:00:Z","depth":0,"parameterNumber":2,"parameterNumberName":"U-component_of_WINDS"},"data":[0.0,0.0,0.0,0.0,0.0,0.0,0.0,0.0,0.0,0.0,0.0,0.0,0.0,0.0,0.0,0.0,0.0,0.0,0.0,0.0,0.0,0.0,0.0,0.0,0.0,0.0,0.0,0.0,0.0,0.0,0.0,0.0,0.0,0.0,0.0,0.0,0.0,0.0,0.0,0.0,0.0,0.0,0.0,0.0,0.0,0.0,0.0,0.0,0.0,0.0,0.0,0.0,0.0,0.0,0.0,0.0,0.0,0.0,0.0,0.0,0.0,0.0,0.0,0.0,0.0,0.0,0.0,0.0,0.0,0.0,0.0,0.0,0.0,0.0,0.0,0.0,0.0,0.0,0.0,0.0,0.0,0.0,0.0,0.0,0.0,0.0,0.0,0.0,0.0,0.0,0.0,0.0,0.0,0.0,0.0,0.0,0.0,0.0,0.0,0.0,0.0,0.0,0.0,0.0,0.0,0.0,0.0,0.0,0.0,0.0,0.0,0.0,0.0,0.0,0.0,0.0,0.0,0.0,0.0,0.0,0.0,0.0,0.0,0.0,0.0,0.0,0.0,0.0,0.0,0.0,0.0,0.0,0.0,0.0,0.0,0.0,0.0,0.0,0.0,0.0,0.0,0.0,0.0,0.0,0.0,0.0,0.0,0.0,0.0,0.0,0.0,0.0,0.0,0.0,0.0,0.0,0.0,0.0,0.0,0.0,0.0,0.0,0.0,0.0,0.0,0.0,0.0,0.0,0.0,0.0,0.0,0.0,0.0,0.0,0.0,0.0,0.0,0.0,0.0,0.0,0.0,0.0,0.0,0.0,0.0,0.0,0.0,0.0,0.0,0.0,0.0,0.0,0.0,0.0,0.0,0.0,0.0,0.0,0.0,0.0,0.0,0.0,0.0,0.0,0.0,0.0,0.0,0.0,0.0,0.0,0.0,0.0,0.0,0.0,0.0,0.0,0.0,0.0,0.0,0.0,0.0,0.0,0.0,0.0,0.0,0.0,0.0,0.0,0.0,0.0,0.0,0.0,0.0,0.0,0.0,0.0,0.0,0.0,0.0,0.0,0.0,0.0,0.0,0.0,0.0,0.0,0.0,0.0,0.0,0.0,0.0,0.0,0.0,0.0,0.0,0.0,0.0,0.0,0.0,0.0,0.0,0.0,0.0,0.0,0.0,0.0,0.0,0.0,0.0,0.0,0.0,0.0,0.0,0.0,0.0,0.0,0.0,0.0,0.0,0.0,0.0,0.0,0.0,0.0,0.0,0.0,0.0,0.0,0.0,0.0,0.0,0.0,0.0,0.0,0.0,0.0,0.0,0.0,0.0,0.0,0.0,0.0,0.0,0.0,0.0,0.0,0.0,0.0,0.0,0.0,0.0,0.0,0.0,0.0,0.0,0.0,0.0,0.0,0.0,0.0,0.0,0.0,0.0,0.0,0.0,0.0,0.0,0.0,0.0,0.0,0.0,0.0,0.0,0.0,0.0,0.0,0.0,0.0,0.0,0.0,0.0,0.0,0.0,0.0,0.0,0.0,0.0,0.0,0.0,0.0,0.0,0.0,0.0,0.0,0.0,0.0,0.0,0.0,0.0,0.0,0.0,0.0,0.0,0.0,0.0,0.0,0.0,0.0,0.0,0.0,0.0,0.0,0.0,0.0,0.0,0.0,0.0,0.0,0.0,0.0,0.0,0.0,0.0,0.0,0.0,0.0,0.0,0.0,0.0,0.0,0.0,0.0,0.0,0.0,0.0,0.0,0.0,0.0,0.0,0.0,0.0,0.0,0.0,0.0,0.0,0.0,0.0,0.0,0.0,0.0,0.0,0.0,0.0,0.0,0.0,0.0,0.0,0.0,0.0,0.0,0.0,0.0,0.0,0.0,0.0,0.0,0.0,0.0,0.0,0.0,0.0,0.0,0.0,0.0,0.0,0.0,0.0,0.0,0.0,0.0,0.0,0.0,0.0,0.0,0.0,0.0,0.0,0.0,0.0,0.0,0.0,0.0,0.0,0.0,0.0,0.0,0.0,0.0,0.0,0.0,0.0,0.0,0.0,0.0,0.0,0.0,0.0,0.0,0.0,0.0,0.0,0.0,0.0,0.0,0.0,0.0,0.0,0.0,0.0,0.0,0.0,0.0,0.0,0.0,0.0,0.0,0.0,0.0,0.0,0.0,0.0,0.0,0.0,0.0,0.0,0.0,0.0,0.0,0.0,0.0,0.0,0.0,0.0,0.0,0.0,0.0,0.0,0.0,0.0,0.0,0.0,0.0,0.0,0.0,0.0,0.0,0.0,0.0,0.0,0.0,0.0,0.0,0.0,0.0,0.0,0.0,0.0,0.0,0.0,0.0,0.0,0.0,0.0,0.0,0.0,0.0,0.0,0.0,0.0,0.0,0.0,0.0,0.0,0.0,0.0,0.0,0.0,0.0,0.0,0.0,0.0,0.0,0.0,0.0,0.0,0.0,0.0,0.0,0.0,0.0,0.0,0.0,0.0,0.0,0.0,0.0,0.0,0.0,0.0,0.0,0.0,0.0,0.0,0.0,0.0,0.0,0.0,0.0,0.0,0.0,0.0,0.0,0.0,0.0,0.0,0.0,0.0,0.0,0.0,0.0,0.0,0.0,0.0,0.0,0.0,0.0,0.0,0.0,0.0,0.0,0.0,0.0,0.0,0.0,0.0,0.0,0.0,0.0,0.0,0.0,0.0,0.0,0.0,0.0,0.0,0.0,0.0,0.0,0.0,0.0,0.0,0.0,0.0,0.0,0.0,0.0,0.0,0.0,0.0,0.0,0.0,0.0,0.0,0.0,0.0,0.0,0.0,0.0,0.0,0.0,0.0,0.0,0.0,0.0,0.0,0.0,0.0,0.0,0.0,0.0,0.0,0.0,0.0,0.0,0.0,0.0,0.0,0.0,0.0,0.0,0.0,0.0,0.0,0.0,0.0,0.0,0.0,0.0,0.0,0.0,0.0,0.0,0.0,0.0,0.0,0.0,0.0,0.0,0.0,0.0,0.0,0.0,0.0,0.0,0.0,0.0,0.0,0.0,0.0,0.0,0.0,0.0,0.0,0.0,0.0,0.0,0.0,0.0,0.0,0.0,0.0,0.0,0.0,0.0,0.0,0.0,0.0,0.0,0.0,0.0,0.0,0.0,0.0,0.0,0.0,0.0,0.0,0.0,0.0,0.0,0.0,0.0,0.0,0.0,0.0,0.0,0.0,0.0,0.0,0.0,0.0,0.0,0.0,0.0,0.0,0.0,0.0,0.0,0.0,0.0,0.0,0.0,0.0,0.0,0.0,0.0,0.0,0.0,0.0,0.0,0.0,0.0,0.0,0.0,0.0,0.0,0.0,0.0,0.0,0.0,0.0,0.0,0.0,0.0,0.0,0.0,0.0,0.0,0.0,0.0,0.0,0.0,0.0,0.0,0.0,0.0,0.0,0.0,0.0,0.0,0.0,0.0,0.0,0.0,0.0,0.0,0.0,0.0,0.0,0.0,0.0,0.0,0.0,0.0,0.0,0.0,0.0,0.0,0.0,0.0,0.0,0.0,0.0,0.0,0.0,0.0,0.0,0.0,0.0,0.0,0.0,0.0,0.0,0.0,0.0,0.0,0.0,0.0,0.0,0.0,0.0,0.0,0.0,0.0,0.0,0.0,0.0,0.0,0.0,0.0,0.0,0.0,0.0,0.0,0.0,0.0,0.0,0.0,0.0,0.0,0.0,0.0,0.0,0.0,0.0,0.0,0.0,0.0,0.0,0.0,0.0,0.0,0.0,0.0,0.0,0.0,0.0,0.0,0.0,0.0,0.0,0.0,0.0,0.0,0.0,0.0,0.0,0.0,0.0,0.0,0.0,0.0,0.0,0.0,0.0,0.0,0.0,0.0,0.0,0.0,0.0,0.0,0.0,0.0,0.0,0.0,0.0,0.0,0.0,0.0,0.0,0.0,0.0,0.0,0.0,0.0,0.0,0.0,0.0,0.0,0.0,0.0,0.0,0.0,0.0,0.0,0.0,0.0,0.0,0.0,0.0,0.0,0.0,0.0,0.0,0.0,0.0,0.0,0.0,0.0,0.0,0.0,0.0,0.0,0.0,0.0,0.0,0.0,0.0,0.0,0.0,0.0,0.0,0.0,0.0,0.0,0.0,0.0,0.0,0.0,0.0,0.0,0.0,0.0,0.0,0.0,0.0,0.0,0.0,0.0,0.0,0.0,0.0,0.0,0.0,0.0,0.0,0.0,0.0,0.0,0.0,0.0,0.0,0.0,0.0,0.0,0.0,0.0,0.0,0.0,0.0,0.0,0.0,0.0,0.0,0.0,0.0,0.0,0.0,0.0,0.0,0.0,0.0,0.0,0.0,0.0,0.0,0.0,0.0,0.0,0.0,0.0,0.0,0.0,0.0,0.0,0.0,0.0,0.0,0.0,0.0,0.0,0.0,0.0,0.0,0.0,0.0,0.0,0.0,0.0,0.0,0.0,0.0,0.0,0.0,0.0,0.0,0.0,0.0,0.0,0.0,0.0,0.0,0.0,0.0,0.0,0.0,0.0,0.0,0.0,0.0,0.0,0.0,0.0,0.0,0.0,0.0,0.0,0.0,0.0,0.0,0.0,0.0,0.0,0.0,0.0,0.0,0.0,0.0,0.0,0.0,0.0,0.0,0.0,0.0,0.0,0.0,0.0,0.0,0.0,0.0,0.0,0.0,0.0,0.0,0.0,0.0,0.0,0.0,0.0,0.0,0.0,0.0,0.0,0.0,0.0,0.0,0.0,0.0,0.0,0.0,0.0,0.0,0.0,0.0,0.0,0.0,0.0,0.0,0.0,0.0,0.0,0.0,0.0,0.0,0.0,0.0,0.0,0.0,0.0,0.0,0.0,0.0,0.0,0.0,0.0,0.0,0.0,0.0,0.0,0.0,0.0,0.0,0.0,0.0,0.0,0.0,0.0,0.0,0.0,0.0,0.0,0.0,0.0,0.0,0.0,0.0,0.0,0.0,0.0,0.0,0.0,0.0,0.0,0.0,0.0,0.0,0.0,0.0,0.0,0.0,0.0,0.0,0.0,0.0,0.0,0.0,0.0,0.0,0.0,0.0,0.0,0.0,0.0,0.0,0.0,0.0,0.0,0.0,0.0,0.0,0.0,0.0,0.0,0.0,0.0,0.0,0.0,0.0,0.0,0.0,0.0,0.0,0.0,0.0,0.0,0.0,0.0,0.0,0.0,0.0,0.0,0.0,0.0,0.0,0.0,0.0,0.0,0.0,0.0,0.0,0.0,0.0,0.0,0.0,0.0,0.0,0.0,0.0,0.0,0.0,0.0,0.0,0.0,0.0,0.0,0.0,0.0,0.0,0.0,0.0,0.0,0.0,0.0,0.0,0.0,0.0,0.0,0.0,0.0,0.0,0.0,0.0,0.0,0.0,0.0,0.0,0.0,0.0,0.0,0.0,0.0,0.0,0.0,0.0,0.0,0.0,0.0,0.0,0.0,0.0,0.0,0.0,0.0,0.0,0.0,0.0,0.0,0.0,0.0,0.0,0.0,0.0,0.0,0.0,0.0,0.0,0.0,0.0,0.0,0.0,0.0,0.0,0.0,0.0,0.0,0.0,0.0,0.0,0.0,0.0,0.0,0.0,0.0,0.0,0.0,0.0,0.0,0.0,0.0,0.0,0.0,0.0,0.0,0.0,0.0,0.0,0.0,0.0,0.0,0.0,0.0,0.0,0.0,0.0,0.0,0.0,0.0,0.0,0.0,0.0,0.0,0.0,0.0,0.0,0.0,0.0,0.0,0.0,0.0,0.0,0.0,0.0,0.0,0.0,0.0,0.0,0.0,0.0,0.0,0.0,0.0,0.0,0.0,0.0,0.0,0.0,0.0,0.0,0.0,0.0,0.0,0.0,0.0,0.0,0.0,0.0,0.0,0.0,0.0,0.0,0.0,0.0,0.0,0.0,0.0,0.0,0.0,0.0,0.0,0.0,0.0,0.0,0.0,0.0,0.0,0.0,0.0,0.0,0.0,0.0,0.0,0.0,0.0,0.0,0.0,0.0,0.0,0.0,0.0,0.0,0.0,0.0,0.0,0.0,0.0,0.0,0.0,0.0,0.0,-2.4053,0.0,0.0,0.0,0.0,0.0,0.0,0.0,0.0,0.0,0.0,0.0,0.0,0.0,0.0,0.0,0.0,0.0,0.0,0.0,0.0,0.0,0.0,0.0,0.0,-2.0042,-2.0117,-2.0139,-2.0315,-2.032,-2.009,-2.0041,-1.9945,-1.9747,-1.9287,-1.8985,-1.8725,-1.8427,-1.7946,-1.7235,-1.7235,-1.6927,-1.6347,-1.669,-1.713,-1.7544,0.0,0.0,0.0,0.0,0.0,0.0,0.0,0.0,0.0,0.0,0.0,0.0,0.0,0.0,0.0,0.0,0.0,0.0,0.0,0.0,0.0,0.0,0.0,0.0,0.0,0.0,0.0,0.0,0.0,0.0,0.0,0.0,0.0,0.0,0.0,0.0,0.0,0.0,0.0,0.0,0.0,0.0,0.0,0.0,0.0,0.0,0.0,0.0,0.0,0.0,0.0,0.0,0.0,0.0,0.0,0.0,0.0,0.0,0.0,0.0,0.0,0.0,0.0,0.0,0.0,0.0,0.0,0.0,0.0,0.0,0.0,-2.4737,0.0,0.0,0.0,0.0,0.0,0.0,0.0,0.0,0.0,0.0,0.0,0.0,0.0,0.0,0.0,0.0,0.0,0.0,0.0,0.0,0.0,-1.8263,-1.8562,-1.8638,-1.8732,-1.8768,-1.8759,-1.8729,-1.861,-1.8571,-1.8455,-1.8213,-1.8067,-1.7769,-1.7396,-1.7236,-1.6712,-1.5842,-1.5793,-1.5468,-1.4805,-1.4916,-1.5556,-1.6596,-1.6138,0.0,0.0,0.0,0.0,0.0,0.0,0.0,0.0,0.0,0.0,0.0,0.0,0.0,0.0,0.0,0.0,0.0,0.0,0.0,0.0,0.0,0.0,0.0,0.0,0.0,0.0,0.0,0.0,0.0,0.0,0.0,0.0,0.0,0.0,0.0,0.0,0.0,0.0,0.0,0.0,0.0,0.0,0.0,0.0,0.0,0.0,0.0,0.0,0.0,0.0,0.0,0.0,0.0,0.0,0.0,0.0,0.0,0.0,0.0,0.0,0.0,0.0,0.0,-2.5605,-2.5605,-2.5605,-2.5694,-2.5774,-2.5783,-2.5156,-2.5095,-2.5398,-2.4608,0.0,0.0,0.0,0.0,0.0,0.0,0.0,0.0,0.0,0.0,0.0,0.0,0.0,0.0,0.0,0.0,0.0,0.0,0.0,-1.7079,-1.7682,-1.7303,-1.7119,-1.7418,-1.7159,-1.6777,-1.6376,-1.6335,-1.6178,-1.5868,-1.5827,-1.577,-1.5739,-1.5792,-1.5594,-1.5136,-1.5072,-1.501,-1.4886,-1.4908,-1.5021,-1.5164,-1.4869,-1.4658,-1.4514,0.0,0.0,0.0,0.0,0.0,0.0,0.0,0.0,0.0,0.0,0.0,0.0,0.0,0.0,0.0,0.0,0.0,0.0,0.0,0.0,0.0,0.0,0.0,0.0,0.0,0.0,0.0,0.0,0.0,0.0,0.0,0.0,0.0,0.0,0.0,0.0,0.0,0.0,0.0,0.0,0.0,-2.3248,-2.3817,0.0,0.0,0.0,0.0,0.0,0.0,0.0,0.0,0.0,0.0,0.0,0.0,0.0,-2.4631,-2.4664,-2.4228,-2.4004,-2.4004,-2.4004,-2.4004,-2.4004,-2.4473,-2.4826,-2.5035,-2.4511,0.0,-2.5511,-2.4957,0.0,0.0,0.0,0.0,0.0,0.0,0.0,0.0,0.0,0.0,0.0,0.0,0.0,0.0,0.0,0.0,0.0,0.0,0.0,0.0,0.0,-1.5918,-1.5897,-1.6123,-1.5927,-1.5711,-1.5509,-1.5416,-1.5285,-1.5139,-1.4987,-1.4979,-1.5123,-1.5108,-1.4991,-1.4815,-1.4751,-1.469,-1.469,-1.469,-1.469,-1.4669,-1.4462,-1.4304,-1.4153,-1.3566,0.0,0.0,0.0,0.0,0.0,0.0,0.0,0.0,0.0,0.0,0.0,0.0,0.0,0.0,0.0,0.0,0.0,0.0,0.0,0.0,0.0,0.0,0.0,0.0,0.0,0.0,0.0,0.0,0.0,0.0,0.0,0.0,0.0,0.0,0.0,0.0,0.0,0.0,0.0,-2.2256,-2.2803,-2.3007,-2.3654,-2.4371,0.0,0.0,0.0,0.0,0.0,0.0,0.0,0.0,0.0,-2.4514,-2.3991,-2.373,-2.373,-2.3651,-2.361,-2.361,-2.361,-2.361,-2.361,-2.3809,-2.3948,-2.3899,-2.3581,-2.3587,-2.392,-2.4018,-2.4135,-2.4217,0.0,0.0,0.0,0.0,-2.3639,-2.3271,0.0,0.0,0.0,0.0,0.0,0.0,0.0,0.0,0.0,0.0,0.0,0.0,-1.4655,-1.4778,-1.4918,-1.5135,-1.5011,-1.4936,-1.4936,-1.4777,-1.4648,-1.4604,-1.4421,-1.4407,-1.4597,-1.461,-1.4657,-1.4792,-1.4692,-1.4706,-1.474,-1.474,-1.474,-1.4733,-1.459,-1.4324,-1.3999,-1.3565,-1.3054,-1.2466,0.0,0.0,0.0,0.0,0.0,0.0,0.0,0.0,0.0,0.0,0.0,0.0,0.0,0.0,0.0,0.0,0.0,0.0,0.0,0.0,0.0,0.0,0.0,0.0,0.0,0.0,0.0,0.0,0.0,0.0,0.0,0.0,0.0,0.0,0.0,0.0,0.0,-2.1348,-2.1874,-2.1996,-2.2785,-2.3613,0.0,0.0,0.0,0.0,0.0,0.0,-2.5678,-2.4401,-2.3616,-2.3514,-2.3012,-2.263,-2.2527,-2.2567,-2.2587,-2.2587,-2.2587,-2.2587,-2.2587,-2.29,-2.2931,-2.2776,-2.2677,-2.2604,-2.2534,-2.2996,-2.322,-2.3285,-2.3801,-2.384,-2.3664,-2.366,-2.3454,-2.2997,0.0,0.0,0.0,0.0,0.0,0.0,0.0,0.0,0.0,0.0,0.0,-1.3693,-1.4186,-1.4138,-1.4237,-1.4693,-1.4402,-1.4148,-1.4148,-1.4142,-1.4066,-1.388,-1.386,-1.386,-1.3874,-1.4153,-1.452,-1.4969,-1.5119,-1.5221,-1.5364,-1.5364,-1.5364,-1.5357,-1.5208,-1.4638,-1.3819,-1.3513,-1.3125,-1.2644,-1.2271,0.0,0.0,0.0,0.0,0.0,0.0,0.0,0.0,0.0,0.0,0.0,0.0,0.0,0.0,0.0,0.0,0.0,0.0,0.0,0.0,0.0,0.0,0.0,0.0,0.0,0.0,0.0,0.0,0.0,0.0,0.0,0.0,0.0,0.0,0.0,0.0,0.0,0.0,-2.0919,-2.1906,0.0,0.0,0.0,0.0,-2.4685,-2.4225,-2.4092,-2.4467,-2.3402,-2.2583,-2.2205,-2.1877,-2.1448,-2.0914,-2.0335,-2.0075,-2.0075,-2.0075,-2.0075,-2.0128,-2.1189,-2.1669,-2.1697,-2.2047,-2.2223,-2.2248,-2.2239,-2.2373,-2.2529,-2.2567,-2.2718,-2.2909,-2.2446,-2.2497,-2.2643,0.0,0.0,0.0,-1.1068,-1.1166,-1.1257,-1.1279,-1.1622,-1.1959,-1.226,-1.2709,-1.3172,-1.3635,-1.393,-1.4155,-1.4417,-1.4394,-1.4353,-1.4353,-1.4221,-1.4091,-1.3994,-1.3987,-1.4122,-1.437,-1.4713,-1.4997,-1.5255,-1.5404,-1.5554,-1.5745,-1.5601,-1.5608,-1.5689,-1.554,-1.5242,-1.4814,-1.4224,-1.3722,-1.3227,-1.282,-1.2499,0.0,0.0,0.0,0.0,0.0,0.0,0.0,0.0,0.0,0.0,0.0,0.0,0.0,0.0,0.0,0.0,0.0,0.0,0.0,0.0,0.0,0.0,0.0,0.0,0.0,0.0,0.0,0.0,0.0,0.0,0.0,0.0,0.0,0.0,0.0,0.0,0.0,-2.0296,-2.0839,0.0,-2.1902,-2.2693,-2.3188,-2.3287,-2.3169,-2.3145,-2.3296,-2.2258,-2.1613,-2.1466,-2.0721,-2.0217,-2.0054,-1.9835,-1.9779,-1.9878,-1.9779,-1.9779,-1.9933,-2.0217,-2.0264,-2.0209,-2.0362,-2.0329,-2.0202,-2.02,-2.0968,-2.2167,-2.2462,-2.2668,-2.2725,-2.2314,-2.2224,-2.2259,0.0,0.0,0.0,-1.0697,-1.0813,-1.0928,-1.0982,-1.1327,-1.1742,-1.2132,-1.2528,-1.2996,-1.3498,-1.3905,-1.4231,-1.4428,-1.4489,-1.4509,-1.4509,-1.4285,-1.417,-1.4217,-1.4319,-1.4536,-1.4882,-1.5133,-1.5384,-1.5635,-1.5737,-1.5886,-1.6076,-1.5981,-1.5988,-1.6126,-1.5981,-1.5776,-1.5601,-1.5059,-1.4509,-1.3916,-1.3458,-1.3105,-1.2847,0.0,0.0,0.0,0.0,0.0,0.0,0.0,0.0,0.0,0.0,0.0,0.0,0.0,0.0,0.0,0.0,0.0,0.0,0.0,0.0,0.0,0.0,0.0,0.0,0.0,0.0,0.0,0.0,0.0,0.0,0.0,0.0,0.0,0.0,-1.9325,-1.9625,-1.9808,-2.0269,-2.0721,-2.115,-2.1655,-2.2121,-2.2347,-2.2219,-2.2169,-2.2153,-2.1305,-2.0668,-2.0287,-1.9628,-1.9192,-1.9026,-1.9026,-1.9077,-1.9233,-1.9077,-1.9077,-1.9233,-1.9291,-1.925,-1.9195,-1.9367,-1.9409,-1.9258,-1.9258,-1.9984,-2.1138,-2.1382,-2.1488,-2.1454,-2.1207,-2.1285,-2.1583,0.0,0.0,0.0,-1.0697,-1.0819,-1.0968,-1.1172,-1.143,-1.1789,-1.2237,-1.273,-1.3241,-1.3741,-1.4129,-1.4428,-1.4674,-1.4611,-1.4523,-1.4523,-1.4394,-1.438,-1.4523,-1.4821,-1.5105,-1.5208,-1.5357,-1.5649,-1.6096,-1.6096,-1.6239,-1.6524,-1.6524,-1.6524,-1.6524,-1.6524,-1.6361,-1.6083,-1.5983,-1.5445,-1.4681,-1.4072,-1.3741,-1.3585,0.0,0.0,0.0,0.0,0.0,0.0,0.0,0.0,0.0,0.0,0.0,0.0,0.0,0.0,0.0,0.0,0.0,0.0,0.0,0.0,0.0,0.0,0.0,0.0,0.0,0.0,0.0,0.0,0.0,0.0,0.0,0.0,0.0,-1.86,-1.9045,-1.9379,-1.95,-2.0133,-2.0604,-2.0612,-2.1018,-2.1479,-2.1812,-2.1379,-2.1047,-2.1046,-2.0481,-1.9687,-1.8757,-1.8695,-1.8412,-1.7915,-1.7915,-1.7915,-1.7915,-1.7915,-1.7915,-1.7922,-1.8412,-1.8695,-1.8702,-1.9309,-1.9577,-1.9577,-1.9577,-1.9577,-1.9533,-1.9228,-1.9109,-1.9102,-1.9102,-1.9684,-2.06,0.0,0.0,-1.0541,-1.0697,-1.0934,-1.1152,-1.1193,-1.1642,-1.2098,-1.24,-1.2935,-1.3464,-1.3953,-1.4373,-1.4699,-1.4889,-1.4869,-1.4848,-1.4848,-1.4706,-1.4733,-1.4984,-1.5187,-1.5459,-1.5825,-1.5872,-1.6062,-1.6402,-1.6402,-1.6442,-1.6524,-1.6524,-1.6524,-1.6524,-1.6524,-1.6476,-1.6388,-1.6246,-1.6001,-1.5642,-1.4775,-1.4424,-1.4342,0.0,0.0,0.0,0.0,0.0,0.0,0.0,0.0,0.0,0.0,0.0,0.0,0.0,0.0,0.0,0.0,0.0,0.0,0.0,0.0,0.0,0.0,0.0,0.0,0.0,0.0,0.0,0.0,0.0,0.0,0.0,-1.7542,-1.8061,-1.8979,-1.9305,-1.9508,-1.9695,-1.9912,-2.0145,-2.0356,-2.0122,-2.0111,-2.0465,-2.0128,-1.9885,-1.9868,-1.9381,-1.8983,-1.8702,-1.8302,-1.8033,-1.7915,-1.7915,-1.797,-1.8023,-1.797,-1.797,-1.8078,-1.8087,-1.8143,-1.8143,-1.8302,-1.8357,-1.8357,-1.8357,-1.8357,-1.8412,-1.9192,-1.9444,-1.9476,-1.9357,-1.9646,-2.0202,0.0,-1.0432,-1.0541,-1.0697,-1.0968,-1.122,-1.1281,-1.1751,-1.2227,-1.2549,-1.3064,-1.3573,-1.4064,-1.4414,-1.4733,-1.4996,-1.4909,-1.4903,-1.497,-1.4943,-1.5059,-1.5357,-1.5581,-1.5845,-1.6171,-1.6232,-1.6381,-1.6567,-1.6567,-1.6653,-1.6714,-1.6714,-1.6714,-1.6714,-1.6714,-1.668,-1.656,-1.6479,-1.6402,-1.6212,-1.556,-1.5187,-1.4938,-1.4658,-1.4547,-1.4459,-1.4177,-1.395,-1.3831,-1.362,0.0,0.0,0.0,0.0,0.0,0.0,0.0,0.0,0.0,0.0,0.0,0.0,0.0,0.0,0.0,0.0,0.0,0.0,0.0,0.0,0.0,0.0,0.0,0.0,-1.7544,-1.8046,-1.8893,-1.9276,-1.9481,-1.9644,-1.958,-1.959,-1.9785,-1.9492,-1.9387,-1.9708,-1.9544,-1.93,-1.9101,-1.8873,-1.8585,-1.8357,-1.8033,-1.7915,-1.7915,-1.7915,-1.7914,-1.8044,-1.7956,-1.7914,-1.7989,-1.7956,-1.7915,-1.7915,-1.7915,-1.7915,-1.7915,-1.7915,-1.7915,0.0,0.0,0.0,0.0,0.0,-1.9223,-1.9431,0.0,-1.0507,-1.0568,-1.0684,-1.0975,-1.1247,-1.1369,-1.1812,-1.2254,-1.2651,-1.3112,-1.3573,-1.4064,-1.4333,-1.4631,-1.4923,-1.4835,-1.4841,-1.5011,-1.5234,-1.5404,-1.5627,-1.5974,-1.6205,-1.6354,-1.6503,-1.6594,-1.675,-1.6763,-1.6897,-1.7032,-1.7032,-1.7032,-1.7032,-1.7032,-1.6944,-1.675,-1.675,-1.6648,-1.6524,-1.6259,-1.5886,-1.5466,-1.5296,-1.5153,-1.5025,-1.4869,-1.4681,-1.457,-1.4292,0.0,0.0,0.0,0.0,0.0,0.0,0.0,0.0,0.0,0.0,0.0,0.0,0.0,0.0,0.0,0.0,0.0,0.0,0.0,0.0,0.0,0.0,0.0,0.0,-1.7403,-1.7853,-1.8574,-1.9031,-1.9301,-1.9338,-1.9228,-1.9102,-1.9117,-1.9063,-1.9129,-1.9292,-1.926,-1.906,-1.864,-1.8606,0.0,0.0,0.0,-1.7915,-1.7915,-1.7915,-1.7915,-1.7915,-1.7915,-1.7915,-1.7915,-1.7915,-1.7915,-1.7915,-1.7915,-1.7915,-1.7915,-1.7915,-1.7915,-1.7915,-1.7915,-1.7915,-1.7977,-1.8412,-1.8548,-1.8646,0.0,-1.0595,-1.0691,-1.0846,-1.105,-1.1247,-1.1369,-1.1812,-1.2213,-1.2501,-1.3044,-1.3573,-1.4064,-1.4333,-1.4584,-1.4721,-1.4869,-1.5038,-1.5309,-1.5689,-1.5934,-1.5995,-1.6279,-1.651,-1.6608,-1.6815,-1.6965,-1.7107,-1.7229,-1.7304,-1.7338,-1.7338,-1.7338,-1.7338,-1.7338,-1.7249,-1.7107,-1.7107,-1.6951,-1.6648,-1.6594,-1.6354,-1.592,-1.5655,-1.5533,-1.5445,-1.5337,-1.5262,-1.5208,-1.5031,-1.4787,-1.4518,-1.4491,-1.434,0.0,0.0,0.0,0.0,0.0,0.0,0.0,0.0,0.0,0.0,0.0,0.0,0.0,0.0,0.0,0.0,0.0,0.0,0.0,-1.7741,-1.8017,-1.8366,-1.8937,-1.8786,-1.8762,-1.9119,-1.9103,-1.9139,-1.9319,-1.8907,-1.87,-1.8796,-1.8544,-1.8239,-1.8088,-1.8142,-1.81,-1.7915,-1.7915,-1.7915,-1.7915,-1.7915,-1.7915,-1.7915,0.0,0.0,-1.7915,-1.7915,-1.7915,-1.7915,-1.7915,-1.7915,-1.7915,-1.7915,-1.7915,-1.7915,-1.7915,-1.7915,-1.7915,-1.8033,-1.8281,-1.8679,-1.0068,-1.0205,-1.0315,-1.0589,-1.0849,-1.1118,-1.1448,-1.186,-1.2234,-1.2569,-1.301,-1.3431,-1.381,-1.4116,-1.4353,-1.4509,-1.4862,-1.5282,-1.5608,-1.5913,-1.6185,-1.6408,-1.6632,-1.6822,-1.6965,-1.7121,-1.7236,-1.7304,-1.7385,-1.7419,-1.7419,-1.7419,-1.7419,-1.7419,-1.7419,-1.7378,-1.7304,-1.7222,-1.7107,-1.6958,-1.6757,-1.652,-1.6279,-1.6056,-1.5927,-1.5839,-1.5689,-1.5635,-1.5608,-1.5459,-1.5262,-1.5025,-1.5025,-1.4923,-1.4726,0.0,0.0,0.0,0.0,0.0,0.0,0.0,0.0,0.0,0.0,0.0,0.0,0.0,0.0,-1.6686,-1.6829,0.0,-1.7329,-1.7671,-1.7864,-1.8022,-1.8293,-1.8327,-1.8438,-1.8755,-1.8629,-1.8572,-1.8736,-1.8474,-1.8371,-1.8475,-1.8334,-1.8179,-1.8091,-1.8091,-1.8057,-1.7989,-1.7956,-1.7915,-1.7915,-1.7915,-1.7915,-1.7915,-1.7915,-1.7915,-1.7915,-1.7915,-1.7915,-1.7915,-1.7915,-1.7915,-1.7915,-1.7915,-1.7915,-1.7915,-1.7915,-1.7915,-1.7915,-1.7915,-1.8088,-1.8357,-0.9589,-0.9603,-0.9797,-1.0265,-1.0531,-1.0876,-1.142,-1.176,-1.2127,-1.2557,-1.2956,-1.3275,-1.3511,-1.3851,-1.4109,-1.4326,-1.4855,-1.5418,-1.5874,-1.6049,-1.6354,-1.6723,-1.6944,-1.7087,-1.7236,-1.7385,-1.7467,-1.7467,-1.7494,-1.7507,-1.7507,-1.7507,-1.7507,-1.7507,-1.7507,-1.7494,-1.7406,-1.7331,-1.7249,-1.7168,-1.6931,-1.6655,-1.651,-1.6395,-1.6239,-1.6069,-1.599,-1.5949,-1.5928,-1.5764,-1.5622,-1.5499,-1.5499,-1.5391,-1.5248,-1.5133,-1.5099,0.0,0.0,0.0,0.0,0.0,0.0,0.0,0.0,-1.6327,-1.6483,-1.6619,-1.687,-1.7114,-1.7256,-1.7405,-1.7514,-1.7548,-1.7629,-1.7717,-1.7717,-1.7982,-1.821,-1.8418,-1.8205,-1.8002,-1.8124,-1.8145,-1.8179,-1.8301,-1.8335,-1.8355,-1.8321,-1.8199,-1.8124,-1.8091,-1.7948,-1.7915,-1.7915,-1.7915,-1.7915,-1.7915,-1.7915,-1.7915,-1.7915,-1.7915,-1.7915,-1.7915,-1.7915,-1.7915,-1.7915,-1.7915,-1.7915,-1.7915,-1.7915,-1.7915,-1.7915,-1.7915,-1.7915,-1.7977,0.0,-0.8959,-0.9243,-1.0087,-1.0242,-1.0451,-1.0989,-1.1356,-1.1753,-1.228,-1.2827,-1.3282,-1.341,-1.3688,-1.3991,-1.4448,-1.4916,-1.5418,-1.5874,-1.6239,-1.6619,-1.6937,-1.7093,-1.7243,-1.7392,-1.7494,-1.7568,-1.7568,-1.7758,-1.7868,-1.7868,-1.7868,-1.7868,-1.7868,-1.7868,-1.7738,-1.7568,-1.7548,-1.7439,-1.7188,-1.7154,-1.6897,-1.6517,-1.6503,-1.6327,-1.6083,-1.6062,-1.6056,-1.6056,-1.6035,-1.5927,-1.5854,-1.5854,-1.5703,-1.5539,-1.5519,-1.5512,-1.5594,-1.5772,-1.5901,-1.6001,-1.6191,-1.6232,-1.6313,0.0,-1.6795,-1.6944,-1.7087,-1.7256,-1.7419,-1.7514,-1.7717,-1.786,-1.7989,-1.8145,-1.819,-1.819,-1.8267,-1.8287,-1.831,-1.831,-1.8267,-1.8287,-1.8301,-1.8301,-1.8321,-1.8386,-1.8407,-1.8321,-1.8301,-1.8233,-1.8091,-1.7948,-1.7915,-1.7915,-1.7915,-1.7915,-1.7915,-1.7915,-1.7915,-1.7915,-1.7915,-1.7915,-1.7915,-1.7915,-1.7915,-1.7915,-1.7915,-1.7915,-1.7915,-1.7915,-1.7915,-1.7915,-1.7915,-1.7915,-1.7915,0.0,-0.8881,-0.9078,-0.9591,-0.9875,-1.0179,-1.0629,-1.0876,-1.1157,-1.1536,-1.1875,-1.2189,-1.2496,-1.2994,-1.3641,-1.4302,-1.4719,-1.5153,-1.5696,-1.6151,-1.6571,-1.6965,-1.7202,-1.7399,-1.7494,-1.7704,-1.7772,-1.7772,-1.7881,-1.7915,-1.7915,-1.7915,-1.7915,-1.7915,-1.7915,-1.7826,-1.7772,-1.7629,-1.7467,-1.7317,-1.7229,-1.6924,-1.651,-1.6429,-1.6212,-1.5996,-1.5996,-1.5893,0.0,-1.5825,-1.5778,-1.5744,-1.5874,-1.586,-1.5784,-1.5872,-1.5893,-1.5927,-1.6076,-1.6225,-1.6395,-1.6639,-1.67,-1.6775,-1.7073,-1.7188,-1.7304,-1.7534,-1.7636,-1.7758,-1.7947,-1.8091,-1.8145,-1.8213,-1.8287,-1.8321,-1.8321,-1.8389,-1.8443,-1.8443,-1.8511,-1.8552,-1.8443,-1.8443,-1.8477,-1.8565,-1.864,-1.864,-1.8586,-1.8409,-1.8287,-1.8233,-1.7989,-1.7915,-1.7915,-1.7915,-1.7915,-1.7915,-1.7915,-1.7915,-1.7915,-1.7915,-1.7915,-1.7915,-1.7915,-1.7915,-1.7915,-1.7915,-1.7915,-1.7915,-1.7915,-1.7915,-1.7915,-1.7915,-1.7915,-1.7915,0.0,-0.8919,-0.8989,-0.9264,-0.9554,-0.9879,-1.0275,-1.0462,-1.0675,-1.0987,-1.1197,-1.1454,-1.1859,-1.2407,-1.3111,-1.3977,-1.4363,-1.4858,-1.5553,-1.6062,-1.651,-1.6965,-1.7222,-1.7392,-1.7595,-1.7758,-1.7826,-1.7915,-1.7915,-1.7915,-1.7915,-1.7915,-1.7915,-1.7915,-1.7915,-1.7915,-1.7902,-1.7704,-1.7507,-1.7405,-1.7209,-1.689,-1.6503,-1.632,-1.6056,-1.584,-1.584,-1.5723,-1.5593,-1.5593,-1.5593,-1.5662,-1.586,-1.5928,-1.5996,-1.6096,-1.6232,-1.6374,-1.6564,-1.6693,-1.6822,-1.7046,-1.71,-1.7168,-1.7426,-1.7514,-1.7616,-1.788,-1.8004,-1.8057,-1.8287,-1.8355,-1.8375,-1.8375,-1.8409,-1.8443,-1.8443,-1.8531,-1.8599,-1.8599,-1.8694,-1.8728,-1.8599,-1.8599,-1.864,-1.8762,-1.882,-1.882,-1.882,-1.8477,-1.8321,-1.8321,-1.8023,-1.7915,-1.7915,-1.7915,-1.7915,-1.7915,-1.7915,-1.7915,-1.7915,-1.7915,-1.7915,-1.7915,-1.7915,-1.7915,-1.7915,-1.7915,-1.7915,-1.7915,-1.7915,-1.7915,-1.7915,-1.7915,-1.7915,-1.7915,0.0,0.0,-0.8989,-0.9264,-0.9302,-0.9446,-0.9843,-1.0025,-1.0306,-1.0853,-1.1141,-1.1454,-1.1859,-1.203,-1.2493,-1.3339,-1.3854,-1.4533,-1.5553,-1.6062,-1.651,-1.6965,-1.7121,-1.7338,-1.7595,-1.7595,-1.7717,-1.7915,-1.7915,-1.7915,-1.7915,-1.7915,-1.7915,-1.7915,-1.7915,-1.7915,-1.7902,-1.7704,-1.7507,-1.7399,-1.7107,-1.6802,-1.649,-1.6198,-1.5906,-1.56,-1.56,-1.5593,-1.5593,-1.5593,-1.5593,-1.5662,-1.586,-1.6003,-1.6103,-1.6259,-1.6612,-1.7019,-1.7311,-1.7392,-1.7399,-1.7405,-1.7405,-1.7392,-1.7554,-1.7758,-1.7901,-1.8057,-1.8199,-1.8301,-1.8321,-1.8423,-1.8474,-1.8474,-1.8654,-1.88,-1.88,-1.88,-1.8762,-1.8762,-1.882,-1.882,-1.8762,-1.8762,-1.8762,-1.882,-1.882,-1.882,-1.882,-1.8477,-1.8321,-1.8321,-1.8023,-1.7915,-1.7915,-1.7915,-1.7915,-1.7915,-1.7915,-1.7915,-1.7915,-1.7915,-1.7915,-1.7915,-1.7915,-1.7915,-1.7915,-1.7915,-1.7915,-1.7915,-1.7915,-1.7915,-1.7915,-1.7915,-1.7915,-1.7915,0.0,0.0,0.0,-0.9275,-0.9302,-0.9338,-0.9482,-0.9557,-0.9694,-1.0056,-1.0368,0.0,0.0,0.0,0.0,0.0,-1.3054,-1.3468,-1.4168,-1.4932,-1.5565,-1.5999,-1.6706,-1.7148,-1.7344,-1.7446,-1.7521,-1.7568,-1.7568,-1.7568,-1.7568,-1.7568,-1.7568,-1.7568,-1.7568,-1.7568,-1.7568,-1.7521,-1.7358,-1.7121,-1.7019,-1.668,-1.6212,-1.6058,-1.5744,-1.5472,0.0,-1.5337,-1.5323,-1.5228,-1.5323,-1.5465,-1.5662,-1.5879,-1.6171,-1.6625,-1.6998,-1.7297,-1.7392,-1.7419,-1.7446,-1.7494,-1.765,-1.7758,-1.7914,-1.8057,-1.8213,-1.8355,-1.8423,-1.8498,-1.8599,-1.8654,-1.8694,-1.8694,-1.8786,-1.882,-1.882,-1.882,-1.882,-1.882,-1.882,-1.882,-1.882,-1.882,-1.882,-1.882,-1.882,-1.882,-1.882,-1.8477,-1.8321,-1.8321,-1.8023,-1.7915,-1.7915,-1.7915,-1.7915,-1.7915,-1.7915,-1.7915,-1.7915,-1.7915,-1.7915,-1.7915,-1.7915,-1.7915,-1.7915,-1.7915,-1.7915,-1.7915,-1.7915,-1.7915,-1.7915,-1.7915,-1.7915,-1.7915,0.0,0.0,0.0,0.0,0.0,0.0,0.0,0.0,0.0,0.0,0.0,0.0,0.0,0.0,0.0,0.0,0.0,-1.2766,-1.3444,-1.4333,-1.5,-1.5325,-1.6268,-1.6809,-1.6951,-1.71,-1.7209,-1.7263,-1.7263,-1.729,-1.7338,-1.7338,-1.7365,-1.7419,-1.7365,-1.7338,-1.7331,-1.7229,-1.7073,-1.6883,-1.672,-1.6429,-1.6056,-1.584,-1.5574,0.0,-1.5181,-1.514,-1.5167,-1.5126,-1.5208,-1.5445,-1.5649,-1.6029,-1.6497,-1.6992,-1.7311,-1.7514,-1.7568,-1.7575,-1.7616,-1.7772,-1.788,-1.7989,-1.8145,-1.8287,-1.8423,-1.8454,-1.8565,-1.864,-1.88,-1.882,-1.882,-1.882,-1.882,-1.882,-1.882,-1.882,-1.882,-1.882,-1.882,-1.882,-1.882,-1.882,-1.882,-1.882,-1.882,-1.882,-1.882,-1.8531,-1.8375,-1.8321,-1.8077,-1.797,-1.7915,-1.7915,-1.7915,-1.7915,-1.7915,-1.7915,-1.7915,-1.7915,-1.7915,-1.7915,-1.7915,-1.7915,-1.7915,-1.7915,-1.7915,-1.7915,-1.7915,-1.7915,-1.7915,-1.7915,-1.7915,-1.7915,0.0,0.0,0.0,0.0,0.0,0.0,0.0,0.0,0.0,0.0,0.0,0.0,0.0,0.0,0.0,0.0,0.0,0.0,-1.3333,-1.4184,-1.4745,-1.5015,-1.5817,-1.6347,-1.6483,-1.6588,-1.6736,-1.6937,-1.6944,-1.7019,-1.7148,-1.7154,-1.7236,-1.7365,-1.7216,-1.7148,-1.7127,-1.6784,-1.6662,-1.6615,-1.6239,-1.6062,-1.6001,-1.5574,-1.5404,-1.5364,-1.5079,-1.5119,-1.5194,-1.5187,-1.5303,-1.5499,-1.5847,-1.6446,-1.7046,-1.7338,-1.748,-1.7684,-1.7826,-1.7915,-1.7914,-1.8057,-1.8111,-1.8145,-1.8301,-1.8443,-1.8494,-1.8494,-1.8654,-1.882,-1.882,-1.882,-1.882,-1.882,-1.882,-1.882,-1.882,-1.882,-1.882,-1.882,-1.882,-1.882,-1.882,-1.882,-1.882,-1.882,-1.882,-1.882,-1.882,-1.8599,-1.8407,-1.8321,-1.8158,-1.8002,-1.7915,-1.7915,-1.7915,-1.7915,-1.7915,-1.7915,-1.7915,-1.7915,-1.7915,-1.7915,-1.7915,-1.7915,-1.7915,-1.7915,-1.7915,-1.7915,-1.7915,-1.7915,-1.7915,-1.7915,-1.7915,-1.7915,0.0,0.0,0.0,0.0,0.0,0.0,0.0,0.0,0.0,0.0,0.0,0.0,0.0,0.0,0.0,0.0,0.0,0.0,-1.2062,-1.3154,-1.3893,-1.4067,-1.5312,-1.6037,-1.6071,-1.6171,-1.6273,-1.6313,-1.6422,-1.6497,-1.6537,-1.6646,-1.6714,-1.6741,-1.6598,-1.6537,-1.6524,-1.6334,-1.6185,-1.6119,-1.6003,-1.5778,-1.5567,-1.5452,-1.5343,-1.5228,-1.5153,-1.5221,-1.5337,-1.5221,-1.5506,-1.5961,-1.6259,-1.6714,-1.7175,-1.7365,-1.7602,-1.7812,-1.7902,-1.7948,-1.8036,-1.8077,-1.8247,-1.8423,-1.8464,-1.8599,-1.8708,-1.8708,-1.8786,-1.882,-1.882,-1.882,-1.882,-1.882,-1.882,-1.882,-1.882,-1.882,-1.882,-1.882,-1.882,-1.882,-1.882,-1.882,-1.882,-1.882,-1.882,-1.882,-1.882,-1.8511,-1.8355,-1.8321,-1.8057,-1.7956,-1.7915,-1.7915,-1.7915,-1.7915,-1.7915,-1.7915,-1.7915,-1.7915,-1.7915,-1.7915,-1.7915,-1.7915,-1.7915,-1.7915,-1.7915,-1.7915,-1.7915,-1.7915,-1.7915,-1.7915,-1.7915,-1.7915,0.0,0.0,0.0,0.0,0.0,0.0,0.0,0.0,0.0,0.0,0.0,0.0,0.0,0.0,0.0,0.0,0.0,0.0,0.0,-1.3126,-1.368,-1.3824,-1.4977,-1.5609,-1.5609,-1.5778,-1.5886,-1.5886,-1.5974,-1.6049,-1.611,-1.6191,-1.6266,-1.632,-1.6178,-1.611,-1.6096,-1.5947,-1.5839,0.0,0.0,-1.556,-1.5404,-1.5337,-1.5255,-1.5181,-1.5181,-1.5323,-1.552,-1.556,-1.5845,-1.6246,-1.6605,-1.6985,-1.7324,-1.7473,-1.7684,-1.7936,-1.7948,-1.8023,-1.8124,-1.8247,-1.8409,-1.8474,-1.8474,-1.8599,-1.864,-1.8586,-1.8565,-1.8586,-1.8654,-1.8654,-1.8694,-1.88,-1.882,-1.882,-1.882,-1.882,-1.882,-1.882,-1.882,-1.882,-1.882,-1.8708,-1.8654,-1.8654,-1.8654,-1.8654,-1.8654,-1.8443,-1.8287,-1.8213,-1.8057,-1.7935,-1.7915,-1.7915,-1.7915,-1.7915,-1.7915,-1.7915,-1.7915,-1.7915,-1.7915,-1.7915,0.0,-1.7915,-1.7915,-1.7915,-1.7915,-1.7915,-1.7915,-1.7915,-1.7915,-1.7915,-1.7915,-1.7915,0.0,0.0,0.0,0.0,0.0,0.0,0.0,0.0,0.0,0.0,0.0,-1.1736,-1.199,-1.2033,0.0,0.0,0.0,0.0,0.0,0.0,-1.3848,-1.3971,-1.4745,-1.5133,-1.5153,-1.5411,-1.5512,-1.5533,-1.5533,-1.5642,-1.5813,-1.5833,-1.5915,-1.5988,-1.5901,-1.5847,-1.5833,-1.5642,-1.5533,-1.5519,-1.5432,-1.5377,-1.5364,0.0,-1.5181,-1.5187,-1.5228,-1.5425,-1.5668,-1.6035,-1.6225,-1.6415,-1.6842,-1.7182,-1.7453,-1.7548,-1.7772,-1.797,-1.8057,-1.8124,-1.8213,-1.8464,-1.8494,-1.8552,-1.8531,-1.8474,-1.844,-1.8355,-1.8321,-1.8355,-1.8477,-1.8498,-1.8552,-1.8732,-1.8708,-1.8708,-1.8708,-1.8728,-1.8786,-1.8786,-1.88,-1.8762,-1.8786,-1.8599,-1.8474,-1.8498,-1.8477,-1.8477,-1.8498,-1.8375,-1.8213,-1.8077,-1.8057,-1.8002,-1.7915,-1.7915,-1.7915,-1.7915,-1.7915,-1.7915,-1.7915,-1.7915,-1.7915,-1.7915,-1.7915,-1.7915,-1.7915,-1.7915,-1.7915,-1.7915,-1.7915,-1.7915,-1.7915,-1.7915,-1.7915,-1.7915,0.0,0.0,0.0,0.0,0.0,0.0,0.0,0.0,0.0,0.0,-1.2671,-1.2467,0.0,0.0,0.0,0.0,0.0,0.0,0.0,0.0,0.0,-1.3823,-1.4446,-1.4875,-1.5051,-1.5059,-1.5147,-1.5262,-1.5262,-1.5276,-1.5303,-1.5432,-1.5499,-1.5527,-1.5499,-1.5486,-1.5479,-1.5323,-1.5262,-1.5262,-1.5235,-1.5221,-1.5221,-1.5194,-1.5181,0.0,-1.5466,-1.5669,-1.5928,-1.63,-1.6463,-1.6544,-1.6876,-1.7182,-1.7453,-1.7548,-1.7846,-1.8057,-1.8091,-1.8267,-1.8464,-1.8511,-1.862,-1.8694,-1.8565,-1.8474,-1.844,-1.8355,-1.8321,-1.8321,-1.8355,-1.8355,-1.8375,-1.8389,-1.8389,-1.8389,-1.8389,-1.8498,-1.8565,-1.8565,-1.8694,-1.8708,-1.8586,-1.8494,-1.8477,-1.8319,-1.8233,-1.8213,-1.8355,-1.8213,-1.8057,-1.7914,-1.7956,-1.7901,-1.7915,-1.7915,-1.7915,-1.7915,-1.7915,-1.7915,-1.7915,-1.7915,-1.7915,-1.7915,-1.7915,0.0,-1.7915,-1.7915,-1.7915,-1.7915,-1.7915,-1.7915,-1.7915,-1.7915,-1.7915,-1.7915,0.0,0.0,0.0,0.0,0.0,0.0,0.0,-1.2344,-1.2742,-1.3308,-1.3305,-1.3252,-1.3283,-1.3356,-1.3403,0.0,0.0,0.0,0.0,0.0,0.0,-1.4044,-1.4408,-1.4692,-1.4848,-1.493,-1.5085,-1.5181,0.0,-1.5181,-1.5181,-1.5255,-1.5289,-1.5289,-1.5289,-1.5289,-1.5289,-1.5215,-1.5181,-1.5181,-1.5181,-1.5181,-1.5181,-1.5181,-1.5228,0.0,-1.5642,-1.584,-1.5969,-1.6368,-1.6524,-1.6605,-1.7066,-1.7304,-1.7467,-1.7684,-1.7914,-1.8111,-1.8199,-1.8375,-1.8552,-1.864,-1.8708,-1.8708,-1.8477,-1.8423,-1.8355,-1.8124,-1.8077,-1.8111,-1.8179,-1.8199,-1.8233,-1.8301,-1.8321,-1.8321,-1.8321,-1.8443,-1.8474,-1.8474,-1.8674,-1.8708,-1.8494,-1.8464,-1.8355,-1.8213,-1.8057,-1.8036,-1.8199,-1.8057,-1.799,-1.7915,-1.7915,-1.7915,-1.7915,-1.7915,-1.7915,-1.7915,-1.7915,-1.7915,-1.7915,-1.7915,-1.7915,-1.7915,-1.7915,0.0,-1.7915,-1.7915,-1.7915,-1.7915,-1.7915,-1.7915,-1.7915,-1.7915,-1.7915,-1.7915,0.0,0.0,0.0,0.0,0.0,0.0,0.0,-1.2183,-1.2796,-1.3298,-1.3637,-1.3862,-1.3889,-1.3869,-1.3953,0.0,0.0,0.0,0.0,0.0,0.0,0.0,-1.4434,-1.4539,-1.4687,0.0,0.0,-1.5181,-1.5153,0.0,0.0,0.0,0.0,0.0,-1.5167,-1.5181,-1.5181,-1.5181,-1.5181,0.0,0.0,-1.5201,-1.5235,0.0,0.0,0.0,0.0,-1.5922,-1.601,-1.6347,-1.6497,-1.6612,-1.7154,-1.7372,-1.748,-1.7772,-1.8044,-1.8165,-1.8287,-1.8443,-1.8599,-1.8786,-1.882,-1.8694,-1.8389,-1.8321,-1.8233,-1.7935,-1.7915,-1.7956,-1.8023,-1.8036,-1.8077,-1.8199,-1.8213,-1.8213,-1.8213,-1.8375,-1.8477,-1.8477,-1.862,-1.8654,-1.8498,-1.8355,-1.8213,-1.8057,-1.7935,-1.797,-1.8036,-1.7935,-1.7915,-1.7915,-1.7915,-1.7915,-1.7915,-1.7915,-1.7915,-1.7915,-1.7915,-1.7915,-1.7915,-1.7915,-1.7915,-1.7915,-1.7915,0.0,0.0,-1.7915,-1.7915,-1.7915,-1.7915,-1.7915,-1.7915,-1.7915,-1.7915,-1.7915,0.0,0.0,0.0,0.0,0.0,0.0,0.0,-1.1885,-1.2745,-1.3147,-1.373,-1.4102,-1.4245,-1.4136,-1.4109,0.0,0.0,0.0,0.0,0.0,0.0,0.0,0.0,0.0,0.0,0.0,0.0,-1.5181,-1.5098,0.0,0.0,0.0,0.0,0.0,0.0,-1.5181,-1.5181,-1.5181,0.0,0.0,0.0,0.0,0.0,0.0,0.0,0.0,0.0,-1.599,-1.609,-1.6266,-1.6415,-1.6578,-1.6917,-1.7202,-1.748,-1.7772,-1.8077,-1.8301,-1.8321,-1.8531,-1.88,-1.882,-1.882,-1.8694,-1.8389,-1.8321,-1.8233,-1.7935,-1.7915,-1.7915,-1.7936,-1.7936,-1.7936,-1.7956,-1.7956,-1.7956,-1.7956,-1.8158,-1.8335,-1.8335,-1.8464,-1.8498,-1.8355,-1.8199,-1.8057,-1.7956,-1.7915,-1.7915,-1.7936,-1.7915,-1.7915,-1.7915,-1.7915,-1.7915,-1.7915,-1.7915,-1.7915,-1.7915,-1.7915,-1.7915,-1.7915,-1.7915,-1.7915,-1.7915,-1.7915,0.0,0.0,-1.7915,-1.7915,-1.7915,-1.7915,-1.7915,-1.7915,-1.7915,-1.7915,-1.7915,0.0,0.0,0.0,0.0,0.0,0.0,-0.9601,-1.0753,-1.1813,-1.268,-1.3359,-1.3923,-1.4248,-1.4245,-1.4231,-1.4292,0.0,0.0,0.0,0.0,0.0,0.0,0.0,0.0,0.0,0.0,-1.5174,-1.5316,-1.5357,0.0,0.0,0.0,0.0,0.0,0.0,-1.5181,-1.5181,-1.5181,0.0,0.0,0.0,0.0,0.0,0.0,0.0,0.0,0.0,0.0,-1.6103,-1.6259,-1.6347,-1.6463,-1.6856,-1.706,-1.7229,-1.7623,-1.7948,-1.8199,-1.8301,-1.8464,-1.864,-1.8742,-1.8694,-1.8565,-1.8375,-1.8247,-1.8124,-1.7914,-1.7915,-1.7915,-1.7915,-1.7915,-1.7915,-1.7915,-1.7915,-1.7915,-1.7915,-1.8124,-1.8321,-1.8321,-1.8443,-1.8477,-1.8335,-1.8179,-1.8023,-1.7936,-1.7915,-1.7915,-1.7915,-1.7915,-1.7915,-1.7915,-1.7915,-1.7915,-1.7915,-1.7915,-1.7915,-1.7915,-1.7915,-1.7914,-1.8002,-1.7956,-1.7914,-1.8002,-1.7956,0.0,0.0,-1.7915,-1.7915,-1.7915,-1.7915,-1.7915,-1.7915,-1.7915,-1.7915,-1.7915,0.0,0.0,0.0,0.0,0.0,-0.7106,-0.8175,-0.9481,-1.0739,-1.1781,-1.263,-1.3362,-1.4027,-1.4078,-1.4142,-1.436,-1.4326,0.0,0.0,0.0,0.0,0.0,0.0,0.0,0.0,0.0,-1.5303,-1.5411,-1.5512,-1.5593,0.0,0.0,-1.5452,-1.5404,0.0,0.0,0.0,0.0,0.0,0.0,0.0,0.0,0.0,0.0,0.0,0.0,0.0,0.0,0.0,0.0,0.0,-1.6368,-1.668,-1.6876,-1.7066,-1.746,-1.7826,-1.8057,-1.8213,-1.8355,-1.8498,-1.8606,-1.8552,-1.8423,-1.8287,-1.8165,-1.8057,-1.7956,-1.7915,-1.7915,-1.7915,-1.7915,-1.7915,-1.7915,-1.7915,-1.7936,-1.797,-1.8158,-1.8321,-1.8321,-1.8409,-1.8409,-1.8267,-1.8111,-1.7989,-1.7915,-1.7915,-1.7915,-1.7915,-1.7915,-1.7915,-1.7915,-1.7915,-1.7915,-1.7915,-1.7915,-1.7915,-1.7915,-1.7914,-1.7989,-1.8091,-1.8023,-1.8057,-1.8145,-1.8002,0.0,0.0,-1.7936,-1.7915,-1.7915,-1.7915,-1.7915,-1.7915,-1.7915,-1.7915,-1.7915,0.0,0.0,0.0,0.0,0.0,0.0,-0.6408,-0.8191,-0.9682,-1.0398,-1.1373,-1.2416,-1.3483,-1.3591,-1.3864,-1.4451,-1.438,0.0,0.0,0.0,0.0,0.0,0.0,0.0,0.0,0.0,-1.5411,-1.5411,-1.5512,-1.5593,-1.5593,-1.5587,-1.5506,-1.5411,0.0,0.0,0.0,0.0,0.0,0.0,0.0,0.0,-1.5915,0.0,0.0,0.0,0.0,0.0,0.0,0.0,0.0,0.0,0.0,-1.6625,-1.7066,-1.746,-1.7758,-1.7956,-1.8057,-1.8199,-1.8321,-1.8321,-1.8321,-1.8287,-1.8124,-1.8091,-1.8057,-1.7956,-1.7915,-1.7915,-1.7915,-1.7915,-1.7915,-1.7915,-1.7915,-1.797,-1.8077,-1.8213,-1.8321,-1.8321,-1.8321,-1.8267,-1.8111,-1.8004,-1.7915,-1.7915,-1.7915,-1.7915,-1.7915,-1.7915,-1.7915,-1.7915,-1.7915,-1.7915,-1.7915,-1.7915,-1.7915,-1.7915,-1.8023,-1.8091,-1.8091,-1.8247,-1.8321,-1.8301,0.0,0.0,0.0,-1.7935,-1.7915,-1.7915,-1.7915,-1.7915,-1.7915,-1.7915,-1.7915,-1.7915,0.0,0.0,0.0,0.0,0.0,0.0,0.0,-0.6721,-0.8019,-0.9372,-1.0416,-1.145,-1.2553,-1.3005,-1.3483,-1.397,-1.4289,0.0,0.0,0.0,0.0,0.0,0.0,0.0,0.0,-1.5466,-1.5669,-1.5872,-1.6022,-1.6151,-1.6189,-1.6035,-1.5913,-1.5859,-1.5655,-1.5492,0.0,0.0,0.0,0.0,0.0,-1.6058,-1.6064,0.0,0.0,0.0,0.0,0.0,0.0,0.0,0.0,0.0,0.0,0.0,0.0,-1.706,-1.7439,-1.7758,-1.7901,-1.8036,-1.8199,-1.8301,-1.8247,-1.8145,-1.8111,-1.8002,-1.797,-1.7936,-1.7915,-1.7915,-1.7915,-1.7915,-1.7915,-1.7915,-1.7915,-1.797,-1.8077,-1.8233,-1.8321,-1.8321,-1.8233,-1.8111,-1.8004,-1.7901,-1.7915,-1.7915,-1.7915,-1.7915,-1.7915,-1.7915,-1.7915,-1.7915,-1.7915,-1.7915,-1.7915,-1.7915,-1.797,-1.8023,-1.8077,-1.8199,-1.8389,-1.8335,-1.8375,0.0,0.0,0.0,0.0,-1.8036,-1.8004,-1.7915,-1.7915,-1.7915,-1.7915,-1.7915,-1.7915,-1.7915,0.0,0.0,0.0,0.0,0.0,0.0,0.0,-0.5436,-0.6573,-0.7859,-0.89,-0.9995,-1.1211,-1.1917,-1.2554,-1.328,-1.3965,0.0,0.0,0.0,0.0,0.0,0.0,0.0,-1.5404,-1.5669,-1.5893,-1.6083,-1.6286,-1.6435,-1.6517,-1.6334,-1.6191,-1.6076,-1.5886,-1.5744,0.0,0.0,0.0,0.0,-1.6071,-1.6083,-1.6083,0.0,0.0,0.0,0.0,0.0,0.0,0.0,0.0,0.0,0.0,0.0,0.0,0.0,-1.7046,-1.7439,-1.7636,-1.7806,-1.7948,-1.8036,-1.8036,-1.8002,-1.8002,-1.7935,-1.7915,-1.7915,-1.7915,-1.7915,-1.7915,-1.7915,-1.7915,-1.7915,-1.7914,-1.8002,-1.8158,-1.8301,-1.8375,-1.8321,-1.8124,-1.7968,-1.7936,-1.7915,-1.7915,-1.7915,-1.7915,-1.7915,-1.7915,-1.7915,-1.7915,-1.7915,-1.7915,-1.7915,-1.7915,-1.7915,-1.799,-1.8091,-1.8145,-1.8301,-1.8474,-1.8498,-1.8531,0.0,0.0,0.0,0.0,-1.8145,-1.8036,-1.7948,-1.7936,-1.7915,-1.7915,-1.7935,-1.8004,-1.8004,0.0,0.0,0.0,0.0,0.0,0.0,0.0,-0.4309,-0.5369,-0.612,-0.7025,-0.8173,-0.9677,-1.0431,-1.1229,-1.2346,0.0,0.0,0.0,0.0,0.0,0.0,0.0,0.0,-1.5445,-1.5866,-1.6096,-1.613,-1.6415,-1.6551,-1.6551,-1.6551,-1.6402,-1.613,-1.611,-1.594,0.0,0.0,0.0,0.0,-1.6071,-1.6083,0.0,0.0,0.0,0.0,0.0,0.0,0.0,0.0,0.0,0.0,0.0,0.0,0.0,0.0,0.0,0.0,0.0,-1.7453,-1.7595,-1.7595,-1.7758,-1.7915,-1.7915,-1.7915,0.0,-1.7915,-1.7915,-1.7915,-1.7915,-1.7915,-1.7915,-1.7936,-1.8002,-1.8145,-1.8265,-1.8443,-1.8477,-1.8335,-1.8057,-1.7936,-1.7915,-1.7915,-1.7915,-1.7915,-1.7915,-1.7915,-1.7915,-1.7915,-1.7915,-1.7915,-1.7915,-1.7915,-1.7915,-1.7915,-1.7948,-1.8111,-1.8247,-1.8409,-1.8552,-1.8694,-1.882,0.0,0.0,0.0,0.0,-1.8233,-1.8111,-1.8091,-1.8004,-1.7956,-1.7914,-1.8057,-1.8111,-1.8124,0.0,0.0,0.0,0.0,0.0,0.0,0.0,0.0,0.0,0.0,-0.6218,-0.7066,-0.8173,-0.9284,-1.0174,0.0,0.0,0.0,0.0,0.0,0.0,0.0,0.0,0.0,-1.5792,-1.5967,-1.6246,-1.654,-1.6781,-1.687,-1.687,-1.687,-1.6775,-1.6533,-1.6354,-1.6151,0.0,0.0,0.0,0.0,-1.6069,-1.6083,0.0,0.0,0.0,0.0,-1.6083,-1.6083,0.0,0.0,0.0,0.0,0.0,0.0,0.0,0.0,-1.6463,-1.6666,-1.6804,0.0,-1.7595,-1.7595,-1.7758,-1.7915,0.0,-1.7915,-1.7915,-1.7915,-1.7915,-1.7915,-1.7915,-1.7915,-1.7956,-1.8023,-1.8077,-1.8179,-1.8443,-1.8454,-1.8477,-1.8335,-1.8145,-1.7989,-1.7936,-1.7915,-1.7915,-1.7915,-1.7915,-1.7915,-1.7915,-1.7915,-1.7915,-1.7915,-1.7915,-1.7915,-1.7915,-1.7915,-1.8002,-1.8267,-1.8301,-1.8464,-1.8708,-1.88,-1.882,0.0,0.0,0.0,-1.8474,-1.8407,-1.8355,-1.8267,-1.8233,-1.8213,-1.8213,-1.8247,-1.8267,-1.8267,0.0,0.0,0.0,0.0,0.0,0.0,0.0,0.0,0.0,0.0,0.0,0.0,0.0,0.0,0.0,0.0,0.0,0.0,0.0,0.0,0.0,0.0,0.0,-1.5139,-1.5608,-1.5821,-1.6221,-1.6856,-1.7005,-1.7114,-1.7182,-1.7114,-1.6998,-1.6842,-1.6476,-1.6225,0.0,0.0,0.0,-1.6083,-1.6083,0.0,0.0,0.0,0.0,0.0,-1.6083,-1.6083,0.0,-1.6083,-1.6083,-1.6083,0.0,0.0,0.0,0.0,-1.6354,-1.6537,-1.6574,-1.7034,-1.7487,-1.7487,-1.7704,-1.7915,-1.7915,-1.7915,-1.7915,-1.7915,-1.7915,-1.7915,-1.7915,-1.797,-1.8002,-1.8077,-1.8199,-1.8375,-1.8599,-1.8586,-1.8477,-1.8335,-1.8179,-1.8036,-1.7936,-1.7915,-1.7915,-1.7915,-1.7915,-1.7915,-1.7915,-1.7915,-1.7915,-1.7915,-1.7915,-1.7915,-1.7915,-1.7915,-1.8023,-1.8321,-1.8321,-1.8477,-1.882,-1.882,-1.882,0.0,0.0,0.0,-1.864,-1.8565,-1.8477,-1.8409,-1.8335,-1.8321,-1.8321,-1.8389,-1.8366,-1.8423,0.0,0.0,0.0,0.0,0.0,0.0,0.0,0.0,0.0,0.0,0.0,0.0,0.0,0.0,0.0,0.0,0.0,0.0,0.0,0.0,0.0,0.0,-1.3768,-1.4354,-1.5056,-1.5322,-1.5912,-1.6907,-1.7048,-1.7183,-1.7419,-1.729,-1.7114,-1.6897,-1.651,-1.6246,-1.6083,0.0,-1.6083,-1.6083,-1.6083,0.0,0.0,0.0,0.0,0.0,0.0,0.0,0.0,-1.6083,-1.6083,-1.6083,-1.6083,0.0,0.0,0.0,0.0,0.0,-1.6524,-1.6965,-1.7419,-1.7419,-1.765,-1.7915,-1.7915,-1.7915,-1.7915,-1.7915,-1.7936,-1.7956,-1.7956,-1.8023,-1.8124,-1.8158,-1.8389,-1.862,-1.88,-1.8654,-1.8454,-1.8335,-1.8199,-1.8057,-1.7936,-1.7915,-1.7915,-1.7915,-1.7915,-1.7915,-1.7915,-1.7915,-1.7915,-1.7915,-1.7936,-1.7956,-1.7956,-1.7956,-1.8036,-1.8321,-1.8335,-1.8498,-1.882,-1.882,-1.882,-1.882,0.0,0.0,-1.88,-1.862,-1.8565,-1.8552,-1.8423,-1.8389,-1.8409,-1.8511,-1.8565,-1.8586,0.0,0.0,0.0,0.0,0.0,0.0,0.0,0.0,0.0,0.0,0.0,0.0,0.0,0.0,0.0,0.0,0.0,0.0,0.0,0.0,0.0,-1.0187,-1.1944,-1.3305,-1.4086,-1.4296,-1.5075,-1.6477,-1.6614,-1.6908,-1.7419,-1.7399,-1.71,-1.6592,-1.6517,-1.6334,-1.6083,-1.6083,-1.6083,-1.6083,-1.6083,0.0,0.0,0.0,0.0,0.0,0.0,0.0,0.0,-1.6083,-1.6083,-1.6083,-1.6083,0.0,0.0,0.0,0.0,0.0,-1.6524,-1.6965,-1.7419,-1.7419,-1.765,-1.7915,-1.7915,-1.7915,-1.7915,-1.7915,-1.7968,-1.8057,-1.8057,-1.8179,-1.8321,-1.8443,-1.862,-1.8786,-1.882,-1.8742,-1.862,-1.8355,-1.8301,-1.8179,-1.7901,-1.7915,-1.7915,-1.7915,-1.7915,-1.7915,-1.7915,-1.7915,-1.7915,-1.7915,-1.7989,-1.8057,-1.8057,-1.8057,-1.8145,-1.8321,-1.8443,-1.8586,-1.882,-1.882,-1.882,-1.882,0.0,-1.882,-1.882,-1.8742,-1.8728,-1.8728,-1.8708,-1.8694,-1.8752,-1.8728,-1.8728,-1.8786,0.0,0.0,0.0,0.0,0.0,0.0,0.0,0.0,0.0,0.0,0.0,0.0,0.0,0.0,0.0,0.0,0.0,0.0,0.0,-0.7433,-0.7747,-0.7858,-0.9155,-1.0707,-1.264,-1.3121,-1.4039,-1.5547,-1.6331,-1.6874,-1.7219,-1.7331,-1.7141,-1.6639,-1.6558,-1.6361,-1.609,-1.6171,-1.6205,-1.6205,0.0,0.0,0.0,0.0,0.0,0.0,0.0,0.0,0.0,0.0,-1.6083,-1.6083,-1.6083,0.0,0.0,0.0,0.0,0.0,-1.6524,-1.6965,-1.7419,-1.7419,-1.765,-1.7915,-1.7915,-1.7935,-1.7989,-1.7989,-1.8111,-1.8213,-1.8213,-1.8335,-1.8477,-1.864,-1.8766,-1.882,-1.882,-1.882,-1.8654,-1.8355,-1.8321,-1.8199,-1.7956,-1.7915,-1.7915,-1.7915,-1.7915,-1.7915,-1.7915,-1.799,-1.7989,-1.7989,-1.8124,-1.8213,-1.8213,-1.8287,-1.8375,-1.8386,-1.8498,-1.862,-1.882,-1.882,-1.882,-1.882,0.0,-1.882,-1.882,-1.882,-1.882,-1.882,-1.882,-1.882,-1.882,-1.882,-1.882,-1.882,0.0,0.0,0.0,0.0,0.0,0.0,0.0,0.0,0.0,0.0,0.0,0.0,0.0,0.0,0.0,0.0,0.0,0.0,0.0,-0.5683,-0.5982,-0.608,-0.6558,-0.8058,-1.0763,-1.1668,-1.2777,-1.4226,-1.5536,-1.6487,-1.6988,-1.729,-1.7202,-1.6854,-1.6646,-1.6429,-1.6191,-1.6307,-1.6361,-1.6354,0.0,0.0,0.0,0.0,0.0,0.0,0.0,0.0,0.0,0.0,0.0,0.0,0.0,0.0,0.0,-1.6137,-1.6341,-1.6571,-1.6571,-1.6932,-1.7419,-1.7419,-1.765,-1.7936,-1.7914,-1.8002,-1.8111,-1.8145,-1.8267,-1.8375,-1.8375,-1.8498,-1.862,-1.8742,-1.882,-1.882,-1.882,-1.882,-1.8654,-1.8355,-1.8321,-1.8213,-1.7948,-1.797,-1.797,-1.797,-1.8004,-1.8004,-1.797,-1.8057,-1.8145,-1.8145,-1.8287,-1.8375,-1.8375,-1.8511,-1.8565,-1.8474,-1.8565,-1.8654,-1.882,-1.882,-1.882,-1.882,-1.882,-1.882,-1.882,-1.882,-1.882,-1.882,-1.882,-1.882,-1.882,-1.882,-1.882,-1.882,0.0,0.0,0.0,0.0,0.0,0.0,0.0,0.0,0.0,0.0,0.0,0.0,0.0,0.0,0.0,0.0,0.0,0.0,0.0,-0.4785,-0.4831,-0.4931,-0.5018,-0.6162,-0.849,-0.9746,-1.1094,-1.2492,-1.3804,-1.5313,-1.6926,-1.7235,-1.7256,-1.6958,-1.6802,-1.6594,-1.649,-1.6503,-1.6503,-1.6497,-1.6361,0.0,0.0,0.0,0.0,0.0,0.0,0.0,0.0,0.0,0.0,0.0,0.0,0.0,-1.6293,-1.6293,-1.6503,-1.6682,-1.6682,-1.7014,-1.7419,-1.7419,-1.765,-1.7956,-1.8036,-1.8091,-1.8124,-1.8267,-1.8366,-1.8511,-1.8511,-1.864,-1.88,-1.882,-1.882,-1.882,-1.882,-1.882,-1.8654,-1.8355,-1.8321,-1.8247,-1.8091,-1.8077,-1.8077,-1.8077,-1.8213,-1.8233,-1.8077,-1.8213,-1.8301,-1.8301,-1.8443,-1.8511,-1.8511,-1.8674,-1.8674,-1.8474,-1.8674,-1.88,-1.882,-1.882,-1.882,-1.882,-1.882,-1.882,-1.882,-1.882,-1.882,-1.882,-1.882,-1.882,-1.882,-1.882,-1.882,-1.882,0.0,0.0,0.0,0.0,0.0,0.0,0.0,0.0,0.0,0.0,0.0,0.0,0.0,0.0,0.0,0.0,0.0,0.0,-0.3675,-0.3712,-0.3747,-0.3783,-0.4207,-0.483,-0.5755,-0.7687,-0.9172,-1.0101,-1.254,-1.4475,-1.5862,-1.6202,-1.6239,-1.6041,-1.5819,-1.5841,-1.6025,-1.6104,-1.6298,-1.6601,-1.6503,-1.6442,0.0,0.0,0.0,0.0,0.0,0.0,0.0,0.0,-1.6083,-1.6096,-1.6191,-1.6259,-1.6327,-1.6415,-1.6533,-1.6696,-1.6696,-1.7027,-1.7419,-1.7419,-1.7717,-1.8023,-1.8077,-1.8233,-1.8375,-1.8386,-1.8565,-1.8674,-1.8674,-1.8728,-1.882,-1.882,-1.882,-1.882,-1.882,-1.8674,-1.8552,-1.8335,-1.8233,-1.8111,-1.7968,-1.8036,-1.8091,-1.8091,-1.8233,-1.8301,-1.8233,-1.8375,-1.8443,-1.8443,-1.8599,-1.8674,-1.8674,-1.8786,-1.8786,-1.8674,-1.8786,-1.882,-1.882,-1.882,-1.882,-1.882,-1.882,-1.882,-1.882,-1.882,-1.882,-1.882,-1.882,-1.882,-1.882,-1.882,-1.882,-1.882,0.0,0.0,0.0,0.0,0.0,0.0,0.0,0.0,0.0,0.0,0.0,0.0,0.0,0.0,0.0,0.0,0.0,0.0,-0.3082,-0.3112,-0.3142,-0.3172,-0.3584,-0.3845,-0.3891,-0.5731,-0.7183,-0.8249,-1.1316,-1.3384,-1.4419,-1.4905,-1.5104,-1.5004,-1.4745,-1.4892,-1.533,-1.558,-1.6009,-1.6475,-1.6482,-1.6497,0.0,0.0,0.0,0.0,0.0,0.0,0.0,0.0,-1.6083,-1.611,-1.6259,-1.6341,-1.6402,-1.65,-1.6648,-1.6784,-1.6824,-1.7095,-1.7433,-1.7426,-1.7826,-1.8158,-1.8158,-1.8355,-1.8494,-1.8599,-1.8694,-1.882,-1.882,-1.882,-1.882,-1.882,-1.882,-1.882,-1.882,-1.862,-1.8477,-1.8335,-1.8179,-1.8077,-1.8023,-1.8111,-1.8179,-1.8233,-1.8375,-1.8443,-1.8389,-1.8531,-1.8599,-1.8599,-1.8708,-1.882,-1.882,-1.882,-1.882,-1.882,-1.882,-1.882,-1.882,-1.882,-1.882,-1.882,-1.882,-1.882,-1.882,-1.882,-1.882,-1.882,-1.882,-1.882,-1.882,-1.882,-1.882,-1.882,0.0,0.0,0.0,0.0,0.0,0.0,0.0,0.0,0.0,0.0,-0.2943,0.0,0.0,0.0,0.0,0.0,0.0,0.0,-0.31,-0.3081,-0.3111,-0.3092,-0.315,-0.3207,-0.332,-0.396,-0.5212,-0.6992,-1.0052,-1.1916,-1.2672,-1.3565,-1.3955,-1.3944,-1.37,-1.3855,-1.4434,-1.502,-1.5517,-1.5899,-1.6321,-1.6435,-1.6293,0.0,0.0,0.0,0.0,0.0,0.0,0.0,-1.6083,-1.611,-1.6259,-1.6408,-1.6551,-1.6655,-1.6863,-1.7012,-1.7154,-1.7304,-1.7406,-1.7554,-1.7926,-1.8321,-1.8321,-1.8423,-1.8586,-1.8786,-1.882,-1.882,-1.882,-1.882,-1.882,-1.882,-1.882,-1.882,-1.882,-1.862,-1.8477,-1.8335,-1.8179,-1.8145,-1.8301,-1.8321,-1.8375,-1.8511,-1.8674,-1.8694,-1.8488,-1.8674,-1.882,-1.882,-1.882,-1.882,-1.882,-1.882,-1.882,-1.882,-1.882,-1.882,-1.882,-1.882,-1.882,-1.882,-1.882,-1.882,-1.882,-1.882,-1.882,-1.882,-1.882,-1.882,-1.882,-1.882,-1.882,-1.882,0.0,0.0,0.0,0.0,0.0,0.0,0.0,0.0,0.0,-0.2973,-0.2987,0.0,0.0,0.0,0.0,0.0,0.0,-0.31,-0.31,-0.3081,-0.3111,-0.3092,-0.315,-0.3207,-0.332,-0.3984,-0.5243,-0.6992,-0.8394,-0.9587,-1.0596,-1.1208,-1.146,-1.1456,-1.1268,-1.17,-1.2634,-1.3158,-1.3869,-1.4671,-1.5462,-1.5784,-1.5782,0.0,0.0,0.0,0.0,0.0,0.0,0.0,0.0,0.0,-1.6259,-1.6408,-1.6551,-1.6655,-1.6863,-1.7012,-1.7154,-1.7304,-1.7406,-1.7554,-1.7926,-1.8321,-1.8321,-1.8511,-1.8708,-1.88,-1.882,-1.882,-1.882,-1.882,-1.882,-1.882,-1.882,-1.882,-1.882,-1.8552,-1.8319,-1.8321,-1.8179,-1.8111,-1.8158,-1.8355,-1.8477,-1.8474,-1.8674,-1.8742,-1.8694,-1.8742,-1.882,-1.882,-1.882,-1.882,-1.882,-1.882,-1.882,-1.882,-1.882,-1.882,-1.882,-1.882,-1.882,-1.882,-1.882,-1.882,-1.882,-1.882,-1.882,-1.882,-1.882,-1.882,-1.882,-1.882,-1.882,-1.882,0.0,0.0,0.0,0.0,0.0,0.0,-0.2894,-0.2909,-0.293,-0.2966,-0.2991,-0.3014,0.0,0.0,0.0,-0.31,-0.31,-0.31,-0.31,-0.3117,-0.3099,-0.3092,-0.3189,-0.3253,-0.3337,-0.379,-0.4645,-0.5949,-0.6842,-0.7633,-0.83,-0.8766,-0.9,-0.8996,-0.9131,-0.9684,-1.0491,-1.1488,-1.2492,-1.3468,-1.4461,-1.4956,-1.5145,0.0,0.0,0.0,0.0,0.0,0.0,0.0,0.0,0.0,-1.6259,-1.6408,-1.6551,-1.6655,-1.6897,-1.71,-1.7243,-1.7392,-1.7494,-1.7704,-1.7982,-1.8247,-1.8301,-1.8498,-1.8674,-1.8674,-1.862,-1.8586,-1.8586,-1.864,-1.8674,-1.8674,-1.8728,-1.8742,-1.8674,-1.8464,-1.8301,-1.8233,-1.8145,-1.8111,-1.8179,-1.8389,-1.8552,-1.862,-1.8708,-1.882,-1.882,-1.882,-1.882,-1.882,-1.882,-1.882,-1.882,-1.882,-1.882,-1.882,-1.882,-1.882,-1.882,-1.882,-1.882,-1.882,-1.882,-1.882,-1.882,-1.882,-1.882,-1.882,-1.882,-1.882,-1.882,-1.882,-1.882,-1.882,0.0,0.0,-0.2785,-0.2785,0.0,-0.292,-0.2923,-0.2902,-0.2921,-0.2924,-0.2975,-0.301,0.0,0.0,0.0,-0.3092,-0.3094,-0.3096,-0.3096,-0.3099,-0.308,-0.3091,-0.318,-0.3254,-0.3421,-0.3478,-0.3707,-0.4208,-0.5417,-0.6057,-0.6107,-0.6543,-0.6733,-0.673,-0.7266,-0.7728,-0.8336,-0.9908,-1.1147,-1.208,-1.3143,-1.3832,-1.4127,-1.4227,0.0,0.0,0.0,0.0,0.0,0.0,0.0,0.0,-1.6246,-1.6388,-1.653,-1.6635,-1.6931,-1.7188,-1.7372,-1.7467,-1.7615,-1.7826,-1.7989,-1.8124,-1.8287,-1.8409,-1.8498,-1.8454,-1.8409,-1.8321,-1.8321,-1.8423,-1.8511,-1.8474,-1.864,-1.8674,-1.8494,-1.8389,-1.8247,-1.8111,-1.8111,-1.8165,-1.8301,-1.8464,-1.8599,-1.88,-1.882,-1.882,-1.882,-1.882,-1.882,-1.882,-1.882,-1.882,-1.882,-1.882,-1.882,-1.882,-1.882,-1.882,-1.882,-1.882,-1.882,-1.882,-1.882,-1.882,-1.882,-1.882,-1.882,-1.882,-1.882,-1.882,-1.882,-1.882,-1.882,-1.882,0.0,0.0,-0.2785,-0.2785,0.0,0.0,-0.2904,-0.2932,-0.296,-0.2984,-0.302,-0.3081,-0.3009,-0.3013,0.0,-0.3029,-0.3002,-0.3017,-0.3017,-0.3086,-0.308,-0.3091,-0.3239,-0.3326,-0.34,-0.3415,-0.3471,-0.3571,-0.4361,-0.4909,-0.5358,-0.5454,-0.5503,-0.5501,-0.5599,-0.6178,-0.7017,-0.7847,-0.8738,-0.9748,-1.0804,-1.1292,-1.1473,-1.2324,-1.2624,0.0,0.0,0.0,0.0,0.0,0.0,0.0,-1.6017,-1.6232,-1.6381,-1.6479,-1.6648,-1.6878,-1.7317,-1.7446,-1.7534,-1.7847,-1.7989,-1.8124,-1.8287,-1.8247,-1.8213,-1.8335,-1.8335,-1.8321,-1.8321,-1.8335,-1.8409,-1.8454,-1.8464,-1.8443,-1.8511,-1.8301,-1.8124,-1.8091,-1.8199,-1.8287,-1.8321,-1.8552,-1.8728,-1.882,-1.882,-1.882,-1.882,-1.882,-1.882,-1.882,-1.882,-1.882,-1.882,-1.882,-1.882,-1.882,-1.882,-1.882,-1.882,-1.882,-1.882,-1.882,-1.882,-1.882,-1.882,-1.882,-1.882,-1.882,-1.882,-1.882,-1.882,-1.882,-1.882,-1.882,0.0,0.0,0.0,0.0,0.0,0.0,0.0,0.0,-0.3013,-0.2983,-0.3011,-0.3024,-0.3009,-0.2994,0.0,0.0,-0.3022,-0.2991,-0.3006,-0.3022,-0.307,-0.316,-0.3251,-0.3321,-0.3367,-0.3369,-0.3375,-0.339,-0.3725,-0.3998,-0.4265,-0.4335,-0.4335,-0.4318,-0.4603,-0.4979,-0.5446,-0.6273,-0.723,-0.8213,-0.9016,-0.9669,-1.017,-1.0722,-1.0972,-1.1022,-1.1573,0.0,0.0,0.0,0.0,0.0,0.0,0.0,-1.5916,-1.5989,-1.642,-1.691,-1.7148,-1.7365,-1.7582,-1.7812,-1.797,-1.8023,-1.8179,-1.8145,-1.8124,-1.8287,-1.8267,-1.8213,-1.8213,-1.8321,-1.8423,-1.8423,-1.8423,-1.8389,-1.8335,-1.8199,-1.8057,-1.7989,-1.8179,-1.8321,-1.8321,-1.8586,-1.882,-1.882,-1.882,-1.882,-1.882,-1.882,-1.882,-1.882,-1.882,-1.882,-1.882,-1.882,-1.882,-1.882,-1.882,-1.882,-1.882,-1.882,-1.882,-1.882,-1.882,-1.882,-1.882,-1.882,-1.882,-1.882,-1.882,-1.882,-1.882,-1.882,-1.882,-1.882,0.0,0.0,0.0,0.0,0.0,0.0,0.0,0.0,0.0,-0.3,-0.298,-0.2996,-0.2991,-0.2969,-0.2998,0.0,0.0,0.0,-0.2996,-0.3014,-0.3071,-0.3183,-0.3239,-0.3284,-0.3321,-0.3321,-0.3333,-0.3359,-0.3417,-0.3382,-0.3412,-0.3442,-0.3446,-0.3429,-0.3931,-0.4153,-0.4161,-0.5088,-0.6055,-0.6905,-0.7361,-0.8065,-0.8866,-0.8966,-0.9016,-0.9067,-0.9318,-0.997,-1.0872,-1.1673,0.0,0.0,0.0,0.0,-1.5208,-1.5335,-1.5956,-1.6615,-1.68,-1.7203,-1.7629,-1.7826,-1.7936,-1.7935,-1.8057,-1.8111,-1.8165,-1.8301,-1.8213,-1.8124,-1.8124,-1.8335,-1.8407,-1.8335,-1.8389,-1.8375,-1.8124,-1.8077,-1.8002,-1.7936,-1.8124,-1.8321,-1.8321,-1.8586,-1.882,-1.882,-1.882,-1.882,-1.882,-1.882,-1.882,-1.882,-1.882,-1.882,-1.882,-1.882,-1.882,-1.882,-1.882,-1.882,-1.882,-1.882,-1.882,-1.882,-1.882,-1.882,-1.882,-1.882,-1.882,-1.882,-1.882,-1.882,-1.882,-1.882,-1.8841,-1.8854,0.0,0.0,0.0,0.0,0.0,0.0,0.0,0.0,0.0,0.0,-0.2949,-0.2957,-0.2931,-0.2924,-0.2912,-0.2932,-0.2908,-0.2935,-0.3011,0.0,0.0,-0.3185,-0.3219,-0.3264,-0.332,-0.3321,-0.3324,-0.3326,-0.3354,-0.3382,-0.3412,-0.3442,-0.3469,-0.349,-0.3575,-0.3849,-0.42,-0.427,-0.4621,-0.515,-0.52,-0.5352,-0.5501,-0.6055,-0.6256,-0.6405,-0.7814,-0.8417,-0.8819,-1.0772,-1.1523,0.0,0.0,0.0,-1.4075,-1.4647,-1.4923,-1.5201,-1.6086,-1.6929,-1.7629,-1.7826,-1.7968,-1.8077,-1.8091,-1.8199,-1.8301,-1.8321,-1.8301,-1.8287,-1.8287,-1.8321,-1.8335,-1.8321,-1.8233,-1.8145,-1.8091,-1.8024,-1.7936,-1.7915,-1.8124,-1.8321,-1.8321,-1.8586,-1.882,-1.882,-1.882,-1.882,-1.882,-1.882,-1.882,-1.882,-1.882,-1.882,-1.882,-1.882,-1.882,-1.882,-1.882,-1.882,-1.882,-1.882,-1.882,-1.882,-1.882,-1.882,-1.882,-1.882,-1.882,-1.882,-1.882,-1.882,-1.882,-1.882,-1.885,-1.8959,0.0,0.0,0.0,0.0,0.0,0.0,0.0,0.0,0.0,0.0,0.0,-0.2931,-0.2917,-0.2902,-0.2887,-0.292,-0.2885,-0.2912,-0.3004,-0.3078,-0.3092,-0.3135,-0.3165,-0.3144,-0.317,-0.3238,-0.3254,-0.3219,-0.3318,-0.3374,-0.3438,-0.3484,-0.3506,-0.3502,-0.3524,-0.3642,-0.3761,-0.3728,-0.3985,-0.4426,-0.4426,-0.4579,-0.4886,-0.5166,-0.5262,-0.5339,-0.6048,-0.6485,-0.6959,-0.8213,-0.8986,-0.9695,-1.0934,0.0,0.0,0.0,-1.3857,-1.447,-1.5839,-1.6544,-1.7075,-1.7574,-1.786,-1.8002,-1.8179,-1.8267,-1.8375,-1.8531,-1.8565,-1.8552,-1.8407,-1.8386,-1.8409,-1.8335,-1.8199,-1.8057,-1.8024,-1.7956,-1.7956,-1.7989,-1.8179,-1.8355,-1.8423,-1.864,-1.882,-1.882,-1.882,-1.882,-1.882,-1.882,-1.882,-1.882,-1.882,-1.882,-1.882,-1.882,-1.882,-1.882,-1.882,-1.882,-1.882,-1.882,-1.882,-1.882,-1.882,-1.882,-1.882,-1.882,-1.882,-1.882,-1.882,-1.882,-1.8841,-1.8909,-1.8938,-1.9006,0.0,0.0,0.0,0.0,0.0,0.0,0.0,0.0,0.0,0.0,0.0,-0.2905,-0.2905,0.0,0.0,0.0,-0.2919,-0.2944,-0.3003,-0.3058,-0.3106,-0.3096,-0.3119,-0.3085,-0.3093,-0.3172,-0.3198,-0.322,-0.3288,-0.3363,-0.3502,-0.352,-0.3549,-0.3538,-0.3572,-0.3531,-0.3433,-0.3395,-0.3604,-0.3904,-0.3904,-0.4166,-0.4537,-0.4517,-0.4508,-0.4534,-0.4688,-0.4962,-0.5418,-0.6075,-0.679,-0.7632,-0.8772,-0.9756,0.0,0.0,0.0,-1.3877,-1.5264,-1.5999,-1.6523,-1.7189,-1.7628,-1.7948,-1.8247,-1.8355,-1.8443,-1.8766,-1.882,-1.8728,-1.862,-1.8552,-1.8477,-1.8335,-1.8199,-1.8036,-1.7936,-1.7915,-1.797,-1.8077,-1.8233,-1.8375,-1.8511,-1.8674,-1.882,-1.882,-1.882,-1.882,-1.882,-1.882,-1.882,-1.882,-1.882,-1.882,-1.882,-1.882,-1.882,-1.882,-1.882,-1.882,-1.882,-1.882,-1.882,-1.882,-1.882,-1.882,-1.882,-1.882,-1.882,-1.882,-1.882,-1.8841,-1.883,-1.8952,-1.904,-1.9115,0.0,0.0,0.0,0.0,0.0,0.0,-0.301,-0.2934,0.0,0.0,0.0,-0.2921,-0.2921,-0.292,-0.2919,-0.2919,-0.2919,-0.2944,-0.3003,-0.2991,-0.3036,-0.3095,-0.3099,0.0,-0.3093,-0.3172,-0.3189,-0.319,-0.3279,-0.3354,-0.3416,-0.3534,-0.3604,-0.3571,-0.36,-0.3555,-0.3495,-0.3434,-0.3374,-0.3318,-0.3318,-0.3388,-0.3467,-0.3468,-0.3468,-0.3519,-0.4044,-0.4208,-0.4348,-0.5368,-0.5794,-0.61,-0.7657,-0.8457,-0.9035,0.0,0.0,0.0,-1.4013,-1.5204,-1.6267,-1.6599,-1.7254,-1.7948,-1.8247,-1.8423,-1.8565,-1.8786,-1.882,-1.882,-1.88,-1.864,-1.8477,-1.8335,-1.8199,-1.8036,-1.7936,-1.7915,-1.797,-1.8077,-1.8233,-1.8375,-1.8511,-1.8674,-1.882,-1.882,-1.882,-1.882,-1.882,-1.882,-1.882,-1.882,-1.882,-1.882,-1.882,-1.882,-1.882,-1.882,-1.882,-1.882,-1.882,-1.882,-1.882,-1.882,-1.882,-1.882,-1.882,-1.882,-1.882,-1.882,-1.882,-1.8909,-1.8972,-1.8993,-1.9169,-1.9353,0.0,0.0,0.0,0.0,0.0,0.0,-0.2995,-0.2965,-0.2942,0.0,0.0,0.0,0.0,-0.2901,-0.2894,-0.292,-0.289,-0.2917,-0.3004,-0.299,-0.3033,-0.3095,-0.3097,-0.3112,-0.3093,-0.3172,-0.3189,-0.3189,-0.3277,-0.3352,-0.3414,-0.3513,-0.3587,-0.3579,-0.3645,-0.3614,-0.3555,-0.3475,-0.3429,-0.3407,-0.3386,-0.341,-0.3456,-0.3474,-0.3752,-0.4131,-0.427,-0.432,-0.4356,-0.4698,-0.4726,-0.4845,-0.6105,-0.6759,-0.7372,-0.9124,-1.0652,-1.2007,-1.3122,-1.3917,-1.4784,-1.6022,-1.6779,-1.7338,-1.7926,-1.8213,-1.8443,-1.8586,-1.8694,-1.882,-1.882,-1.8565,-1.8375,-1.8321,-1.8111,-1.7935,-1.7915,-1.7915,-1.8004,-1.8213,-1.8287,-1.8409,-1.8654,-1.8786,-1.882,-1.882,-1.882,-1.882,-1.882,-1.882,-1.882,-1.882,-1.882,-1.882,-1.882,-1.882,-1.882,-1.882,-1.882,-1.882,-1.882,-1.882,-1.882,-1.882,-1.882,-1.882,-1.882,-1.882,-1.882,-1.8841,-1.8871,-1.8938,-1.9006,-1.9203,-1.9345,-1.9447,0.0,-0.3159,-0.3148,-0.3118,0.0,-0.3069,-0.3028,-0.3052,-0.3031,-0.301,0.0,0.0,0.0,0.0,-0.2924,-0.295,-0.292,-0.2945,-0.2975,-0.3005,-0.3044,-0.3096,-0.3107,-0.3122,-0.3093,-0.3172,-0.3189,-0.3189,-0.3277,-0.3347,-0.3399,-0.3489,-0.3562,-0.3621,-0.3643,-0.3628,-0.3587,-0.3517,-0.348,-0.3471,-0.346,-0.3493,-0.3551,-0.358,-0.3991,-0.4558,-0.4518,-0.4621,-0.4762,-0.4656,-0.4513,-0.4572,-0.541,-0.5981,-0.6752,-0.8544,-0.972,-1.0755,-1.1838,-1.2728,-1.3653,-1.4958,-1.5971,-1.6855,-1.7482,-1.7936,-1.8355,-1.8498,-1.8654,-1.882,-1.882,-1.8518,-1.8321,-1.8321,-1.8057,-1.7915,-1.7915,-1.7915,-1.8024,-1.8287,-1.8321,-1.8443,-1.8786,-1.882,-1.882,-1.882,-1.882,-1.882,-1.882,-1.882,-1.882,-1.882,-1.882,-1.882,-1.882,-1.882,-1.882,-1.882,-1.882,-1.882,-1.882,-1.882,-1.882,-1.882,-1.882,-1.882,-1.882,-1.882,-1.8854,-1.8909,-1.8959,-1.9047,-1.9169,-1.9359,-1.9468,-1.9522,-0.3197,-0.3193,-0.3183,-0.3103,-0.3097,-0.3126,-0.3114,-0.3103,-0.3081,-0.3021,0.0,0.0,0.0,0.0,0.0,-0.3011,-0.3013,-0.3025,-0.3007,-0.3085,-0.3117,-0.31,-0.3081,-0.3097,-0.3099,-0.3178,-0.3193,-0.3193,-0.328,-0.3337,-0.3423,-0.3459,-0.3531,-0.3587,-0.3587,-0.3587,-0.3587,-0.3503,-0.3476,-0.3509,-0.3482,-0.3527,-0.3586,-0.3674,-0.4107,-0.4713,-0.4673,-0.501,-0.5489,-0.5399,-0.5251,-0.5264,-0.5686,-0.6373,-0.7211,-0.8235,-0.891,-0.9414,0.0,0.0,0.0,-1.3382,-1.492,-1.6453,-1.6885,-1.7649,-1.8298,-1.844,-1.8654,-1.8762,-1.882,-1.8518,-1.8321,-1.8321,-1.8057,-1.7915,-1.7915,-1.7915,-1.8024,-1.8287,-1.8321,-1.8443,-1.8786,-1.882,-1.882,-1.882,-1.882,-1.882,-1.882,-1.882,-1.882,-1.882,-1.882,-1.882,-1.882,-1.882,-1.882,-1.882,-1.882,-1.882,-1.882,-1.882,-1.882,-1.882,-1.882,-1.8841,-1.8841,-1.882,-1.8871,-1.8993,-1.9006,-1.9183,-1.9374,-1.9434,-1.9535,-1.9725,-0.3281,-0.3284,-0.3275,-0.3245,-0.3221,-0.3194,-0.3156,-0.3131,-0.3112,0.0,0.0,0.0,-0.3095,-0.3092,-0.3084,-0.3062,-0.308,-0.3086,-0.3073,-0.3101,-0.3141,-0.3191,-0.3151,-0.3176,-0.3219,-0.328,-0.3284,-0.3284,-0.333,-0.337,-0.34,-0.3448,-0.349,-0.3527,-0.3527,-0.3538,-0.35,-0.3493,-0.3509,-0.3544,-0.3551,-0.3659,-0.3737,-0.3768,-0.4508,-0.5484,-0.5445,-0.5804,-0.6373,-0.6213,-0.5809,-0.5384,-0.5625,-0.6395,-0.7187,-0.7384,-0.7868,-0.8398,-0.8986,0.0,0.0,0.0,0.0,0.0,-1.5789,-1.639,-1.6883,-1.7578,-1.7804,-1.8121,-1.8684,-1.8518,-1.8321,-1.8321,-1.8057,-1.7915,-1.7915,-1.7915,-1.8024,-1.8287,-1.8321,-1.8443,-1.8786,-1.882,-1.882,-1.882,-1.882,-1.882,-1.882,-1.882,-1.882,-1.882,-1.882,-1.882,-1.882,-1.882,-1.882,-1.882,-1.882,-1.882,-1.882,-1.882,-1.8875,-1.8918,-1.8918,-1.8993,-1.9081,-1.8972,-1.9006,-1.9149,-1.9271,-1.9359,-1.9447,-1.9556,-1.9624,-1.9725,-0.3317,-0.3321,-0.3315,-0.3298,-0.328,-0.3258,-0.323,-0.3209,-0.3198,0.0,0.0,0.0,-0.3167,-0.3167,-0.3205,-0.3174,-0.3187,-0.3186,-0.3155,-0.3182,-0.3213,-0.3247,-0.3261,-0.3284,-0.3321,-0.3321,-0.3321,-0.3321,-0.3351,-0.3375,-0.3393,-0.3425,-0.3454,-0.3483,-0.3483,-0.3506,-0.3489,-0.3489,-0.3524,-0.3582,-0.3606,-0.3726,-0.3813,-0.3855,-0.469,-0.5896,-0.5849,-0.6408,-0.7249,-0.7369,-0.7047,-0.6522,-0.6258,-0.657,-0.6919,-0.682,-0.7178,-0.7675,-0.8035,-0.8795,-0.9791,-1.1147,0.0,0.0,-1.4673,-1.5388,-1.6044,-1.6784,-1.7029,-1.7263,-1.7754,-1.7864,-1.7845,-1.7911,-1.7956,-1.7935,-1.7936,-1.797,-1.8057,-1.8287,-1.8375,-1.8498,-1.8742,-1.882,-1.882,-1.882,-1.882,-1.882,-1.882,-1.882,-1.882,-1.882,-1.882,-1.882,-1.882,-1.882,-1.882,-1.882,-1.882,-1.8854,-1.8909,-1.8909,-1.8938,-1.9081,-1.9081,-1.9169,-1.9291,-1.9203,-1.9217,-1.9305,-1.9393,-1.9468,-1.9535,-1.9684,-1.9725,-1.9725,0.0,-0.3339,-0.3341,-0.3341,-0.3339,-0.3326,-0.33,-0.3294,-0.3292,0.0,-0.3305,-0.3321,-0.3348,-0.3354,-0.3341,-0.3305,-0.33,-0.3285,-0.3247,-0.327,-0.3285,-0.3285,-0.3314,-0.3332,-0.3336,-0.334,-0.334,-0.3336,-0.3363,-0.3428,-0.3424,-0.3399,-0.3429,-0.3511,-0.3511,-0.349,-0.3489,-0.3493,-0.3531,-0.3592,-0.3708,-0.3786,-0.3929,-0.3936,-0.4807,-0.6121,-0.6021,-0.6911,-0.8149,-0.8623,-0.8545,-0.8076,-0.7328,-0.6876,-0.6613,-0.6556,-0.6758,-0.6982,-0.7203,-0.79,-0.876,-0.9616,-1.0803,0.0,-1.3403,-1.4393,-1.5134,-1.5836,-1.6101,-1.6241,-1.6373,-1.6721,-1.7065,-1.7388,-1.7735,-1.8001,-1.7935,-1.8036,-1.8179,-1.8321,-1.8407,-1.8586,-1.88,-1.882,-1.882,-1.882,-1.882,-1.882,-1.882,-1.882,-1.882,-1.882,-1.882,-1.882,-1.882,-1.882,-1.882,-1.882,-1.8841,-1.8871,-1.8993,-1.9006,-1.9094,-1.9217,-1.9217,-1.9305,-1.9447,-1.9447,-1.9447,-1.9447,-1.9447,-1.9535,-1.9725,-1.9725,-1.9725,-1.9725,-0.3426,-0.345,-0.3467,-0.3467,-0.3448,-0.3482,-0.3477,-0.3401,-0.3395,-0.3472,-0.3484,-0.3531,-0.3538,-0.3558,-0.354,-0.3465,-0.3459,-0.3425,-0.3345,-0.3398,-0.34,-0.34,-0.3378,-0.3405,-0.3484,-0.3454,-0.3454,-0.3485,-0.349,-0.3427,-0.3403,-0.341,-0.3429,-0.3511,-0.3511,-0.349,-0.3489,-0.3569,-0.3632,-0.3712,-0.3748,-0.3817,-0.3904,-0.3929,-0.4866,-0.6111,-0.6104,-0.7299,-0.9027,-0.9455,-0.9031,-0.8345,-0.8081,-0.7512,-0.6918,-0.6856,-0.6491,-0.6145,-0.6168,-0.6632,-0.7266,-0.7992,-0.9039,0.0,-1.165,-1.2121,-1.2598,-1.3889,-1.4172,-1.4486,-1.556,-1.5756,-1.6115,-1.7212,-1.7404,-1.755,-1.8156,-1.8247,-1.8321,-1.8477,-1.8454,-1.8586,-1.88,-1.882,-1.882,-1.882,-1.882,-1.882,-1.882,-1.882,-1.882,-1.882,-1.882,-1.882,-1.882,-1.882,-1.882,-1.882,-1.8884,-1.8959,-1.8993,-1.9115,-1.9237,-1.9379,-1.9379,-1.9468,-1.9671,-1.9671,-1.9671,-1.9671,-1.9671,-1.9644,-1.9725,-1.9725,-1.9725,-1.9725,-0.3476,-0.3493,-0.3502,-0.3502,-0.349,-0.348,-0.348,-0.3479,-0.3495,-0.354,-0.3639,-0.3701,-0.3701,-0.3715,-0.3694,-0.3621,-0.36,-0.3551,-0.3461,-0.3454,-0.3449,-0.3435,-0.3449,-0.3464,-0.3479,-0.3495,-0.3495,-0.348,-0.3518,-0.3503,-0.3434,-0.3434,-0.3442,-0.3511,-0.3472,-0.3502,-0.3493,-0.3576,-0.3643,-0.373,-0.3793,-0.388,-0.3981,-0.4054,-0.4946,-0.6225,-0.6225,-0.7746,-0.9768,-0.9842,-0.9495,-0.9015,-0.855,-0.7866,-0.7166,0.0,-0.6763,-0.639,-0.6146,-0.6219,0.0,-0.6837,0.0,0.0,0.0,-1.0424,-1.0992,-1.1972,-1.2167,-1.2452,-1.3404,-1.4047,-1.4719,-1.5801,-1.6721,-1.7456,-1.7897,-1.8195,-1.8443,-1.8474,-1.8599,-1.8674,-1.8762,-1.882,-1.882,-1.882,-1.882,-1.882,-1.882,-1.882,-1.882,-1.882,-1.882,-1.882,-1.882,-1.8888,-1.8929,-1.8884,-1.9027,-1.9128,-1.9217,-1.9291,-1.9393,-1.9535,-1.9535,-1.959,-1.9725,-1.9725,-1.9725,-1.9725,-1.9725,-1.9725,-1.9725,-1.9725,-1.9725,-1.9739,-0.3513,-0.3516,-0.352,-0.352,-0.352,-0.352,-0.3527,-0.3551,-0.354,-0.367,-0.3786,-0.3859,-0.3851,-0.3983,-0.4022,-0.3952,-0.4091,-0.4088,-0.393,-0.3911,-0.3836,-0.3696,-0.3692,-0.3637,-0.3527,-0.3527,-0.3524,-0.352,-0.3489,-0.3525,-0.352,-0.352,-0.3522,-0.3475,-0.3506,-0.3534,-0.3509,-0.3607,-0.367,-0.375,-0.3848,-0.3947,-0.4048,-0.4239,-0.5152,-0.6401,-0.6931,-0.8493,-1.0282,-1.0342,-1.0249,-0.9879,-0.9202,-0.8342,0.0,0.0,0.0,-0.68,0.0,0.0,0.0,0.0,0.0,-0.7062,0.0,0.0,0.0,-0.9917,-1.0133,-1.0356,-1.0978,-1.2084,-1.3227,-1.4191,-1.5756,-1.701,-1.7498,-1.7982,-1.8339,-1.8565,-1.8694,-1.882,-1.882,-1.882,-1.882,-1.882,-1.882,-1.882,-1.882,-1.882,-1.882,-1.882,-1.882,-1.8841,-1.8854,-1.8918,-1.9006,-1.9027,-1.9183,-1.9305,-1.9374,-1.9468,-1.9535,-1.9725,-1.9725,-1.9725,-1.9725,-1.9725,-1.9725,-1.9725,-1.9725,-1.9725,-1.9725,-1.9725,-1.9739,-1.9773,-0.3489,-0.3562,-0.358,-0.358,-0.358,-0.3589,-0.3562,-0.3645,-0.3705,-0.382,-0.3938,-0.4005,-0.3978,-0.4585,-0.5021,-0.4854,-0.5417,-0.5699,-0.5566,-0.5423,-0.5076,-0.4527,-0.4471,-0.4188,-0.3621,-0.3564,-0.3607,-0.358,-0.3549,-0.3524,-0.3499,-0.3499,-0.3509,-0.3482,-0.3565,-0.3596,-0.3575,-0.3716,-0.3771,-0.3817,-0.3932,-0.4005,-0.4113,-0.4847,-0.5652,-0.6717,-0.9243,-1.0169,-1.0502,0.0,-1.1576,-1.0856,0.0,-0.9703,-0.8558,-0.8495,0.0,0.0,0.0,0.0,0.0,0.0,-0.5151,0.0,0.0,0.0,-0.6892,-0.7457,0.0,-0.8573,-0.9184,0.0,0.0,-1.3404,-1.433,-1.5451,-1.7187,-1.7477,-1.7815,-1.865,-1.88,-1.882,-1.882,-1.882,-1.882,-1.882,-1.882,-1.882,-1.882,-1.882,-1.882,-1.882,-1.882,-1.883,-1.8959,-1.8993,-1.9061,-1.9183,-1.9325,-1.9413,-1.9434,-1.9569,-1.9705,-1.9725,-1.9725,-1.9725,-1.9725,-1.9725,-1.9725,-1.9725,-1.9725,-1.9725,-1.9725,-1.9725,-1.9752,-1.9854,-0.3576,-0.358,-0.3589,-0.3589,-0.3604,-0.3625,-0.3656,-0.3748,-0.4022,-0.4539,-0.4672,-0.4963,-0.5377,-0.6128,-0.6583,-0.6588,-0.7118,-0.7423,-0.7261,-0.6753,-0.6304,-0.5964,-0.5549,-0.494,-0.4265,-0.4265,-0.4006,-0.3618,-0.3587,-0.3555,-0.3527,-0.3527,-0.354,-0.3572,-0.3604,-0.3643,-0.3692,-0.3768,-0.3824,-0.388,-0.3998,-0.4075,-0.4188,-0.503,-0.6025,-0.7364,-0.9729,-1.0519,-1.0689,0.0,-1.1911,0.0,0.0,0.0,0.0,-0.9379,0.0,0.0,0.0,0.0,0.0,0.0,0.0,0.0,-0.5797,0.0,-0.5831,0.0,0.0,0.0,0.0,0.0,0.0,0.0,-1.3093,-1.4386,-1.5569,-1.6381,-1.7275,-1.8376,-1.8498,-1.8531,-1.862,-1.8708,-1.882,-1.882,-1.882,-1.882,-1.882,-1.882,-1.882,-1.882,-1.882,-1.883,-1.8993,-1.9081,-1.9183,-1.9345,-1.9481,-1.9569,-1.9569,-1.9684,-1.9725,-1.9725,-1.9725,-1.9725,-1.9725,-1.9725,-1.9725,-1.9725,-1.9725,-1.9725,-1.9739,-1.9814,-1.982,-1.9888,-0.3618,-0.36,-0.3594,-0.36,-0.3621,-0.3656,-0.3719,-0.4029,-0.446,-0.5043,-0.5636,-0.6234,-0.6861,-0.7971,-0.8724,-0.8711,-0.9415,-0.9814,-0.9624,-0.8805,-0.818,-0.7926,-0.6959,-0.6114,-0.5384,-0.4947,-0.4487,-0.3956,-0.37,-0.3607,-0.3513,-0.3513,-0.3527,-0.3604,-0.3643,-0.3637,-0.3757,-0.3835,-0.4015,-0.4258,-0.439,-0.4749,-0.5213,-0.5508,-0.6699,-0.8379,-1.0068,-1.0894,-1.1383,-1.2429,-1.2595,0.0,-1.2126,0.0,-1.0927,0.0,0.0,0.0,-0.8333,0.0,0.0,0.0,0.0,0.0,0.0,0.0,0.0,0.0,0.0,0.0,0.0,0.0,-0.8315,-0.9832,0.0,-1.292,-1.3817,-1.4791,-1.6062,-1.7854,-1.8201,-1.8375,-1.8511,-1.864,-1.8766,-1.882,-1.882,-1.882,-1.882,-1.882,-1.882,-1.882,-1.8854,-1.8905,-1.904,-1.9183,-1.9345,-1.9501,-1.961,-1.9725,-1.9725,-1.9725,-1.9725,-1.9725,-1.9725,-1.9725,-1.9725,-1.9725,-1.9739,-1.9773,-1.9773,-1.9752,-1.9848,-1.9854,-1.9929,-2.0031,-0.3677,-0.3632,-0.36,-0.3628,-0.3579,-0.3684,-0.3891,-0.4576,-0.5146,-0.526,-0.6678,-0.7782,-0.7958,-1.0089,-1.1403,-1.126,-1.2489,-1.3189,-1.3079,-1.2023,-1.1186,-1.0538,-0.8877,-0.7687,-0.7017,-0.5645,-0.4841,-0.4765,-0.4028,-0.3634,-0.3575,-0.3575,-0.3575,-0.3579,-0.3641,-0.3757,-0.382,-0.3938,-0.4381,-0.5055,-0.5209,-0.6199,-0.7535,-0.6791,-0.7913,-0.9937,-1.0552,0.0,0.0,-1.3518,-1.4152,0.0,0.0,0.0,0.0,0.0,0.0,0.0,0.0,0.0,0.0,-0.7055,0.0,0.0,0.0,0.0,-0.3734,0.0,0.0,0.0,0.0,0.0,-0.7429,-0.8054,-0.9236,0.0,0.0,-1.2595,-1.3837,-1.7023,-1.7911,-1.8375,-1.8511,-1.8531,-1.8599,-1.88,-1.882,-1.882,-1.882,-1.882,-1.882,-1.882,-1.8905,-1.9047,-1.9203,-1.9345,-1.9501,-1.9664,-1.9725,-1.9725,-1.9725,-1.9725,-1.9725,-1.9725,-1.9725,-1.9725,-1.9725,-1.9725,-1.9752,-1.9875,-1.9875,-1.9963,-2.0064,-1.9929,-2.0064,-2.0315,-0.4207,-0.431,-0.4315,-0.4326,-0.4347,-0.4602,-0.5277,-0.6074,-0.69,-0.7614,-0.9196,-1.0624,-1.1289,-1.3071,-1.4441,-1.4838,-1.5662,-1.6064,-1.5779,-1.4883,-1.3764,-1.2327,-1.115,-0.9682,-0.795,-0.7366,-0.6382,-0.4846,-0.4572,-0.4165,-0.3694,-0.3674,-0.3677,-0.3641,-0.3737,-0.3799,-0.388,-0.448,-0.4892,-0.5304,-0.6455,-0.7539,-0.8471,-0.8158,-0.8837,-1.0152,-1.1771,-1.2695,0.0,-1.4317,-1.4834,-1.4971,-1.4799,-1.4527,-1.4281,-1.3925,-1.3334,0.0,0.0,0.0,-0.9891,-0.8653,0.0,0.0,0.0,0.0,0.0,0.0,0.0,0.0,0.0,0.0,-0.6981,-0.7998,-0.8784,-0.9634,0.0,-1.1746,-1.306,-1.4591,-1.6416,-1.7593,-1.775,-1.8185,-1.8599,-1.88,-1.882,-1.882,-1.882,-1.882,-1.882,-1.882,-1.8905,-1.9061,-1.9203,-1.9359,-1.9501,-1.9725,-1.9725,-1.9725,-1.9725,-1.9725,-1.9725,-1.9725,-1.9766,-1.98,-1.9861,-1.9908,-1.9976,-2.0031,-2.0031,-2.0119,-2.0241,-2.0187,-2.0241,-2.0286,-0.4978,-0.5296,-0.5429,-0.509,-0.5346,-0.5839,-0.6472,-0.7761,-0.8983,-0.9717,-1.1879,-1.3706,-1.4496,-1.6371,-1.772,-1.8163,-1.8817,-1.8985,-1.8628,-1.7487,-1.6239,-1.504,-1.3494,-1.1849,-1.0077,-0.9198,-0.783,-0.6065,-0.529,-0.4613,-0.4111,-0.3842,-0.3719,-0.373,-0.3768,-0.3957,-0.4355,-0.4908,-0.5667,-0.665,-0.8527,-0.9786,-1.0498,-1.0799,-1.0989,-1.1337,0.0,-1.3766,-1.4566,-1.561,-1.6162,-1.6343,-1.6521,-1.6493,-1.6348,-1.5997,-1.5599,-1.4939,-1.3962,-1.2902,0.0,-1.063,-0.9167,0.0,-0.6758,0.0,0.0,0.0,0.0,0.0,0.0,0.0,-0.6639,-0.7129,-0.7677,-0.8228,0.0,-1.025,-1.153,-1.2362,-1.4848,-1.6727,-1.7261,-1.7787,-1.8295,-1.8674,-1.8786,-1.882,-1.882,-1.882,-1.882,-1.882,-1.8959,-1.9115,-1.9203,-1.9413,-1.9556,-1.9725,-1.9725,-1.9725,-1.9725,-1.9773,-1.9793,-1.9752,-1.9888,-1.9963,-1.9963,-2.0064,-2.0139,-2.0187,-2.0187,-2.0275,-2.0397,-2.0349,-2.03,-2.0354,-0.5973,-0.6619,-0.6978,-0.6124,-0.6715,-0.7368,-0.7592,-0.9654,-1.1295,-1.1741,-1.4638,-1.6925,-1.735,-1.9642,-2.1159,-2.1159,-2.172,-2.1929,-2.1535,-1.9816,-1.8688,-1.8501,-1.6031,-1.4195,-1.3267,-1.1089,-0.9357,-0.8274,-0.6267,-0.5105,-0.4776,-0.4145,-0.3816,-0.3733,-0.3793,-0.4233,-0.5008,-0.5224,-0.6666,-0.8954,-1.1394,-1.2809,-1.3643,-1.4422,-1.4348,-1.3643,-1.3547,-1.4903,-1.6744,-1.7456,-1.8162,-1.883,-1.9577,-1.9615,-1.9256,-1.859,-1.8215,-1.7703,-1.633,-1.4937,-1.3665,-1.2795,0.0,0.0,0.0,0.0,-0.6114,0.0,0.0,0.0,0.0,0.0,0.0,-0.5754,-0.6008,-0.6544,-0.7043,-0.814,-0.929,-1.0506,-1.3238,-1.5571,-1.6994,-1.7261,-1.7686,-1.8454,-1.8674,-1.8762,-1.882,-1.882,-1.882,-1.882,-1.9047,-1.9203,-1.9203,-1.9501,-1.9725,-1.9725,-1.9725,-1.9739,-1.9739,-1.982,-1.9888,-1.9888,-2.0051,-2.0119,-2.0119,-2.0119,-2.0207,-2.0286,-2.0286,-2.0417,-2.0462,-2.0383,-2.0417,-2.0476,-0.8098,-0.9228,-1.0116,-1.0153,-1.0346,-1.0506,-1.0803,-1.246,-1.4148,-1.5246,-1.7426,-1.9268,-2.0195,-2.1628,-2.2683,-2.3207,-2.3301,-2.3238,-2.2925,-2.2133,-2.118,-1.9876,-1.8747,-1.7249,-1.5229,-1.3799,-1.1825,-0.9237,-0.7991,-0.6542,-0.4956,-0.4678,-0.4274,-0.3795,-0.3831,-0.4312,-0.507,-0.6301,-0.8494,-1.138,-1.3794,-1.4948,-1.5254,0.0,-1.7392,-1.7591,-1.6983,-1.7086,-1.7762,-1.8942,-1.9443,-1.9568,-1.975,-1.9738,-1.9677,-1.9486,-1.937,-1.9102,-1.8222,-1.7188,-1.6009,-1.4177,-1.2625,-1.1027,0.0,0.0,0.0,0.0,0.0,0.0,0.0,0.0,0.0,-0.7601,-0.7251,-0.6999,-0.7153,-0.7819,-0.8691,-0.9801,-1.1409,-1.3374,-1.565,-1.6715,-1.7625,-1.8454,-1.8565,-1.864,-1.8762,0.0,-1.882,-1.882,-1.9047,-1.9203,-1.9203,-1.9501,-1.9725,-1.9725,-1.9827,-1.982,-1.982,-1.9976,-2.0051,-2.0051,-2.0207,-2.0275,-2.0275,-2.0383,-2.0388,-2.0422,-2.0422,-2.0442,-2.0476,-2.0442,-2.0442,-2.0476,-1.044,-1.1508,-1.2639,-1.3664,-1.4161,-1.4295,-1.3783,-1.5597,-1.7305,-1.8216,-2.0121,-2.1719,-2.2587,-2.3663,-2.443,-2.4814,-2.4748,-2.4544,-2.4181,-2.3515,-2.2716,-2.1681,-2.0785,-1.9519,-1.7712,-1.6253,0.0,-1.167,-0.9807,-0.7885,-0.5918,-0.5172,-0.4442,-0.3817,-0.4146,-0.4746,-0.5634,-0.8259,-1.1016,-1.3732,-1.5794,-1.7084,0.0,-1.8744,-1.9361,-1.9824,-1.9618,-1.9373,-1.9233,-2.0335,-2.0626,-2.0633,-2.0958,-2.093,-2.0834,-2.0834,-2.0782,-2.0589,-1.9843,-1.9049,-1.8021,-1.6068,-1.4781,-1.3306,-1.0966,-1.0737,-1.0693,0.0,0.0,0.0,0.0,0.0,0.0,-0.8072,0.0,0.0,0.0,-0.749,-0.8276,-0.9854,-1.0883,-1.2408,-1.4912,-1.6083,-1.7188,-1.8265,-1.8409,-1.8498,-1.8654,-1.8654,-1.8728,-1.8909,-1.9081,-1.9237,-1.9305,-1.9535,-1.9759,-1.9814,-1.9841,-1.9908,-1.9976,-2.0139,-2.0207,-2.0207,-2.03,-2.0417,-2.0374,-2.0442,-2.0476,-2.0476,-2.0476,-2.0476,-2.0476,-2.0476,-2.0476,-2.0476,-1.2716,-1.3637,-1.481,-1.6527,-1.7837,-1.8215,-1.7013,-1.8716,-2.0298,-2.0828,-2.2547,-2.3893,-2.4439,-2.5384,-2.5959,-2.5959,-2.5918,-2.5742,-2.5335,-2.4319,-2.3782,-2.3645,-2.2446,-2.1363,-2.0279,-1.8441,-1.6492,-1.4484,-1.1442,-0.9024,-0.7197,-0.5736,-0.4664,-0.3943,-0.4511,-0.5488,-0.6849,-1.0779,-1.3671,-1.5845,-1.7666,-1.9169,-2.0464,-2.0571,-2.0792,-2.1033,-2.163,-2.1399,-2.0873,-2.1579,-2.1713,-2.1672,-2.2428,-2.2378,-2.2167,-2.2147,-2.2038,-2.1814,-2.1196,-2.0517,-1.9626,-1.8263,-1.6873,-1.5364,-1.382,-1.2874,-1.2295,-1.2078,-1.1876,0.0,0.0,0.0,0.0,0.0,0.0,0.0,0.0,-0.7587,-0.8355,-1.0401,-1.1193,0.0,-1.4588,-1.5577,-1.6619,-1.7994,-1.8199,-1.8355,-1.8474,0.0,-1.8674,-1.8972,-1.9128,-1.9271,-1.9374,0.0,-1.9752,-1.9875,-1.997,-1.9997,-2.0139,-2.0295,-2.03,-2.03,-2.0422,-2.0476,-2.0476,-2.0476,-2.0476,-2.0476,-2.0476,-2.0476,-2.0476,-2.0476,-2.0476,-2.0476,-1.474,-1.6035,-1.7219,-1.7974,-1.9955,-2.1512,-2.1743,-2.1602,-2.1885,-2.2895,-2.3835,-2.4642,-2.5563,-2.6014,-2.6271,-2.6271,-2.6047,-2.5864,-2.5796,-2.5232,-2.4851,-2.471,-2.4298,-2.3453,-2.2303,-2.0335,-1.806,-1.5516,-1.27,-0.9953,-0.7253,-0.6241,-0.5341,-0.4635,-0.476,-0.6657,-0.9931,-1.3243,-1.5629,-1.7429,-1.9845,-2.0986,-2.1323,-2.2196,-2.2521,-2.2626,-2.2824,-2.2348,-2.1656,-2.2362,-2.2546,-2.2583,-2.2588,-2.259,-2.2445,-2.2337,-2.222,-2.218,-2.2056,-2.1491,-2.0727,-1.9911,-1.8983,-1.7721,-1.5654,-1.5416,-1.5258,-1.3889,-1.3884,-1.4105,-1.3819,0.0,0.0,0.0,0.0,0.0,0.0,0.0,-1.0492,-1.1218,-1.2164,-1.3264,-1.457,-1.544,-1.6475,-1.7839,-1.8036,-1.8247,-1.8511,0.0,-1.8674,0.0,-1.9128,0.0,0.0,0.0,-1.9854,-1.9875,-2.0139,-2.0261,-2.0295,-2.0374,-2.0442,-2.0442,-2.0462,-2.0476,-2.0476,-2.0476,-2.0476,-2.0476,-2.0476,-2.0476,-2.0476,-2.0476,-2.0476,-2.0476,-1.7933,-1.8728,-1.9607,-2.0419,-2.1738,-2.2935,-2.3887,-2.3942,-2.3984,-2.4503,-2.5032,-2.5577,-2.6129,-2.6346,-2.6468,-2.6468,-2.6346,-2.6183,-2.6027,-2.5742,-2.5511,-2.5376,-2.5003,-2.4477,-2.3724,-2.1662,-1.9476,-1.7151,-1.4069,-1.1102,-0.838,-0.7071,-0.6069,-0.5402,-0.6628,-0.8814,-1.1873,-1.463,0.0,-1.8565,-2.055,-2.1738,-2.2304,-2.2812,-2.3097,-2.3239,-2.3219,-2.2963,-2.2616,-2.29,-2.2961,-2.2886,-2.2818,-2.2676,-2.2603,-2.2466,-2.2391,-2.2268,-2.2268,-2.2054,-2.1576,-2.0878,-2.0407,-1.9599,-1.7804,-1.7569,-1.7513,-1.6586,-1.6507,-1.633,-1.5543,-1.3687,0.0,0.0,0.0,0.0,0.0,0.0,-1.2179,-1.287,-1.3523,-1.4392,-1.5449,-1.5991,-1.6657,-1.7683,-1.7826,-1.8023,-1.8409,0.0,-1.864,0.0,0.0,0.0,0.0,0.0,0.0,-1.9997,-2.0227,-2.0363,-2.0438,-2.0442,-2.0476,-2.0476,-2.0476,-2.0476,-2.0476,-2.0476,-2.0476,-2.0476,-2.0476,-2.0476,-2.0476,-2.0476,-2.0476,-2.0476,-2.0654,-2.1016,-2.1521,-2.261,-2.3137,-2.3825,-2.4993,-2.5552,-2.5783,-2.562,-2.5973,-2.6271,-2.64,-2.6536,-2.6624,-2.6624,-2.659,-2.6468,-2.6237,-2.6061,-2.5884,-2.5742,-2.5376,-2.5003,-2.467,-2.2757,-2.0815,0.0,-1.546,-1.2501,-1.0002,-0.8261,-0.7279,-0.6941,-0.9035,-1.1314,0.0,0.0,-1.7945,-1.9707,-2.1164,-2.2234,-2.3008,-2.3083,-2.3187,-2.3363,-2.3347,-2.3381,-2.3356,-2.3307,-2.3171,-2.3049,-2.3029,-2.2818,-2.2658,-2.2644,-2.2445,-2.2268,-2.2268,-2.2268,-2.2129,-2.1576,-2.1432,-2.1079,-1.9758,-1.9398,-1.9291,-1.8927,-1.8591,-1.8063,-1.6858,-1.4984,0.0,0.0,0.0,0.0,0.0,0.0,-1.3979,-1.4703,-1.5064,-1.5602,-1.6355,-1.6653,-1.6993,-1.7575,-1.7629,-1.7825,-1.8301,0.0,0.0,0.0,0.0,-1.9359,-1.9759,0.0,-1.9997,0.0,-2.0295,-2.0374,-2.0476,-2.0476,-2.0476,-2.0476,-2.0476,-2.0476,-2.0476,-2.0476,-2.0476,-2.0476,-2.0476,-2.0476,-2.0476,-2.0476,-2.0476,-2.0476,-2.1296,-2.2012,-2.2758,-2.3272,-2.4126,-2.5013,-2.5552,-2.6006,-2.6237,-2.6095,-2.6346,-2.6536,-2.6556,-2.6698,-2.6787,-2.6787,-2.6658,-2.6556,-2.6536,-2.6271,-2.604,-2.5884,-2.5728,-2.5423,-2.4982,-2.3686,-2.2048,0.0,0.0,-1.424,-1.1736,-0.9926,-0.9367,-0.9925,-1.1483,0.0,0.0,-1.7885,-1.9689,-2.1181,-2.2362,-2.2917,-2.3042,-2.3235,-2.3356,-2.3397,-2.3592,-2.3558,-2.3377,-2.3363,-2.3255,-2.3185,-2.3049,-2.2886,-2.273,-2.2658,-2.2445,-2.2268,-2.2268,-2.2268,-2.2268,-2.2199,-2.2199,-2.1985,-2.1148,-2.1004,-2.0714,-1.9768,-1.9171,-1.8598,-1.7646,-1.6617,-1.5653,0.0,0.0,0.0,0.0,0.0,-1.6479,-1.631,-1.6602,-1.6724,-1.6617,-1.7035,-1.7379,-1.7575,-1.7772,-1.7989,-1.8301,0.0,0.0,-1.9183,0.0,-1.9413,-1.9854,-1.9997,0.0,-2.0246,-2.0388,-2.0462,-2.0476,-2.0476,-2.0476,-2.0476,-2.0476,-2.0476,-2.0476,-2.0476,-2.0476,-2.0476,-2.0476,-2.0476,-2.0476,-2.0476,-2.0476,-2.0476,-2.3209,-2.3653,-2.4112,-2.4558,-2.5046,-2.5566,-2.6027,-2.64,-2.661,-2.6536,-2.6644,-2.6712,-2.6712,-2.6766,-2.68,-2.68,-2.6746,-2.6678,-2.6576,-2.6468,-2.6291,-2.604,-2.5905,-2.5654,-2.5287,-2.4071,-2.2693,0.0,0.0,0.0,-1.4205,-1.2301,-1.1997,-1.313,-1.4299,-1.5887,-1.7925,-1.9628,-2.0904,-2.1765,-2.265,-2.3063,-2.3151,-2.3273,-2.3436,-2.3592,-2.3558,-2.3558,-2.3571,-2.3411,-2.3347,-2.3205,-2.3151,-2.3029,-2.2907,-2.2852,-2.273,-2.2608,-2.2608,-2.2608,-2.2608,-2.2608,-2.2534,-2.2389,-2.2125,-2.1982,-2.1704,-2.1128,-2.0279,-1.9593,-1.9213,-1.8333,-1.7562,0.0,0.0,0.0,0.0,0.0,0.0,-1.7219,-1.7376,-1.7448,-1.7194,-1.7392,-1.7527,0.0,-1.7649,-1.7914,-1.8301,0.0,0.0,-1.9183,0.0,-1.9413,-1.9875,-2.0031,-2.0173,-2.0329,-2.0471,-2.0476,-2.0476,-2.0476,-2.0476,-2.0476,-2.0476,-2.0476,-2.0476,-2.0476,-2.0476,-2.0476,-2.0476,-2.0476,-2.0476,-2.0476,-2.0476,-2.0412,-2.4662,-2.4914,-2.5165,-2.5532,-2.5762,-2.6006,-2.6359,-2.6678,-2.6875,-2.6875,-2.6875,-2.6854,-2.68,-2.68,-2.68,-2.68,-2.68,-2.6746,-2.6644,-2.659,-2.6468,-2.6203,-2.604,0.0,-2.5532,-2.4634,-2.3545,-2.2429,-1.9922,0.0,-1.689,-1.5115,-1.4919,0.0,-1.6823,-1.8093,-1.9836,-2.098,-2.179,-2.2296,-2.2842,-2.313,-2.3219,-2.3273,-2.3415,-2.3612,-2.3592,-2.3592,-2.3612,-2.3537,-2.3381,-2.3219,-2.3219,-2.3117,-2.3008,-2.3008,-2.2907,-2.2784,-2.2784,-2.2784,-2.2784,-2.2784,-2.2767,-2.2678,-2.2644,-2.2479,-2.2303,-2.195,-2.117,-2.0535,-2.0502,-1.9682,-1.8991,-1.8954,0.0,0.0,0.0,0.0,0.0,-1.7723,-1.7725,-1.7588,-1.7176,-1.7327,-1.7457,0.0,0.0,-1.7935,-1.8301,0.0,0.0,0.0,0.0,0.0,0.0,-2.0085,-2.0241,-2.0334,-2.0422,-2.0476,-2.0476,-2.0476,-2.056,-2.0614,-2.0614,-2.0627,-2.0618,-2.0618,-2.0618,-2.0661,-2.0627,-2.0614,-2.0614,-2.0496,-2.0382,-2.0174,-2.5199,-2.5464,-2.5728,-2.5864,-2.6149,-2.6482,-2.6556,-2.6834,-2.7031,-2.7031,-2.7031,-2.6976,-2.682,-2.68,-2.68,-2.68,-2.68,-2.68,-2.68,-2.6658,-2.6502,0.0,0.0,-2.5993,-2.5694,-2.5532,-2.485,-2.3564,0.0,0.0,-1.9752,-1.8357,-1.8195,-1.8942,-1.9134,-2.0033,-2.1526,-2.1791,-2.2348,-2.3029,-2.3171,-2.3219,-2.3239,-2.3323,-2.3377,-2.3483,-2.3788,-2.37,-2.3397,-2.3626,-2.347,-2.3219,-2.3219,-2.3117,-2.3008,-2.3008,-2.2907,-2.2784,-2.2784,-2.2784,-2.2784,-2.2784,-2.2784,-2.2744,-2.2658,-2.2624,-2.2432,-2.1971,-2.1652,-2.1321,-2.1179,-2.0501,-1.9961,-1.9831,0.0,0.0,0.0,0.0,0.0,-1.7994,-1.7632,-1.7053,-1.6219,-1.6643,-1.7033,0.0,0.0,-1.8158,-1.8265,0.0,0.0,-1.9183,-1.9501,0.0,-2.0098,-2.0241,-2.0334,-2.0476,-2.0476,-2.0476,-2.0476,-2.0476,-2.0627,-2.077,-2.077,-2.0858,-2.1001,-2.1001,-2.1001,-2.098,-2.0824,-2.077,-2.0756,-2.0594,-2.0187,-1.9683,-2.564,-2.5762,-2.5939,-2.6291,-2.6434,-2.659,-2.6854,-2.7044,-2.7173,-2.7173,-2.7261,-2.7241,-2.6976,-2.6875,-2.68,0.0,-2.68,-2.68,0.0,-2.6746,-2.6664,-2.6522,-2.6359,-2.6203,-2.5993,-2.5742,-2.5412,-2.4863,0.0,0.0,0.0,-2.0126,-2.0269,-2.0952,-2.1002,-2.1663,-2.2659,-2.2646,-2.2842,-2.3151,-2.3205,-2.3219,-2.3219,-2.3273,-2.3289,-2.3397,-2.3558,-2.3465,-2.3377,-2.3503,-2.3323,-2.3219,-2.3219,-2.3185,-2.3151,-2.3151,-2.3117,-2.3083,-2.3083,-2.3083,-2.3083,-2.3083,-2.3008,-2.292,-2.2873,-2.2622,-2.2303,-2.195,-2.1726,-2.155,-2.1387,-2.1048,-2.0769,-2.0629,0.0,0.0,0.0,0.0,0.0,0.0,-1.8358,-1.8041,0.0,-1.7385,0.0,0.0,0.0,0.0,0.0,0.0,0.0,0.0,-1.9501,0.0,-2.0098,-2.0261,-2.0397,-2.0476,-2.0476,-2.0594,-2.0702,-2.0804,-2.0878,-2.0933,-2.0933,-2.0946,-2.1001,-2.1001,-2.1001,-2.1001,-2.0946,-2.0933,-2.0933,-2.0878,-2.0426,-1.9747,-2.5939,-2.6081,-2.6237,-2.6522,-2.6624,-2.6746,-2.6997,-2.7069,-2.7261,-2.7316,-2.7417,-2.7404,-2.7227,-2.7065,0.0,-2.682,-2.68,-2.68,-2.68,-2.68,-2.6732,-2.6576,-2.6434,-2.6291,-2.6129,0.0,0.0,-2.5552,-2.4472,-2.3401,-2.2322,-2.2051,-2.2172,-2.2677,-2.2625,-2.2847,-2.3235,-2.3219,-2.3185,-2.3219,-2.3219,-2.3219,-2.3219,-2.3219,-2.3273,-2.3309,-2.3503,-2.3431,-2.3397,-2.3571,-2.3483,-2.3307,-2.3381,-2.3361,-2.3293,-2.3239,-2.3219,-2.3219,-2.3219,-2.3219,-2.3219,-2.3219,-2.3151,-2.3083,-2.3029,-2.271,-2.2344,-2.2025,-2.1848,-2.1686,-2.1475,-2.1301,-2.1231,-2.1034,0.0,-2.0573,-2.0153,0.0,0.0,0.0,0.0,0.0,0.0,-1.7605,0.0,0.0,0.0,0.0,0.0,0.0,0.0,-1.9359,-1.9664,0.0,-2.0187,-2.0329,-2.0388,-2.0476,-2.0594,-2.0702,-2.0858,-2.0967,-2.1034,-2.1089,-2.1089,-2.1109,-2.1157,-2.1157,-2.1157,-2.1157,-2.1109,-2.1089,-2.1068,-2.1021,-2.0383,-1.9509,-2.6129,-2.638,-2.6576,0.0,-2.6712,0.0,-2.701,-2.7153,-2.7295,-2.7472,-2.7492,-2.7492,-2.7472,-2.735,-2.7132,-2.6854,0.0,0.0,0.0,-2.68,-2.6732,-2.659,-2.6447,-2.6291,-2.6149,-2.5993,-2.583,-2.5694,-2.5111,-2.467,-2.431,-2.4087,-2.3931,-2.391,-2.3768,-2.3626,-2.3411,-2.3397,-2.3309,-2.3239,-2.3239,-2.3239,-2.3219,-2.3219,-2.3219,-2.3273,-2.3558,-2.3571,-2.3503,-2.3788,-2.37,-2.3483,-2.3626,-2.3571,-2.3436,-2.3293,-2.3259,-2.3259,-2.3259,-2.3259,-2.3259,-2.3259,-2.3239,-2.3205,-2.3063,-2.2784,-2.2556,-2.2181,-2.1991,-2.1794,-2.1509,-2.1375,-2.1267,-2.1055,-2.098,-2.077,-2.0187,0.0,0.0,0.0,0.0,0.0,0.0,-1.7377,-1.7775,0.0,0.0,0.0,0.0,0.0,-1.878,-1.9657,-1.9963,-2.0187,-2.0329,-2.0408,-2.0539,-2.0496,-2.0716,-2.0878,-2.1021,-2.1021,-2.1109,-2.1231,-2.1231,-2.1253,-2.1375,-2.1375,-2.1375,-2.1421,-2.1279,-2.1231,-2.1211,-2.1023,-2.0201,-1.9133,0.0,0.0,-2.661,-2.6732,-2.6787,-2.6888,-2.7153,-2.7136,-2.735,-2.7614,-2.7648,-2.7594,-2.7492,-2.7438,-2.735,-2.7153,-2.7031,-2.6922,-2.68,-2.68,-2.6787,-2.6746,-2.6502,-2.6346,-2.6312,-2.604,-2.583,-2.5694,-2.5321,-2.5036,-2.486,-2.4548,-2.4351,-2.4229,-2.4087,-2.3924,-2.3788,-2.368,-2.3537,-2.3323,-2.3323,-2.3255,-2.3219,-2.3219,-2.3293,-2.3323,-2.3411,-2.3558,-2.3646,-2.3714,-2.368,-2.3626,-2.3666,-2.3666,-2.3626,-2.3578,-2.3578,-2.3578,-2.3578,-2.3578,-2.3578,-2.3578,-2.3483,-2.3289,-2.3205,-2.294,-2.2642,-2.2337,-2.2072,-2.1828,-2.1652,-2.1421,-2.1211,-2.1034,-2.0804,-2.0526,-2.0153,0.0,0.0,0.0,-1.8959,-1.8792,-1.8634,-1.8333,-1.8142,0.0,0.0,0.0,0.0,-1.8799,-1.9021,-1.9664,-2.0064,-2.0295,-2.0329,-2.0408,-2.0594,-2.0716,-2.098,-2.1123,-2.1157,-2.1279,-2.1353,-2.1321,-2.1321,-2.1341,-2.1375,-2.1375,-2.1375,-2.1375,-2.1341,-2.1321,-2.1321,-2.0759,-1.9978,-1.9189,-2.6536,-2.6624,-2.6698,-2.6787,-2.68,-2.6909,-2.7187,-2.7241,-2.735,-2.7668,-2.7702,-2.7668,-2.758,-2.758,-2.7492,-2.7261,-2.7119,-2.6997,-2.6909,-2.6834,-2.68,-2.68,-2.6522,-2.6359,-2.6359,-2.6061,-2.583,-2.5694,-2.5464,-2.5267,-2.5111,-2.4813,-2.4629,-2.4541,-2.4317,-2.4141,-2.3978,-2.3843,-2.37,-2.3558,-2.3558,-2.3503,-2.3436,-2.3436,-2.3483,-2.3558,-2.3626,-2.37,-2.3788,-2.3856,-2.3843,-2.3788,-2.3856,-2.3843,-2.3788,-2.3856,-2.3788,-2.368,-2.368,-2.368,-2.368,-2.368,-2.3612,-2.3524,-2.3361,-2.3151,-2.2886,-2.252,-2.2201,-2.1916,-2.1706,-2.1421,-2.1157,-2.1021,-2.0804,-2.0526,-2.0153,-2.0031,0.0,-1.9569,-1.9522,-1.9501,-1.9501,-1.9206,-1.9058,-1.9125,0.0,0.0,-1.9301,-1.944,-1.9679,-1.9976,-2.0207,-2.03,-2.0417,-2.0573,-2.0756,-2.098,-2.1143,-2.1245,-2.1319,-2.1341,-2.1236,-2.0911,-2.0911,-2.0911,-2.0911,-2.0911,-2.1116,-2.1375,-2.1375,-2.1375,-2.1302,-2.0658,-1.9908,-1.9171,-2.661,-2.6712,-2.68,-2.68,-2.68,-2.6888,-2.7173,-2.7221,-2.735,-2.7628,-2.7682,-2.7702,-2.7702,-2.7682,-2.756,-2.7295,-2.7119,-2.701,-2.6997,-2.6875,-2.68,-2.68,-2.6522,-2.6359,-2.6359,-2.6061,-2.585,-2.5728,-2.5566,-2.5423,-2.5267,-2.4982,-2.4826,-2.4772,-2.4528,-2.4317,-2.4141,-2.4012,-2.3856,-2.3714,-2.3714,-2.37,-2.368,-2.368,-2.37,-2.3734,-2.3856,-2.391,-2.3944,-2.4087,-2.4033,-2.3944,-2.4087,-2.4033,-2.3965,-2.41,-2.3978,-2.3768,-2.3754,-2.3754,-2.3754,-2.3754,-2.3734,-2.368,-2.3524,-2.3347,-2.3097,-2.2676,-2.2357,-2.2059,-2.176,-2.1462,-2.1197,-2.1034,-2.0858,-2.0594,-2.0187,0.0,-2.0153,-1.9827,-1.9854,-1.9942,-1.9942,-1.9963,-2.001,-2.0119,-2.0173,-2.0187,0.0,-2.0329,-2.0438,-2.0438,-2.0404,-2.0471,-2.055,-2.0641,-2.083,-2.1073,-2.0975,-2.0976,-2.1096,-2.1096,-2.0778,-2.0247,-2.0247,-2.0247,-2.0247,-2.0247,-2.0572,-2.1096,-2.1096,-2.1096,-2.0984,-2.0313,-1.9582,-1.8778,-2.6746,-2.6787,-2.68,-2.68,-2.68,-2.6854,-2.7031,-2.7173,-2.7309,-2.7492,-2.7614,-2.7702,-2.7702,-2.758,-2.7492,-2.7438,-2.7187,-2.6976,-2.6834,-2.682,-2.68,-2.68,-2.6522,-2.6359,-2.6359,-2.6061,-2.5884,-2.5864,-2.5728,-2.5586,-2.543,-2.5247,-2.5036,-2.4792,-2.4738,-2.4582,-2.4235,-2.4222,-2.4121,-2.3856,-2.3856,-2.3788,-2.368,-2.368,-2.3754,-2.3856,-2.389,-2.3978,-2.4087,-2.4121,-2.41,-2.4087,-2.4121,-2.41,-2.4121,-2.4263,-2.4202,-2.4209,-2.4087,-2.4053,-2.4053,-2.4053,-2.3965,-2.3822,-2.368,-2.3436,-2.313,-2.2818,-2.2513,-2.2215,-2.1903,-2.1597,-2.1319,-2.1055,-2.077,-2.0505,-2.0315,0.0,-2.0119,-2.0051,-2.0173,-2.0261,-2.0261,-2.0363,-2.0397,-2.0295,-2.0526,-2.0614,-2.0422,-2.0736,-2.0892,-2.0892,-2.077,-2.077,-2.0933,-2.0482,-2.0318,-2.0364,-1.9826,-1.9617,-1.9648,-1.9648,-1.9582,-1.9443,-1.9443,-1.9443,-1.9443,-1.9443,-1.9509,-1.9648,-1.9648,-1.9648,-1.9509,-1.8778,-1.8112,-1.7379,-2.6787,-2.68,-2.68,-2.68,-2.68,-2.6854,-2.701,-2.7085,-2.7187,-2.7329,-2.7492,-2.7539,-2.7472,-2.7472,-2.7404,-2.7241,-2.7099,-2.6963,-2.682,-2.68,-2.68,-2.68,-2.6522,-2.6291,-2.6115,-2.5973,-2.5905,-2.5905,-2.5762,-2.562,-2.5464,-2.5301,-2.5125,-2.4914,-2.4826,-2.467,-2.4453,-2.4385,-2.4229,-2.4012,-2.4012,-2.3978,-2.391,-2.391,-2.3965,-2.4012,-2.4012,-2.4066,-2.4121,-2.4121,-2.4175,-2.4243,-2.4243,-2.4297,-2.4372,-2.444,-2.446,-2.4453,-2.4385,-2.4297,-2.4243,-2.4243,-2.4121,-2.3978,-2.3822,-2.3626,-2.3381,-2.3083,-2.271,-2.2391,-2.2167,-2.1693,-2.1387,-2.1265,-2.0912,0.0,0.0,-2.0451,-2.0438,-2.0349,-2.0539,-2.0682,-2.0682,-2.075,-2.0756,-2.0702,-2.0824,-2.0858,-2.079,-2.0933,-2.1034,-2.1109,-2.0967,-2.0967,-2.1109,-2.0522,-2.0014,-1.9688,-1.908,-1.8611,-1.8215,-1.8272,-1.8071,-1.7601,-1.7272,-1.73,-1.7579,-1.7174,-1.7446,-1.8179,-1.8179,-1.8179,-1.8112,-1.7312,-1.6851,-1.6374,-2.68,-2.68,-2.68,-2.68,-2.68,-2.6834,-2.6963,-2.701,-2.7065,-2.7173,-2.7329,-2.7363,-2.7261,-2.7316,-2.7275,-2.7044,-2.6997,-2.6922,-2.68,-2.68,-2.68,-2.68,-2.6522,-2.6224,-2.5905,-2.5905,-2.5905,-2.5905,-2.5796,-2.564,-2.5464,-2.5335,-2.5199,-2.5023,-2.4894,-2.4758,-2.4616,-2.4494,-2.4365,-2.4229,-2.4229,-2.4229,-2.4229,-2.4229,-2.4229,-2.4229,-2.4229,-2.4229,-2.4229,-2.4229,-2.4297,-2.4406,-2.4406,-2.4473,-2.4638,-2.4672,-2.4636,-2.465,-2.4658,-2.4473,-2.4385,-2.4276,-2.4188,-2.4121,-2.3931,-2.3802,-2.3626,-2.3293,-2.294,-2.2642,-2.2322,-2.1903,-2.1551,-2.1509,0.0,0.0,0.0,-2.077,-2.079,-2.0702,-2.0933,-2.1123,-2.1157,-2.1197,-2.1197,-2.1157,-2.1197,-2.1197,-2.1157,-2.1197,-2.1245,-2.1374,-2.1231,-2.1145,-2.1049,-2.0434,-1.9702,-1.8873,-1.8082,-1.7262,-1.6586,-1.647,-1.6048,-1.5432,-1.4949,-1.4984,-1.5388,-1.4774,-1.5249,-1.625,-1.625,-1.6235,-1.6142,-1.5607,-1.5268,-1.4838,-2.68,-2.68,-2.68,-2.68,-2.68,-2.68,-2.682,-2.6943,-2.7031,-2.7044,-2.7173,-2.7261,-2.7241,-2.7132,-2.7051,-2.7031,-2.6909,-2.682,-2.68,-2.68,-2.68,-2.68,-2.6522,-2.6224,-2.5905,-2.5905,-2.5905,-2.5905,-2.5884,-2.5742,-2.5464,-2.5443,-2.5287,-2.5023,-2.5003,-2.4914,-2.4772,-2.4758,-2.467,-2.4528,-2.4528,-2.4528,-2.4528,-2.4528,-2.4528,-2.4528,-2.4528,-2.4528,-2.4528,-2.4528,-2.4548,-2.4548,-2.4548,-2.4562,-2.4596,-2.4738,-2.488,-2.4935,-2.4636,-2.4562,-2.4507,-2.4385,-2.4276,-2.4188,-2.3965,-2.389,-2.3754,-2.3307,-2.3205,-2.3008,-2.2376,-2.2234,-2.2078,-2.1726,0.0,0.0,-2.1177,-2.1055,-2.1034,-2.1143,-2.1299,-2.1455,-2.1604,-2.174,-2.176,-2.1638,-2.174,-2.176,-2.1638,-2.174,-2.1828,-2.1828,-2.1692,-2.1357,-2.0621,-2.0008,-1.906,-1.7647,-1.6224,-1.5129,-1.4393,-1.371,-1.3365,-1.3297,-1.3297,-1.3288,-1.3288,-1.3288,-1.3288,-1.3425,-1.3425,-1.3371,-1.3296,-1.3228,-1.2766,-1.2095,-2.68,-2.68,-2.68,-2.68,-2.68,-2.68,-2.68,-2.6854,-2.6888,-2.6888,-2.701,-2.7065,-2.6976,-2.701,-2.6997,-2.6888,-2.6834,-2.68,-2.68,-2.68,-2.6712,-2.6536,-2.6413,-2.6224,-2.5905,-2.5905,-2.5905,-2.5905,-2.5905,-2.5742,-2.5464,-2.5464,-2.5301,-2.5023,-2.5023,-2.4935,-2.4792,-2.4792,-2.4704,-2.4562,-2.4562,-2.4562,-2.4562,-2.4562,-2.4562,-2.4562,-2.4562,-2.4562,-2.4562,-2.4562,-2.4636,-2.4704,-2.4704,-2.4772,-2.486,-2.4914,-2.4969,-2.5003,-2.488,-2.4772,-2.4684,-2.4629,-2.4418,-2.4235,-2.4134,-2.4033,-2.3843,-2.368,-2.3415,-2.3151,-2.292,-2.2656,-2.2391,-2.2127,0.0,-2.1672,-2.1509,-2.1441,-2.1441,-2.1496,-2.1618,-2.174,-2.1794,-2.1848,-2.1862,-2.1815,-2.1848,-2.1862,-2.1815,-2.1848,-2.1882,-2.1882,-2.1916,-2.155,-2.0715,-2.0034,-1.8762,-1.6789,-1.5419,-1.4148,-1.2918,-1.179,-1.1234,-1.112,-1.0218,-1.0055,-1.0367,-0.9884,-0.9952,-1.0429,-1.0843,-1.1031,-1.1003,-1.1003,-1.085,-1.0412,-2.68,-2.68,-2.68,-2.68,-2.68,-2.68,-2.68,-2.68,-2.68,-2.68,-2.6888,-2.6922,-2.682,-2.6888,-2.6922,-2.682,-2.68,-2.68,-2.68,-2.6746,-2.6624,-2.638,-2.6312,-2.6169,-2.5905,-2.5905,-2.5905,-2.5905,-2.5905,-2.5742,-2.5464,-2.5464,-2.5301,-2.5023,-2.5023,-2.4969,-2.486,-2.486,-2.4806,-2.4704,-2.4704,-2.4704,-2.4704,-2.4704,-2.4704,-2.4704,-2.4704,-2.4704,-2.4704,-2.4704,-2.4772,-2.486,-2.486,-2.4935,-2.5023,-2.5023,-2.5023,-2.5023,-2.5023,-2.4948,-2.4847,-2.4806,-2.4629,-2.4453,-2.429,-2.4189,-2.4012,-2.391,-2.3646,-2.3395,-2.3307,-2.3008,-2.271,-2.2567,-2.2289,-2.2059,-2.2025,-2.1916,-2.1903,-2.2004,-2.2038,-2.2113,-2.2167,-2.2167,-2.2167,-2.2167,-2.2167,-2.2167,-2.2167,-2.2167,-2.2167,-2.2167,-2.2269,-2.1931,-2.1069,-2.0227,-1.8742,-1.6482,-1.4903,-1.3209,-1.148,-1.0065,-0.9225,-0.8908,-0.7863,-0.7705,-0.8019,-0.7536,-0.7605,-0.8152,-0.8638,-0.8831,-0.8818,-0.8818,-0.8804,-0.8653,-2.68,-2.68,-2.68,-2.68,-2.68,-2.68,-2.68,-2.68,-2.68,-2.68,-2.68,-2.68,-2.68,-2.68,-2.68,-2.68,-2.68,-2.68,-2.68,-2.6658,-2.6502,-2.6441,-2.6217,-2.6061,-2.5905,-2.5905,-2.5905,-2.5905,-2.5905,-2.5742,-2.5464,-2.5464,-2.5301,-2.5023,-2.5023,-2.5023,-2.5023,-2.5023,-2.5023,-2.5023,-2.5023,-2.5023,-2.5023,-2.5023,-2.5023,-2.5023,-2.5023,-2.5023,-2.5023,-2.5023,-2.5023,-2.5023,-2.5023,-2.5023,-2.5023,-2.5023,-2.5023,-2.5023,-2.5023,-2.5023,-2.4982,-2.4826,-2.4792,-2.4718,-2.4344,-2.4276,-2.4188,-2.3965,-2.389,-2.3802,-2.3503,-2.3255,-2.3185,-2.3042,-2.2764,-2.2624,-2.2624,-2.2432,-2.2391,-2.2603,-2.2624,-2.2678,-2.2764,-2.2784,-2.2784,-2.2784,-2.2784,-2.2784,-2.2784,-2.2784,-2.2784,-2.2784,-2.2784,-2.2439,-2.1727,-2.0669,-1.9007,-1.6785,-1.4479,-1.2255,-1.0089,-0.8556,-0.7433,-0.673,-0.673,-0.673,-0.673,-0.666,-0.666,-0.666,-0.666,-0.6634,-0.6591,-0.6591,-0.6565,-0.6593,-2.68,-2.68,-2.68,-2.68,-2.68,-2.68,-2.68,-2.68,-2.68,-2.68,-2.68,-2.68,-2.68,-2.68,-2.68,-2.68,-2.68,-2.68,-2.68,-2.6576,-2.6413,-2.6359,-2.6217,-2.6061,-2.5905,-2.5905,-2.5905,-2.5905,-2.5796,-2.5654,-2.5464,-2.5355,-2.5199,-2.5023,-2.5023,-2.5023,-2.5023,-2.5023,-2.5023,-2.5023,-2.5023,-2.5023,-2.5023,-2.5023,-2.5023,-2.5036,-2.5125,-2.5159,-2.5179,-2.5287,-2.5342,-2.5342,-2.5342,-2.5342,-2.5342,-2.5342,-2.5247,-2.5159,-2.5159,-2.5091,-2.5003,-2.4969,-2.488,-2.4772,-2.4684,-2.4494,-2.4256,-2.4229,-2.4053,-2.3856,-2.3768,-2.3646,-2.349,-2.3347,-2.3151,-2.2995,-2.2886,-2.2744,-2.2656,-2.271,-2.271,-2.273,-2.2784,-2.2784,-2.2784,-2.2784,-2.2784,-2.2784,-2.2784,-2.2784,-2.2784,-2.2784,-2.2784,-2.2707,-2.2439,-2.1067,-1.9261,-1.6954,-1.4681,-1.2702,-1.0936,-0.8843,-0.776,-0.7478,-0.6951,-0.673,-0.6658,-0.6172,-0.5961,-0.5961,-0.5961,-0.5882,-0.5873,-0.5873,-0.5864,-0.5855,-2.68,-2.68,-2.68,-2.68,-2.68,-2.68,-2.68,-2.68,-2.68,-2.68,-2.68,-2.68,-2.68,-2.68,-2.68,-2.68,-2.68,-2.68,-2.68,-2.6576,-2.6495,-2.6359,-2.6217,-2.6061,-2.5905,-2.5905,-2.5905,-2.5905,-2.5817,-2.5694,-2.5552,-2.5389,-2.5247,-2.5111,-2.5036,-2.5057,-2.5111,-2.5111,-2.5111,-2.5111,-2.5111,-2.507,-2.5023,-2.5023,-2.5057,-2.5111,-2.5199,-2.5267,-2.5335,-2.543,-2.5464,-2.5464,-2.5464,-2.5464,-2.5464,-2.5464,-2.5389,-2.5301,-2.5247,-2.5159,-2.5091,-2.5036,-2.4948,-2.486,-2.4806,-2.465,-2.4507,-2.444,-2.4243,-2.4066,-2.4066,-2.391,-2.3734,-2.3646,-2.3503,-2.3381,-2.3293,-2.3151,-2.3049,-2.3049,-2.3049,-2.3029,-2.2961,-2.3008,-2.3029,-2.2961,-2.2961,-2.2961,-2.2961,-2.2961,-2.2961,-2.2961,-2.2961,-2.2961,-2.2961,-2.1746,-2.0055,-1.7967,-1.5697,-1.349,-1.1354,-0.9325,-0.8242,-0.7958,-0.7407,-0.7179,-0.7179,-0.6664,-0.6101,-0.5611,-0.5611,-0.5401,-0.5189,-0.5189,-0.5189,-0.5119,-2.68,-2.68,-2.68,-2.68,-2.68,-2.68,-2.68,-2.68,-2.68,-2.68,-2.68,-2.68,-2.68,-2.68,-2.68,-2.68,-2.68,-2.68,-2.68,-2.6658,-2.6522,-2.638,-2.6217,-2.6061,-2.5918,-2.5905,-2.5905,-2.5905,-2.5884,-2.5817,-2.5694,-2.5532,-2.5389,-2.5247,-2.5125,-2.5125,-2.5247,-2.5247,-2.5247,-2.5247,-2.5247,-2.5179,-2.5057,-2.5057,-2.5145,-2.5247,-2.5267,-2.5355,-2.5556,-2.5498,-2.5577,-2.5577,-2.5577,-2.5577,-2.5577,-2.5577,-2.5498,-2.5443,-2.5301,-2.5247,-2.5199,-2.507,-2.5036,-2.4982,-2.4847,-2.4806,-2.4758,-2.4616,-2.4473,-2.429,-2.4276,-2.4121,-2.3931,-2.391,-2.3788,-2.37,-2.37,-2.3571,-2.3397,-2.3377,-2.3377,-2.3323,-2.3239,-2.3347,-2.3309,-2.3239,-2.3219,-2.3219,-2.3219,-2.3219,-2.3219,-2.3219,-2.3219,-2.3219,-2.3219,-2.25,-2.1296,-1.9411,-1.7142,-1.4507,-1.166,-1.0087,-0.9081,-0.8508,-0.8383,-0.8358,-0.8424,-0.816,-0.7157,-0.5826,-0.5681,-0.5119,-0.4488,-0.4488,-0.4488,-0.4488,-2.68,-2.68,-2.68,-2.68,-2.68,-2.68,-2.68,-2.68,-2.68,-2.68,-2.68,-2.68,-2.68,-2.68,-2.68,-2.68,-2.68,-2.68,-2.68,-2.6658,-2.6556,-2.6522,-2.6271,-2.6115,-2.6081,-2.5952,-2.5905,-2.5905,-2.5796,-2.5728,-2.5694,-2.5532,-2.5443,-2.541,-2.5376,-2.5389,-2.541,-2.541,-2.541,-2.541,-2.541,-2.5389,-2.5376,-2.5376,-2.5389,-2.543,-2.5552,-2.562,-2.5654,-2.5762,-2.5817,-2.5817,-2.5817,-2.5817,-2.5817,-2.5817,-2.5728,-2.564,-2.5599,-2.541,-2.5155,-2.5199,-2.5111,-2.5023,-2.4982,-2.488,-2.4772,-2.4758,-2.4616,-2.4473,-2.4365,-2.4222,-2.4209,-2.4087,-2.3944,-2.3843,-2.3843,-2.3714,-2.3592,-2.3397,-2.3377,-2.3323,-2.3239,-2.3259,-2.3259,-2.3219,-2.3219,-2.3219,-2.3219,-2.3219,-2.3219,-2.3219,-2.3219,-2.3219,-2.3219,-2.3075,-2.1893,-1.9683,-1.7376,-1.5291,-1.3414,-1.1829,-1.1295,-1.1729,-1.165,-1.1615,-1.1534,-1.0264,-0.8892,-0.7341,-0.6111,-0.5119,-0.4488,-0.4488,-0.4488,-0.4488,-2.68,-2.68,-2.68,-2.68,-2.68,-2.68,-2.68,-2.68,-2.68,-2.68,-2.68,-2.68,-2.68,-2.68,-2.68,-2.68,-2.68,-2.68,-2.68,-2.6732,-2.6624,-2.6488,-2.6325,-2.6169,-2.6027,-2.5939,-2.5905,-2.5905,-2.583,-2.5796,-2.5796,-2.564,-2.5566,-2.5566,-2.5498,-2.5577,-2.5566,-2.5566,-2.5566,-2.5566,-2.5566,-2.5532,-2.5464,-2.5464,-2.5518,-2.5586,-2.5654,-2.5776,-2.5918,-2.5993,-2.6061,-2.6115,-2.604,-2.6006,-2.5993,-2.5918,-2.585,-2.5776,-2.5708,-2.5566,-2.541,-2.5267,-2.5179,-2.5111,-2.5036,-2.4948,-2.4894,-2.4894,-2.4772,-2.465,-2.4582,-2.444,-2.4256,-2.4243,-2.41,-2.3999,-2.3999,-2.3877,-2.3734,-2.3571,-2.3558,-2.3503,-2.3347,-2.3259,-2.3219,-2.3219,-2.3219,-2.3219,-2.3219,-2.3219,-2.3219,-2.3219,-2.3219,-2.3219,-2.3219,-2.3219,-2.2428,-2.0851,-1.8887,-1.7163,-1.5571,-1.4,-1.3466,-1.3823,-1.3737,-1.355,-1.3117,-1.1892,-1.0073,-0.7856,-0.663,-0.5482,-0.4488,-0.4488,-0.4488,-0.4488,-2.68,-2.68,-2.68,-2.68,-2.68,-2.68,-2.68,-2.68,-2.68,-2.68,-2.68,-2.68,-2.68,-2.68,-2.68,-2.68,-2.68,-2.68,-2.68,-2.68,-2.6678,-2.6413,-2.638,-2.6237,-2.5952,-2.5918,-2.5905,-2.5905,-2.5905,-2.5905,-2.5905,-2.5783,-2.5728,-2.5728,-2.5586,-2.5606,-2.5728,-2.5728,-2.5728,-2.5728,-2.5728,-2.5654,-2.5532,-2.5532,-2.562,-2.5728,-2.5728,-2.5905,-2.6129,-2.6129,-2.6237,-2.6325,-2.6183,-2.6129,-2.6095,-2.5952,-2.5905,-2.5884,-2.5762,-2.5708,-2.564,-2.5376,-2.5267,-2.5199,-2.5091,-2.5036,-2.5023,-2.5023,-2.4914,-2.4826,-2.4792,-2.4596,-2.4406,-2.4276,-2.4243,-2.4155,-2.4121,-2.4012,-2.3877,-2.37,-2.3626,-2.3558,-2.3415,-2.3293,-2.3219,-2.3219,-2.3219,-2.3219,-2.3219,-2.3219,-2.3219,-2.3219,-2.3219,-2.3219,-2.3219,-2.3219,-2.2873,-2.2291,-2.0851,-1.9259,-1.7592,-1.6295,-1.5707,-1.5707,-1.5624,-1.5233,-1.4433,-1.3264,-1.0972,-0.808,-0.7151,-0.5853,-0.4488,-0.4488,-0.4488,-0.4488,-2.68,-2.68,-2.68,-2.68,-2.68,-2.68,-2.68,-2.68,-2.68,-2.68,-2.68,-2.68,-2.68,-2.68,-2.68,-2.68,-2.68,-2.68,-2.68,-2.68,-2.6732,-2.6556,-2.6434,-2.6271,-2.6095,-2.5973,-2.5905,-2.5905,-2.5905,-2.5905,-2.5905,-2.5884,-2.5864,-2.5864,-2.585,-2.585,-2.5864,-2.5864,-2.5864,-2.5864,-2.5864,-2.5864,-2.585,-2.585,-2.585,-2.5864,-2.5864,-2.5993,-2.6129,-2.6129,-2.6237,-2.6325,-2.6183,-2.6129,-2.6095,-2.5952,-2.5905,-2.5905,-2.5884,-2.5783,-2.5674,-2.564,-2.5423,-2.5233,-2.5213,-2.5111,-2.5023,-2.5023,-2.5003,-2.4948,-2.4813,-2.4758,-2.465,-2.4385,-2.4256,-2.4202,-2.4141,-2.41,-2.3978,-2.3714,-2.3449,-2.3273,-2.3259,-2.3239,-2.3219,-2.3219,-2.3219,-2.3219,-2.3219,-2.3219,-2.3219,-2.3219,-2.3219,-2.3219,-2.3219,-2.3219,-2.3147,-2.3075,-2.2219,-2.0629,-1.8459,-1.8237,-1.8109,-1.8165,-1.8149,-1.7726,-1.6845,-1.4653,-1.1838,-0.8917,-0.7377,-0.5853,-0.4488,-0.4488,-0.4488,-0.4488,-2.68,-2.68,-2.68,-2.68,-2.68,-2.68,-2.68,-2.68,-2.68,-2.68,-2.68,-2.68,-2.68,-2.6732,-2.6678,-2.6678,-2.6678,-2.6644,-2.6556,-2.6624,-2.6569,-2.6346,-2.6271,-2.6169,-2.6006,-2.5939,-2.5905,-2.5905,-2.5905,-2.5905,-2.5905,-2.5905,-2.5905,-2.5905,-2.5905,-2.5905,-2.5905,-2.5905,-2.5905,-2.5905,-2.5905,-2.5905,-2.5905,-2.5905,-2.5905,-2.5905,-2.5905,-2.6006,-2.6149,-2.6237,-2.6312,-2.6346,-2.6271,-2.6203,-2.6095,-2.5952,-2.5905,-2.5905,-2.5905,-2.585,-2.5796,-2.5708,-2.5532,-2.5335,-2.5247,-2.5125,-2.5023,-2.5023,-2.5023,-2.5003,-2.4935,-2.4847,-2.4724,-2.4507,-2.4406,-2.4222,-2.4141,-2.4121,-2.4012,-2.3714,-2.3415,-2.3219,-2.3219,-2.3219,-2.3219,-2.3219,-2.3219,-2.3219,-2.3219,-2.3219,-2.3219,-2.3219,-2.3219,-2.3219,-2.3219,-2.3219,-2.3219,-2.3219,-2.2866,-2.1925,-2.0551,-2.0124,-1.9902,-1.983,-1.9475,-1.8609,-1.7308,-1.4882,-1.2282,-0.9641,-0.7596,-0.5853,-0.4488,-0.4488,-0.4488,-0.4488]},{"header":{"parameterUnit":"m.s-1","parameterCategory":1,"la1":30.6,"la2":28.766,"lo1":-90.7593,"lo2":-88.6598,"dy":0.0162,"dx":0.0183,"nx":116,"ny":114,"refTime":"2024-06-16T06:00:00:Z","depth":0,"parameterNumber":3,"parameterNumberName":"V-component_of_WINDS"},"data":[0.0,0.0,0.0,0.0,0.0,0.0,0.0,0.0,0.0,0.0,0.0,0.0,0.0,0.0,0.0,0.0,0.0,0.0,0.0,0.0,0.0,0.0,0.0,0.0,0.0,0.0,0.0,0.0,0.0,0.0,0.0,0.0,0.0,0.0,0.0,0.0,0.0,0.0,0.0,0.0,0.0,0.0,0.0,0.0,0.0,0.0,0.0,0.0,0.0,0.0,0.0,0.0,0.0,0.0,0.0,0.0,0.0,0.0,0.0,0.0,0.0,0.0,0.0,0.0,0.0,0.0,0.0,0.0,0.0,0.0,0.0,0.0,0.0,0.0,0.0,0.0,0.0,0.0,0.0,0.0,0.0,0.0,0.0,0.0,0.0,0.0,0.0,0.0,0.0,0.0,0.0,0.0,0.0,0.0,0.0,0.0,0.0,0.0,0.0,0.0,0.0,0.0,0.0,0.0,0.0,0.0,0.0,0.0,0.0,0.0,0.0,0.0,0.0,0.0,0.0,0.0,0.0,0.0,0.0,0.0,0.0,0.0,0.0,0.0,0.0,0.0,0.0,0.0,0.0,0.0,0.0,0.0,0.0,0.0,0.0,0.0,0.0,0.0,0.0,0.0,0.0,0.0,0.0,0.0,0.0,0.0,0.0,0.0,0.0,0.0,0.0,0.0,0.0,0.0,0.0,0.0,0.0,0.0,0.0,0.0,0.0,0.0,0.0,0.0,0.0,0.0,0.0,0.0,0.0,0.0,0.0,0.0,0.0,0.0,0.0,0.0,0.0,0.0,0.0,0.0,0.0,0.0,0.0,0.0,0.0,0.0,0.0,0.0,0.0,0.0,0.0,0.0,0.0,0.0,0.0,0.0,0.0,0.0,0.0,0.0,0.0,0.0,0.0,0.0,0.0,0.0,0.0,0.0,0.0,0.0,0.0,0.0,0.0,0.0,0.0,0.0,0.0,0.0,0.0,0.0,0.0,0.0,0.0,0.0,0.0,0.0,0.0,0.0,0.0,0.0,0.0,0.0,0.0,0.0,0.0,0.0,0.0,0.0,0.0,0.0,0.0,0.0,0.0,0.0,0.0,0.0,0.0,0.0,0.0,0.0,0.0,0.0,0.0,0.0,0.0,0.0,0.0,0.0,0.0,0.0,0.0,0.0,0.0,0.0,0.0,0.0,0.0,0.0,0.0,0.0,0.0,0.0,0.0,0.0,0.0,0.0,0.0,0.0,0.0,0.0,0.0,0.0,0.0,0.0,0.0,0.0,0.0,0.0,0.0,0.0,0.0,0.0,0.0,0.0,0.0,0.0,0.0,0.0,0.0,0.0,0.0,0.0,0.0,0.0,0.0,0.0,0.0,0.0,0.0,0.0,0.0,0.0,0.0,0.0,0.0,0.0,0.0,0.0,0.0,0.0,0.0,0.0,0.0,0.0,0.0,0.0,0.0,0.0,0.0,0.0,0.0,0.0,0.0,0.0,0.0,0.0,0.0,0.0,0.0,0.0,0.0,0.0,0.0,0.0,0.0,0.0,0.0,0.0,0.0,0.0,0.0,0.0,0.0,0.0,0.0,0.0,0.0,0.0,0.0,0.0,0.0,0.0,0.0,0.0,0.0,0.0,0.0,0.0,0.0,0.0,0.0,0.0,0.0,0.0,0.0,0.0,0.0,0.0,0.0,0.0,0.0,0.0,0.0,0.0,0.0,0.0,0.0,0.0,0.0,0.0,0.0,0.0,0.0,0.0,0.0,0.0,0.0,0.0,0.0,0.0,0.0,0.0,0.0,0.0,0.0,0.0,0.0,0.0,0.0,0.0,0.0,0.0,0.0,0.0,0.0,0.0,0.0,0.0,0.0,0.0,0.0,0.0,0.0,0.0,0.0,0.0,0.0,0.0,0.0,0.0,0.0,0.0,0.0,0.0,0.0,0.0,0.0,0.0,0.0,0.0,0.0,0.0,0.0,0.0,0.0,0.0,0.0,0.0,0.0,0.0,0.0,0.0,0.0,0.0,0.0,0.0,0.0,0.0,0.0,0.0,0.0,0.0,0.0,0.0,0.0,0.0,0.0,0.0,0.0,0.0,0.0,0.0,0.0,0.0,0.0,0.0,0.0,0.0,0.0,0.0,0.0,0.0,0.0,0.0,0.0,0.0,0.0,0.0,0.0,0.0,0.0,0.0,0.0,0.0,0.0,0.0,0.0,0.0,0.0,0.0,0.0,0.0,0.0,0.0,0.0,0.0,0.0,0.0,0.0,0.0,0.0,0.0,0.0,0.0,0.0,0.0,0.0,0.0,0.0,0.0,0.0,0.0,0.0,0.0,0.0,0.0,0.0,0.0,0.0,0.0,0.0,0.0,0.0,0.0,0.0,0.0,0.0,0.0,0.0,0.0,0.0,0.0,0.0,0.0,0.0,0.0,0.0,0.0,0.0,0.0,0.0,0.0,0.0,0.0,0.0,0.0,0.0,0.0,0.0,0.0,0.0,0.0,0.0,0.0,0.0,0.0,0.0,0.0,0.0,0.0,0.0,0.0,0.0,0.0,0.0,0.0,0.0,0.0,0.0,0.0,0.0,0.0,0.0,0.0,0.0,0.0,0.0,0.0,0.0,0.0,0.0,0.0,0.0,0.0,0.0,0.0,0.0,0.0,0.0,0.0,0.0,0.0,0.0,0.0,0.0,0.0,0.0,0.0,0.0,0.0,0.0,0.0,0.0,0.0,0.0,0.0,0.0,0.0,0.0,0.0,0.0,0.0,0.0,0.0,0.0,0.0,0.0,0.0,0.0,0.0,0.0,0.0,0.0,0.0,0.0,0.0,0.0,0.0,0.0,0.0,0.0,0.0,0.0,0.0,0.0,0.0,0.0,0.0,0.0,0.0,0.0,0.0,0.0,0.0,0.0,0.0,0.0,0.0,0.0,0.0,0.0,0.0,0.0,0.0,0.0,0.0,0.0,0.0,0.0,0.0,0.0,0.0,0.0,0.0,0.0,0.0,0.0,0.0,0.0,0.0,0.0,0.0,0.0,0.0,0.0,0.0,0.0,0.0,0.0,0.0,0.0,0.0,0.0,0.0,0.0,0.0,0.0,0.0,0.0,0.0,0.0,0.0,0.0,0.0,0.0,0.0,0.0,0.0,0.0,0.0,0.0,0.0,0.0,0.0,0.0,0.0,0.0,0.0,0.0,0.0,0.0,0.0,0.0,0.0,0.0,0.0,0.0,0.0,0.0,0.0,0.0,0.0,0.0,0.0,0.0,0.0,0.0,0.0,0.0,0.0,0.0,0.0,0.0,0.0,0.0,0.0,0.0,0.0,0.0,0.0,0.0,0.0,0.0,0.0,0.0,0.0,0.0,0.0,0.0,0.0,0.0,0.0,0.0,0.0,0.0,0.0,0.0,0.0,0.0,0.0,0.0,0.0,0.0,0.0,0.0,0.0,0.0,0.0,0.0,0.0,0.0,0.0,0.0,0.0,0.0,0.0,0.0,0.0,0.0,0.0,0.0,0.0,0.0,0.0,0.0,0.0,0.0,0.0,0.0,0.0,0.0,0.0,0.0,0.0,0.0,0.0,0.0,0.0,0.0,0.0,0.0,0.0,0.0,0.0,0.0,0.0,0.0,0.0,0.0,0.0,0.0,0.0,0.0,0.0,0.0,0.0,0.0,0.0,0.0,0.0,0.0,0.0,0.0,0.0,0.0,0.0,0.0,0.0,0.0,0.0,0.0,0.0,0.0,0.0,0.0,0.0,0.0,0.0,0.0,0.0,0.0,0.0,0.0,0.0,0.0,0.0,0.0,0.0,0.0,0.0,0.0,0.0,0.0,0.0,0.0,0.0,0.0,0.0,0.0,0.0,0.0,0.0,0.0,0.0,0.0,0.0,0.0,0.0,0.0,0.0,0.0,0.0,0.0,0.0,0.0,0.0,0.0,0.0,0.0,0.0,0.0,0.0,0.0,0.0,0.0,0.0,0.0,0.0,0.0,0.0,0.0,0.0,0.0,0.0,0.0,0.0,0.0,0.0,0.0,0.0,0.0,0.0,0.0,0.0,0.0,0.0,0.0,0.0,0.0,0.0,0.0,0.0,0.0,0.0,0.0,0.0,0.0,0.0,0.0,0.0,0.0,0.0,0.0,0.0,0.0,0.0,0.0,0.0,0.0,0.0,0.0,0.0,0.0,0.0,0.0,0.0,0.0,0.0,0.0,0.0,0.0,0.0,0.0,0.0,0.0,0.0,0.0,0.0,0.0,0.0,0.0,0.0,0.0,0.0,0.0,0.0,0.0,0.0,0.0,0.0,0.0,0.0,0.0,0.0,0.0,0.0,0.0,0.0,0.0,0.0,0.0,0.0,0.0,0.0,0.0,0.0,0.0,0.0,0.0,0.0,0.0,0.0,0.0,0.0,0.0,0.0,0.0,0.0,0.0,0.0,0.0,0.0,0.0,0.0,0.0,0.0,0.0,0.0,0.0,0.0,0.0,0.0,0.0,0.0,0.0,0.0,0.0,0.0,0.0,0.0,0.0,0.0,0.0,0.0,0.0,0.0,0.0,0.0,0.0,0.0,0.0,0.0,0.0,0.0,0.0,0.0,0.0,0.0,0.0,0.0,0.0,0.0,0.0,0.0,0.0,0.0,0.0,0.0,0.0,0.0,0.0,0.0,0.0,0.0,0.0,0.0,0.0,0.0,0.0,0.0,0.0,0.0,0.0,0.0,0.0,0.0,0.0,0.0,0.0,0.0,0.0,0.0,0.0,0.0,0.0,0.0,0.0,0.0,0.0,0.0,0.0,0.0,0.0,0.0,0.0,0.0,0.0,0.0,0.0,0.0,0.0,0.0,0.0,0.0,0.0,0.0,0.0,0.0,0.0,0.0,0.0,0.0,0.0,0.0,0.0,0.0,0.0,0.0,0.0,0.0,0.0,0.0,0.0,0.0,0.0,0.0,0.0,0.0,0.0,0.0,0.0,0.0,0.0,0.0,0.0,0.0,0.0,0.0,0.0,0.0,0.0,0.0,0.0,0.0,0.0,0.0,0.0,0.0,0.0,0.0,0.0,0.0,0.0,0.0,0.0,0.0,0.0,0.0,0.0,0.0,0.0,0.0,0.0,0.0,0.0,0.0,0.0,0.0,0.0,0.0,0.0,0.0,0.0,0.0,0.0,0.0,0.0,0.0,0.0,0.0,0.0,0.0,0.0,0.0,0.0,0.0,0.0,0.0,0.0,0.0,0.0,0.0,0.0,0.0,0.0,0.0,0.0,0.0,0.0,0.0,0.0,0.0,0.0,0.0,0.0,0.0,0.0,0.0,0.0,0.0,0.0,0.0,0.0,0.0,0.0,0.0,0.0,0.0,0.0,0.0,0.0,0.0,0.0,0.0,0.0,0.0,0.0,0.0,0.0,0.0,0.0,0.0,0.0,0.0,0.0,0.0,0.0,0.0,0.0,0.0,0.0,0.0,0.0,0.0,0.0,0.0,0.0,0.0,0.0,0.0,0.0,0.0,0.0,0.0,0.0,0.0,0.0,0.0,0.0,0.0,0.0,0.0,0.0,0.0,0.0,0.0,0.0,0.0,0.0,0.0,0.0,0.0,0.0,0.0,0.0,0.0,0.0,0.0,0.0,0.0,0.0,0.0,0.0,0.0,0.0,0.0,0.0,0.0,0.0,0.0,0.0,0.0,0.0,0.0,0.0,0.0,0.0,0.0,0.0,0.0,0.0,0.0,0.0,0.0,0.0,0.0,0.0,0.0,0.0,0.0,0.0,0.0,0.0,0.0,0.0,0.0,0.0,0.0,0.0,0.0,0.0,0.0,0.0,0.0,0.0,0.0,0.0,0.0,0.0,0.0,0.0,0.0,0.0,0.0,0.0,0.0,0.0,0.0,0.0,0.0,0.0,0.0,0.0,0.0,0.0,0.0,0.0,0.0,0.0,0.0,0.0,0.0,0.0,0.0,0.0,0.0,0.0,0.0,0.0,0.0,0.0,0.0,0.0,0.0,0.0,0.0,0.0,0.0,0.0,0.0,0.0,0.0,0.0,0.0,0.0,0.0,0.0,0.0,0.0,0.0,0.0,0.0,0.0,0.0,0.0,0.0,0.0,0.0,0.0,0.0,6.7109,0.0,0.0,0.0,0.0,0.0,0.0,0.0,0.0,0.0,0.0,0.0,0.0,0.0,0.0,0.0,0.0,0.0,0.0,0.0,0.0,0.0,0.0,0.0,0.0,6.5682,6.7373,6.8263,6.9555,7.0285,7.0352,7.0325,6.9987,6.915,6.8387,6.8025,6.8097,6.7733,6.7862,6.849,6.849,6.8526,6.8586,6.7096,6.5209,6.2993,0.0,0.0,0.0,0.0,0.0,0.0,0.0,0.0,0.0,0.0,0.0,0.0,0.0,0.0,0.0,0.0,0.0,0.0,0.0,0.0,0.0,0.0,0.0,0.0,0.0,0.0,0.0,0.0,0.0,0.0,0.0,0.0,0.0,0.0,0.0,0.0,0.0,0.0,0.0,0.0,0.0,0.0,0.0,0.0,0.0,0.0,0.0,0.0,0.0,0.0,0.0,0.0,0.0,0.0,0.0,0.0,0.0,0.0,0.0,0.0,0.0,0.0,0.0,0.0,0.0,0.0,0.0,0.0,0.0,0.0,0.0,7.0099,0.0,0.0,0.0,0.0,0.0,0.0,0.0,0.0,0.0,0.0,0.0,0.0,0.0,0.0,0.0,0.0,0.0,0.0,0.0,0.0,0.0,6.3561,6.4735,6.7635,6.9755,7.0352,7.1728,7.2583,7.2614,7.2624,7.217,7.1224,7.0495,7.0127,7.0261,6.9778,6.9945,7.0908,7.1239,7.143,7.157,7.2305,7.0531,6.6717,6.518,0.0,0.0,0.0,0.0,0.0,0.0,0.0,0.0,0.0,0.0,0.0,0.0,0.0,0.0,0.0,0.0,0.0,0.0,0.0,0.0,0.0,0.0,0.0,0.0,0.0,0.0,0.0,0.0,0.0,0.0,0.0,0.0,0.0,0.0,0.0,0.0,0.0,0.0,0.0,0.0,0.0,0.0,0.0,0.0,0.0,0.0,0.0,0.0,0.0,0.0,0.0,0.0,0.0,0.0,0.0,0.0,0.0,0.0,0.0,0.0,0.0,0.0,0.0,8.183,8.183,8.183,8.1802,8.1899,8.1774,7.7134,7.5139,7.4954,7.2624,0.0,0.0,0.0,0.0,0.0,0.0,0.0,0.0,0.0,0.0,0.0,0.0,0.0,0.0,0.0,0.0,0.0,0.0,0.0,6.5303,6.7609,6.9077,7.1133,7.4153,7.4695,7.4902,7.503,7.5039,7.4314,7.2702,7.2511,7.2444,7.2491,7.3119,7.356,7.3776,7.5343,7.6112,7.6136,7.6251,7.595,7.5165,7.052,6.8048,6.72,0.0,0.0,0.0,0.0,0.0,0.0,0.0,0.0,0.0,0.0,0.0,0.0,0.0,0.0,0.0,0.0,0.0,0.0,0.0,0.0,0.0,0.0,0.0,0.0,0.0,0.0,0.0,0.0,0.0,0.0,0.0,0.0,0.0,0.0,0.0,0.0,0.0,0.0,0.0,0.0,0.0,7.5894,7.7599,0.0,0.0,0.0,0.0,0.0,0.0,0.0,0.0,0.0,0.0,0.0,0.0,0.0,8.5548,8.566,8.5906,8.601,8.601,8.601,8.601,8.601,8.5878,8.6223,8.6773,8.4607,0.0,7.8662,7.6952,0.0,0.0,0.0,0.0,0.0,0.0,0.0,0.0,0.0,0.0,0.0,0.0,0.0,0.0,0.0,0.0,0.0,0.0,0.0,0.0,0.0,7.1251,7.3216,7.5245,7.6364,7.7007,7.7088,7.6629,7.5978,7.525,7.4284,7.4246,7.5173,7.5097,7.5797,7.7344,7.9105,7.999,7.999,7.999,7.999,7.9875,7.7093,7.4021,7.0747,6.8593,0.0,0.0,0.0,0.0,0.0,0.0,0.0,0.0,0.0,0.0,0.0,0.0,0.0,0.0,0.0,0.0,0.0,0.0,0.0,0.0,0.0,0.0,0.0,0.0,0.0,0.0,0.0,0.0,0.0,0.0,0.0,0.0,0.0,0.0,0.0,0.0,0.0,0.0,0.0,7.7614,8.0017,8.1746,8.1317,8.0656,0.0,0.0,0.0,0.0,0.0,0.0,0.0,0.0,0.0,8.7652,8.9537,9.0535,9.0535,9.104,9.1293,9.1293,9.1293,9.1293,9.1293,9.1241,9.1164,9.0976,8.9767,8.8027,8.5709,8.1902,8.0034,7.9519,0.0,0.0,0.0,0.0,7.5691,7.5233,0.0,0.0,0.0,0.0,0.0,0.0,0.0,0.0,0.0,0.0,0.0,0.0,7.0844,7.3251,7.5214,7.6525,7.7903,7.8673,7.8673,7.8067,7.7614,7.7384,7.6186,7.6109,7.7345,7.7184,7.8367,8.1044,8.253,8.3401,8.3593,8.3593,8.3593,8.3555,8.2747,7.9461,7.4397,7.2094,7.0004,6.8087,0.0,0.0,0.0,0.0,0.0,0.0,0.0,0.0,0.0,0.0,0.0,0.0,0.0,0.0,0.0,0.0,0.0,0.0,0.0,0.0,0.0,0.0,0.0,0.0,0.0,0.0,0.0,0.0,0.0,0.0,0.0,0.0,0.0,0.0,0.0,0.0,0.0,8.1629,8.3268,8.5053,8.4481,8.3726,0.0,0.0,0.0,0.0,0.0,0.0,8.7562,9.0276,9.1937,9.2165,9.382,9.4717,9.4741,9.5374,9.569,9.569,9.569,9.569,9.569,9.5616,9.5287,9.4642,9.3781,9.3035,9.2088,8.677,8.4444,8.4142,8.3348,8.2971,8.2696,8.2006,8.1293,8.0531,0.0,0.0,0.0,0.0,0.0,0.0,0.0,0.0,0.0,0.0,0.0,7.024,7.2771,7.4689,7.6817,7.9275,7.9646,7.9731,7.9731,7.9692,7.9269,7.8469,7.8354,7.8354,7.8431,8.0008,8.2085,8.4624,8.547,8.6324,8.7132,8.7132,8.7132,8.7094,8.6247,8.3016,7.8123,7.6392,7.4199,7.1706,6.9154,0.0,0.0,0.0,0.0,0.0,0.0,0.0,0.0,0.0,0.0,0.0,0.0,0.0,0.0,0.0,0.0,0.0,0.0,0.0,0.0,0.0,0.0,0.0,0.0,0.0,0.0,0.0,0.0,0.0,0.0,0.0,0.0,0.0,0.0,0.0,0.0,0.0,0.0,8.7133,8.7051,0.0,0.0,0.0,0.0,8.6264,8.8097,8.9914,9.1512,9.3643,9.521,9.6181,9.7177,9.7753,9.7868,9.803,9.8124,9.8124,9.8124,9.8124,9.8113,9.7849,9.7744,9.7618,9.6698,9.6257,9.589,9.1315,8.8908,8.8102,8.8052,8.7449,8.6631,8.6793,8.6214,8.5247,0.0,0.0,0.0,6.0639,6.1177,6.1676,6.199,6.3674,6.5519,6.7171,6.9631,7.2167,7.4703,7.7032,7.9015,8.0477,8.1115,8.14,8.14,8.0392,7.9662,7.9361,7.9323,8.0092,8.1754,8.3439,8.5055,8.6517,8.7363,8.8209,8.9009,8.8479,8.8517,8.8979,8.8132,8.644,8.4016,8.0669,7.7823,7.5253,7.2706,7.0661,0.0,0.0,0.0,0.0,0.0,0.0,0.0,0.0,0.0,0.0,0.0,0.0,0.0,0.0,0.0,0.0,0.0,0.0,0.0,0.0,0.0,0.0,0.0,0.0,0.0,0.0,0.0,0.0,0.0,0.0,0.0,0.0,0.0,0.0,0.0,0.0,0.0,8.9244,8.8718,0.0,8.8462,8.8544,8.886,8.944,9.1648,9.3264,9.3871,9.6409,9.7996,9.8348,9.9346,9.9928,9.9961,10.0005,10.0295,10.0793,10.0295,10.0295,10.0782,10.0207,9.96,9.9053,9.8703,9.8271,9.7659,9.6063,9.4338,9.2779,9.2668,9.2417,9.2,9.0975,9.0394,8.9902,0.0,0.0,0.0,6.0666,6.1518,6.2172,6.248,6.4442,6.659,6.8584,7.1052,7.3707,7.6553,7.8861,8.0708,8.1823,8.217,8.2285,8.2285,8.1016,8.0362,8.0631,8.1208,8.2439,8.4401,8.5824,8.7248,8.8671,8.9248,9.0094,9.1171,9.0633,9.0671,9.1163,9.0633,8.9757,8.8479,8.5401,8.2285,7.9177,7.6322,7.4322,7.286,0.0,0.0,0.0,0.0,0.0,0.0,0.0,0.0,0.0,0.0,0.0,0.0,0.0,0.0,0.0,0.0,0.0,0.0,0.0,0.0,0.0,0.0,0.0,0.0,0.0,0.0,0.0,0.0,0.0,0.0,0.0,0.0,0.0,0.0,8.854,8.9914,9.0754,9.0492,9.0429,9.0932,9.0853,9.1263,9.2414,9.4132,9.5548,9.6433,9.8383,9.9637,9.9994,10.0683,10.1085,10.1116,10.1116,10.1385,10.1912,10.1385,10.1385,10.1912,10.1304,10.0795,10.0209,10.0216,9.985,9.9362,9.9362,9.8501,9.7101,9.6447,9.6183,9.6031,9.4925,9.4307,9.3719,0.0,0.0,0.0,6.0666,6.1556,6.2403,6.316,6.482,6.6859,6.9398,7.1968,7.4853,7.8176,8.0131,8.1823,8.3486,8.2862,8.2362,8.2362,8.1631,8.1554,8.2362,8.4055,8.5393,8.6247,8.7094,8.8748,9.1287,9.1287,9.2095,9.371,9.371,9.371,9.371,9.371,9.2787,9.121,9.0355,8.7594,8.3524,8.0062,7.8176,7.7292,0.0,0.0,0.0,0.0,0.0,0.0,0.0,0.0,0.0,0.0,0.0,0.0,0.0,0.0,0.0,0.0,0.0,0.0,0.0,0.0,0.0,0.0,0.0,0.0,0.0,0.0,0.0,0.0,0.0,0.0,0.0,0.0,0.0,8.8216,8.96,9.0926,9.1739,9.2482,9.2939,9.2977,9.2886,9.3502,9.5189,9.5447,9.6681,9.9278,9.9555,10.0114,10.1206,10.1178,10.119,10.1279,10.1279,10.1279,10.1279,10.1279,10.1279,10.1317,10.119,10.1178,10.1216,10.1102,10.1011,10.1011,10.1011,10.1011,10.0781,9.9208,9.8595,9.8556,9.8556,9.7844,9.6657,0.0,0.0,5.9781,6.0666,6.2012,6.3045,6.3275,6.5814,6.8391,7.0321,7.336,7.6361,7.9131,8.1516,8.3362,8.4439,8.4324,8.4209,8.4209,8.3401,8.3555,8.4978,8.6132,8.7671,8.9748,9.0017,9.1095,9.3018,9.3018,9.3249,9.371,9.371,9.371,9.371,9.371,9.3441,9.2941,9.2133,9.0748,8.8709,8.4063,8.2062,8.1601,0.0,0.0,0.0,0.0,0.0,0.0,0.0,0.0,0.0,0.0,0.0,0.0,0.0,0.0,0.0,0.0,0.0,0.0,0.0,0.0,0.0,0.0,0.0,0.0,0.0,0.0,0.0,0.0,0.0,0.0,0.0,8.9986,9.0799,9.0013,9.0822,9.1778,9.2656,9.293,9.3519,9.4752,9.4922,9.5643,9.7324,9.8113,9.884,9.96,10.0293,10.0886,10.1216,10.121,10.1298,10.1279,10.1279,10.1587,10.2212,10.1587,10.1587,10.2202,10.1606,10.1278,10.1278,10.121,10.12,10.12,10.12,10.12,10.119,10.0488,10.032,10.0195,9.9581,9.8768,9.7659,0.0,5.9165,5.9781,6.0666,6.2204,6.3429,6.3775,6.6429,6.9122,7.1168,7.4091,7.6976,7.9508,8.1747,8.3555,8.4777,8.4555,8.4516,8.4901,8.4747,8.5401,8.7094,8.8363,8.9863,9.171,9.2056,9.2903,9.4258,9.4258,9.4441,9.4788,9.4788,9.4788,9.4788,9.4788,9.4595,9.422,9.3758,9.3018,9.1941,8.8248,8.6132,8.4986,8.3131,8.2239,8.1739,8.04,7.9369,7.8438,7.7246,0.0,0.0,0.0,0.0,0.0,0.0,0.0,0.0,0.0,0.0,0.0,0.0,0.0,0.0,0.0,0.0,0.0,0.0,0.0,0.0,0.0,0.0,0.0,0.0,9.2133,9.3111,9.2863,9.3183,9.3659,9.4184,9.4915,9.5751,9.6708,9.6887,9.7465,9.8795,9.9385,9.9871,10.0307,10.0906,10.1198,10.12,10.1298,10.1279,10.1279,10.1279,10.1597,10.201,10.151,10.1597,10.202,10.151,10.1279,10.1279,10.1279,10.1279,10.1279,10.1279,10.1279,0.0,0.0,0.0,0.0,0.0,9.9766,9.8811,0.0,5.9588,5.9935,6.0787,6.2243,6.3583,6.4474,6.6776,6.9276,7.1745,7.4361,7.6976,7.9508,8.1285,8.2978,8.4632,8.4132,8.417,8.5132,8.6124,8.7363,8.891,9.0594,9.1902,9.2749,9.3595,9.4412,9.5297,9.5374,9.5826,9.6596,9.6596,9.6596,9.6596,9.6596,9.6095,9.5297,9.5297,9.472,9.371,9.221,9.0094,8.7709,8.6748,8.594,8.5209,8.4324,8.3524,8.2631,8.1054,0.0,0.0,0.0,0.0,0.0,0.0,0.0,0.0,0.0,0.0,0.0,0.0,0.0,0.0,0.0,0.0,0.0,0.0,0.0,0.0,0.0,0.0,0.0,0.0,9.4187,9.5454,9.6112,9.6222,9.6208,9.6121,9.7497,9.8556,9.8633,9.8643,9.8989,9.9832,9.9958,10.0394,10.1188,10.1313,0.0,0.0,0.0,10.1279,10.1279,10.1279,10.1279,10.1279,10.1279,10.1279,10.1279,10.1279,10.1279,10.1279,10.1279,10.1279,10.1279,10.1279,10.1279,10.1279,10.1279,10.1279,10.1308,10.119,10.0688,9.9995,0.0,6.0089,6.0825,6.171,6.2666,6.3583,6.4474,6.6776,6.9045,7.0898,7.3976,7.6976,7.9508,8.1285,8.2708,8.3755,8.4324,8.5286,8.6824,8.8979,9.0364,9.071,9.2326,9.3633,9.4489,9.5365,9.6211,9.7019,9.7711,9.8134,9.8327,9.8327,9.8327,9.8327,9.8327,9.7827,9.7019,9.7019,9.6134,9.472,9.4412,9.2749,9.0287,8.8786,8.8094,8.7872,8.6978,8.6555,8.6247,8.5247,8.3862,8.2601,8.2447,8.1323,0.0,0.0,0.0,0.0,0.0,0.0,0.0,0.0,0.0,0.0,0.0,0.0,0.0,0.0,0.0,0.0,0.0,0.0,0.0,9.6309,9.7211,9.7901,9.7991,9.8657,9.882,9.8075,9.8278,9.8748,9.939,9.9588,9.9985,10.0801,10.1603,10.1816,10.1288,10.1913,10.2,10.1279,10.1279,10.1279,10.1279,10.1279,10.1279,10.1279,0.0,0.0,10.1279,10.1279,10.1279,10.1279,10.1279,10.1279,10.1279,10.1279,10.1279,10.1279,10.1279,10.1279,10.1279,10.1298,10.1095,10.0783,6.0773,6.1186,6.1643,6.2032,6.3137,6.428,6.5134,6.7045,6.9161,7.1283,7.3783,7.6169,7.8323,8.0054,8.14,8.2285,8.4286,8.6393,8.8517,9.0248,9.1787,9.3056,9.4326,9.5403,9.6211,9.7096,9.775,9.8134,9.8596,9.8788,9.8788,9.8788,9.8788,9.8788,9.8788,9.8557,9.8134,9.7673,9.7019,9.6172,9.5335,9.3989,9.2326,9.1056,9.0325,8.9825,8.8979,8.8671,8.8517,8.7671,8.6555,8.5486,8.5486,8.4632,8.3516,0.0,0.0,0.0,0.0,0.0,0.0,0.0,0.0,0.0,0.0,0.0,0.0,0.0,0.0,9.4634,9.5441,0.0,9.7654,9.8029,9.8788,9.9355,9.9305,10.0411,10.0709,9.9378,9.9601,10.0207,10.1091,10.1218,10.1594,10.2488,10.299,10.3097,10.2597,10.2597,10.2404,10.202,10.151,10.1279,10.1279,10.1279,10.1279,10.1279,10.1279,10.1279,10.1279,10.1279,10.1279,10.1279,10.1279,10.1279,10.1279,10.1279,10.1279,10.1279,10.1279,10.1279,10.1279,10.1279,10.1288,10.12,6.2076,6.239,6.2518,6.2601,6.3785,6.4995,6.5813,6.734,6.9219,7.1444,7.3476,7.5284,7.6868,7.8554,8.0015,8.1246,8.4247,8.7162,8.9739,9.1018,9.2749,9.5143,9.6095,9.6903,9.775,9.8596,9.9058,9.9058,9.9211,9.9288,9.9288,9.9288,9.9288,9.9288,9.9288,9.9211,9.9029,9.8288,9.7827,9.7365,9.6019,9.4758,9.3633,9.2979,9.2095,9.1133,9.0393,9.0163,9.0047,8.9402,8.8594,8.7902,8.7902,8.7286,8.6478,8.5824,8.5632,0.0,0.0,0.0,0.0,0.0,0.0,0.0,0.0,9.2595,9.348,9.4249,9.5672,9.7057,9.7865,9.8711,9.9327,9.9519,10.0298,10.0798,10.0798,10.1981,10.2298,10.0911,10.1307,10.2097,10.2789,10.2904,10.3097,10.3789,10.3982,10.4097,10.3905,10.3212,10.2789,10.2597,10.1789,10.1279,10.1279,10.1279,10.1279,10.1279,10.1279,10.1279,10.1279,10.1279,10.1279,10.1279,10.1279,10.1279,10.1279,10.1279,10.1279,10.1279,10.1279,10.1279,10.1279,10.1279,10.1279,10.1308,0.0,6.2999,6.3747,6.4371,6.4663,6.5064,6.5887,6.7409,6.8848,6.9866,7.2745,7.5084,7.6053,7.763,7.96,8.1939,8.4593,8.7162,8.9739,9.2095,9.4249,9.6057,9.6942,9.7788,9.8634,9.9529,9.9952,9.9952,10.0712,10.101,10.101,10.101,10.101,10.101,10.101,10.0596,9.9952,9.9837,9.8904,9.748,9.7288,9.5826,9.3672,9.3595,9.2595,9.121,9.1095,9.1056,9.1056,9.0941,9.0325,8.9624,8.9624,8.9056,8.841,8.8295,8.8256,8.844,8.9162,8.9893,9.0748,9.1825,9.2056,9.2518,0.0,9.5249,9.6095,9.6903,9.7865,9.8788,9.9644,10.0481,10.1289,10.202,10.2904,10.3491,10.3491,10.3597,10.3712,10.351,10.351,10.3597,10.3712,10.3789,10.3789,10.3905,10.4607,10.4723,10.3905,10.3789,10.3405,10.2597,10.1789,10.1279,10.1279,10.1279,10.1279,10.1279,10.1279,10.1279,10.1279,10.1279,10.1279,10.1279,10.1279,10.1279,10.1279,10.1279,10.1279,10.1279,10.1279,10.1279,10.1279,10.1279,10.1279,10.1279,0.0,6.3444,6.4087,6.5394,6.5589,6.5661,6.5946,6.7014,6.8274,6.9637,7.1441,7.333,7.5179,7.6878,7.8868,8.137,8.3478,8.594,8.9017,9.1595,9.398,9.6211,9.7557,9.8673,9.9529,10.0404,10.0789,10.0789,10.1087,10.1279,10.1279,10.1279,10.1279,10.1279,10.1279,10.1096,10.0789,10.0298,9.9375,9.8211,9.7711,9.598,9.3633,9.3172,9.1941,9.0432,9.0432,9.0133,0.0,8.9748,8.9479,8.9286,8.9739,8.9663,8.9517,9.0017,9.0133,9.0325,9.1171,9.2018,9.2979,9.4364,9.4711,9.5134,9.6826,9.748,9.8134,9.9442,10.0019,10.0712,10.2106,10.2597,10.2904,10.3289,10.3712,10.3905,10.3905,10.4289,10.4597,10.4597,10.4982,10.5213,10.4597,10.4597,10.4789,10.529,10.5713,10.5713,10.5405,10.4405,10.3712,10.3405,10.202,10.1279,10.1279,10.1279,10.1279,10.1279,10.1279,10.1279,10.1279,10.1279,10.1279,10.1279,10.1279,10.1279,10.1279,10.1279,10.1279,10.1279,10.1279,10.1279,10.1279,10.1279,10.1279,10.1279,0.0,6.3715,6.4217,6.5915,6.6149,6.6102,6.6041,6.6763,6.7877,6.937,7.0444,7.2064,7.461,7.6184,7.8086,8.0554,8.2509,8.5079,8.8487,9.1095,9.3633,9.6211,9.7673,9.8952,10.0106,10.0712,10.1096,10.1279,10.1279,10.1279,10.1279,10.1279,10.1279,10.1279,10.1279,10.1279,10.1202,10.0404,9.9606,9.8711,9.7596,9.5788,9.3595,9.2556,9.1056,8.9547,8.9547,8.9171,8.8718,8.8718,8.8718,8.8825,8.9663,9.0047,9.0432,9.1287,9.2056,9.2864,9.3941,9.4672,9.5403,9.6673,9.698,9.7365,9.8827,9.9327,9.9904,10.1404,10.1779,10.2404,10.3712,10.4097,10.4212,10.4212,10.4405,10.4597,10.4597,10.5097,10.5482,10.5482,10.602,10.6213,10.5482,10.5482,10.5713,10.6405,10.6395,10.6395,10.6395,10.4789,10.3905,10.3905,10.2212,10.1279,10.1279,10.1279,10.1279,10.1279,10.1279,10.1279,10.1279,10.1279,10.1279,10.1279,10.1279,10.1279,10.1279,10.1279,10.1279,10.1279,10.1279,10.1279,10.1279,10.1279,10.1279,10.1279,0.0,0.0,6.4217,6.5915,6.6185,6.6165,6.6107,6.683,6.7696,6.8521,7.0096,7.2064,7.461,7.569,7.7238,7.9712,8.2239,8.5135,8.8487,9.1095,9.3633,9.6211,9.7096,9.8327,10.0106,10.0106,10.0481,10.1279,10.1279,10.1279,10.1279,10.1279,10.1279,10.1279,10.1279,10.1279,10.1202,10.0404,9.9606,9.8673,9.7019,9.5288,9.3518,9.1864,9.021,8.8756,8.8756,8.8718,8.8718,8.8718,8.8718,8.8825,8.9663,9.047,9.1325,9.221,9.421,9.6519,9.8173,9.8634,9.8673,9.8711,9.8711,9.8952,9.9875,10.0712,10.152,10.2404,10.3212,10.3789,10.3905,10.4482,10.5107,10.5107,10.579,10.628,10.628,10.628,10.6405,10.6405,10.6395,10.6395,10.6405,10.6405,10.6405,10.6395,10.6395,10.6395,10.6395,10.4789,10.3905,10.3905,10.2212,10.1279,10.1279,10.1279,10.1279,10.1279,10.1279,10.1279,10.1279,10.1279,10.1279,10.1279,10.1279,10.1279,10.1279,10.1279,10.1279,10.1279,10.1279,10.1279,10.1279,10.1279,10.1279,10.1279,0.0,0.0,0.0,6.5992,6.6185,6.618,6.616,6.6425,6.7116,6.8563,7.0689,0.0,0.0,0.0,0.0,0.0,8.0432,8.2699,8.6108,8.8634,9.1181,9.3722,9.5661,9.725,9.8365,9.8942,9.9365,9.9635,9.9635,9.9635,9.9635,9.9635,9.9635,9.9635,9.9635,9.9635,9.9635,9.9365,9.8442,9.7096,9.6519,9.4595,9.1941,9.0778,8.9286,8.7748,0.0,8.6978,8.6901,8.6363,8.6901,8.7987,8.8825,9.0056,9.171,9.4287,9.6403,9.8096,9.8634,9.8788,9.8942,9.9529,10.0096,10.0712,10.1597,10.2404,10.3289,10.4097,10.4482,10.4905,10.5482,10.579,10.602,10.602,10.6203,10.6395,10.6395,10.6395,10.6395,10.6395,10.6395,10.6395,10.6395,10.6395,10.6395,10.6395,10.6395,10.6395,10.6395,10.4789,10.3905,10.3905,10.2212,10.1279,10.1279,10.1279,10.1279,10.1279,10.1279,10.1279,10.1279,10.1279,10.1279,10.1279,10.1279,10.1279,10.1279,10.1279,10.1279,10.1279,10.1279,10.1279,10.1279,10.1279,10.1279,10.1279,0.0,0.0,0.0,0.0,0.0,0.0,0.0,0.0,0.0,0.0,0.0,0.0,0.0,0.0,0.0,0.0,0.0,8.1467,8.4879,8.711,8.9335,9.1578,9.3755,9.5326,9.6134,9.698,9.7596,9.7904,9.7904,9.8057,9.8327,9.8327,9.8481,9.8788,9.8481,9.8327,9.8288,9.7711,9.6826,9.5749,9.4826,9.3172,9.1056,8.9547,8.8325,0.0,8.6094,8.5863,8.6017,8.5508,8.6247,8.7594,8.8748,9.0902,9.3557,9.6365,9.8173,9.9327,9.9635,9.9673,9.9904,10.0789,10.1404,10.202,10.2904,10.3712,10.4482,10.4992,10.529,10.5713,10.628,10.6395,10.6395,10.6395,10.6395,10.6395,10.6395,10.6395,10.6395,10.6395,10.6395,10.6395,10.6395,10.6395,10.6395,10.6395,10.6395,10.6395,10.6395,10.5097,10.4212,10.3905,10.252,10.1587,10.1279,10.1279,10.1279,10.1279,10.1279,10.1279,10.1279,10.1279,10.1279,10.1279,10.1279,10.1279,10.1279,10.1279,10.1279,10.1279,10.1279,10.1279,10.1279,10.1279,10.1279,10.1279,0.0,0.0,0.0,0.0,0.0,0.0,0.0,0.0,0.0,0.0,0.0,0.0,0.0,0.0,0.0,0.0,0.0,0.0,8.4778,8.6501,8.8111,8.9729,9.1455,9.271,9.348,9.4373,9.522,9.6057,9.6095,9.6519,9.725,9.7288,9.775,9.8481,9.7634,9.725,9.7134,9.5489,9.4797,9.4527,9.2095,9.1095,9.0748,8.8325,8.7363,8.7132,8.5517,8.547,8.617,8.6132,8.6786,8.7902,8.9586,9.2971,9.6673,9.8327,9.9452,10.0289,10.1096,10.1279,10.1597,10.2404,10.2712,10.2904,10.3789,10.4597,10.5223,10.5223,10.579,10.6395,10.6395,10.6395,10.6395,10.6395,10.6395,10.6395,10.6395,10.6395,10.6395,10.6395,10.6395,10.6395,10.6395,10.6395,10.6395,10.6395,10.6395,10.6395,10.6395,10.5482,10.4723,10.3905,10.2981,10.2097,10.1279,10.1279,10.1279,10.1279,10.1279,10.1279,10.1279,10.1279,10.1279,10.1279,10.1279,10.1279,10.1279,10.1279,10.1279,10.1279,10.1279,10.1279,10.1279,10.1279,10.1279,10.1279,0.0,0.0,0.0,0.0,0.0,0.0,0.0,0.0,0.0,0.0,0.0,0.0,0.0,0.0,0.0,0.0,0.0,0.0,8.3192,8.4846,8.6192,8.7272,8.9401,9.0663,9.0855,9.171,9.2287,9.2518,9.3133,9.3557,9.3787,9.4403,9.4788,9.4941,9.4134,9.3787,9.371,9.2633,9.1787,9.1124,9.047,8.9479,8.8286,8.7632,8.7017,8.6363,8.594,8.6324,8.6978,8.6324,8.794,9.0517,9.221,9.4788,9.7403,9.8481,9.9827,10.1019,10.1202,10.1789,10.2289,10.252,10.3482,10.4482,10.4713,10.5482,10.6097,10.6097,10.6203,10.6395,10.6395,10.6395,10.6395,10.6395,10.6395,10.6395,10.6395,10.6395,10.6395,10.6395,10.6395,10.6395,10.6395,10.6395,10.6395,10.6395,10.6395,10.6395,10.6395,10.4982,10.4097,10.3905,10.2404,10.151,10.1279,10.1279,10.1279,10.1279,10.1279,10.1279,10.1279,10.1279,10.1279,10.1279,10.1279,10.1279,10.1279,10.1279,10.1279,10.1279,10.1279,10.1279,10.1279,10.1279,10.1279,10.1279,0.0,0.0,0.0,0.0,0.0,0.0,0.0,0.0,0.0,0.0,0.0,0.0,0.0,0.0,0.0,0.0,0.0,0.0,0.0,8.3466,8.4288,8.5174,8.716,8.8239,8.8239,8.9479,9.0094,9.0094,9.0594,9.1018,9.1364,9.1825,9.2249,9.2556,9.1748,9.1364,9.1287,9.0441,8.9825,0.0,0.0,8.8248,8.7363,8.6978,8.6517,8.6094,8.6094,8.6901,8.8017,8.8248,8.9863,9.2133,9.4172,9.6326,9.825,9.9096,10.0289,10.1394,10.1789,10.2212,10.2789,10.3482,10.4405,10.5107,10.5107,10.5482,10.5713,10.5405,10.529,10.5405,10.579,10.579,10.602,10.628,10.6395,10.6395,10.6395,10.6395,10.6395,10.6395,10.6395,10.6395,10.6395,10.6097,10.579,10.579,10.579,10.579,10.579,10.4597,10.3712,10.3289,10.2404,10.1712,10.1279,10.1279,10.1279,10.1279,10.1279,10.1279,10.1279,10.1279,10.1279,10.1279,0.0,10.1279,10.1279,10.1279,10.1279,10.1279,10.1279,10.1279,10.1279,10.1279,10.1279,10.1279,0.0,0.0,0.0,0.0,0.0,0.0,0.0,0.0,0.0,0.0,0.0,7.3324,7.4906,7.5176,0.0,0.0,0.0,0.0,0.0,0.0,8.2755,8.3487,8.498,8.5824,8.594,8.7401,8.8256,8.8372,8.8372,8.8709,8.9393,8.9509,8.997,9.0671,8.9893,8.9586,8.9509,8.8709,8.8372,8.8295,8.7517,8.7209,8.7132,0.0,8.6094,8.6132,8.6363,8.7478,8.9141,9.0941,9.2018,9.3095,9.5518,9.7442,9.8981,9.9837,10.0789,10.1587,10.2404,10.2789,10.3289,10.4713,10.5223,10.5213,10.5097,10.5107,10.4915,10.4097,10.3905,10.4097,10.4789,10.4905,10.5213,10.5895,10.6097,10.6097,10.6097,10.6213,10.6203,10.6203,10.628,10.6405,10.6203,10.5482,10.5107,10.4905,10.4789,10.4789,10.4905,10.4212,10.3289,10.252,10.2404,10.2097,10.1279,10.1279,10.1279,10.1279,10.1279,10.1279,10.1279,10.1279,10.1279,10.1279,10.1279,10.1279,10.1279,10.1279,10.1279,10.1279,10.1279,10.1279,10.1279,10.1279,10.1279,10.1279,0.0,0.0,0.0,0.0,0.0,0.0,0.0,0.0,0.0,0.0,7.4714,7.4749,0.0,0.0,0.0,0.0,0.0,0.0,0.0,0.0,0.0,8.2601,8.3525,8.4362,8.5085,8.5401,8.5901,8.6555,8.6555,8.6632,8.6786,8.7517,8.7902,8.8055,8.7902,8.7825,8.7786,8.6901,8.6555,8.6555,8.6401,8.6324,8.6324,8.617,8.6094,0.0,8.7709,8.8863,9.0047,9.2441,9.3364,9.3826,9.5711,9.7442,9.8981,9.9837,10.1212,10.2404,10.2597,10.3597,10.4713,10.4982,10.5597,10.602,10.529,10.5107,10.4915,10.4097,10.3905,10.3905,10.4097,10.4097,10.4212,10.4289,10.4289,10.4289,10.4289,10.4905,10.529,10.529,10.602,10.6097,10.5405,10.5223,10.4789,10.4222,10.3405,10.3289,10.4097,10.3289,10.2404,10.1597,10.151,10.152,10.1279,10.1279,10.1279,10.1279,10.1279,10.1279,10.1279,10.1279,10.1279,10.1279,10.1279,0.0,10.1279,10.1279,10.1279,10.1279,10.1279,10.1279,10.1279,10.1279,10.1279,10.1279,0.0,0.0,0.0,0.0,0.0,0.0,0.0,7.1838,7.3672,7.5714,7.6429,7.6874,7.7304,7.7728,7.8512,0.0,0.0,0.0,0.0,0.0,0.0,8.1732,8.2501,8.3324,8.4209,8.467,8.5277,8.6094,0.0,8.6094,8.6094,8.6517,8.6709,8.6709,8.6709,8.6709,8.6709,8.6286,8.6094,8.6094,8.6094,8.6094,8.6094,8.6094,8.6363,0.0,8.8709,8.9547,9.0278,9.2826,9.371,9.4172,9.6788,9.8134,9.9058,10.0289,10.1597,10.2712,10.3212,10.4212,10.5213,10.5713,10.6097,10.6097,10.4789,10.4482,10.4097,10.2789,10.252,10.2712,10.3097,10.3212,10.3405,10.3789,10.3905,10.3905,10.3905,10.4597,10.5107,10.5107,10.5905,10.6097,10.5223,10.4713,10.4097,10.3289,10.2404,10.2289,10.3212,10.2404,10.1702,10.1279,10.1279,10.1279,10.1279,10.1279,10.1279,10.1279,10.1279,10.1279,10.1279,10.1279,10.1279,10.1279,10.1279,0.0,10.1279,10.1279,10.1279,10.1279,10.1279,10.1279,10.1279,10.1279,10.1279,10.1279,0.0,0.0,0.0,0.0,0.0,0.0,0.0,7.3291,7.5208,7.639,7.7838,7.8869,7.9023,7.8907,7.9131,0.0,0.0,0.0,0.0,0.0,0.0,0.0,8.1862,8.2716,8.3563,0.0,0.0,8.6094,8.594,0.0,0.0,0.0,0.0,0.0,8.6017,8.6094,8.6094,8.6094,8.6094,0.0,0.0,8.6209,8.6401,0.0,0.0,0.0,0.0,9.0009,9.0509,9.271,9.3557,9.421,9.7288,9.8519,9.9135,10.0789,10.201,10.302,10.3712,10.4597,10.5482,10.6203,10.6395,10.602,10.4289,10.3905,10.3405,10.1712,10.1279,10.151,10.2212,10.2289,10.252,10.3212,10.3289,10.3289,10.3289,10.4212,10.4789,10.4789,10.5597,10.579,10.4905,10.4097,10.3289,10.2404,10.1712,10.1587,10.2289,10.1712,10.1279,10.1279,10.1279,10.1279,10.1279,10.1279,10.1279,10.1279,10.1279,10.1279,10.1279,10.1279,10.1279,10.1279,10.1279,0.0,0.0,10.1279,10.1279,10.1279,10.1279,10.1279,10.1279,10.1279,10.1279,10.1279,0.0,0.0,0.0,0.0,0.0,0.0,0.0,7.3736,7.5653,7.8041,7.913,7.9977,8.0785,8.0169,8.0015,0.0,0.0,0.0,0.0,0.0,0.0,0.0,0.0,0.0,0.0,0.0,0.0,8.6094,8.5354,0.0,0.0,0.0,0.0,0.0,0.0,8.6094,8.6094,8.6094,0.0,0.0,0.0,0.0,0.0,0.0,0.0,0.0,0.0,9.0393,9.1248,9.2249,9.3095,9.4018,9.5942,9.7557,9.9135,10.0789,10.252,10.3789,10.3905,10.5097,10.628,10.6395,10.6395,10.602,10.4289,10.3905,10.3405,10.1712,10.1279,10.1279,10.1394,10.1394,10.1394,10.151,10.151,10.151,10.151,10.2981,10.3982,10.3982,10.4713,10.4905,10.4097,10.3212,10.2404,10.151,10.1279,10.1279,10.1394,10.1279,10.1279,10.1279,10.1279,10.1279,10.1279,10.1279,10.1279,10.1279,10.1279,10.1279,10.1279,10.1279,10.1279,10.1279,10.1279,0.0,0.0,10.1279,10.1279,10.1279,10.1279,10.1279,10.1279,10.1279,10.1279,10.1279,0.0,0.0,0.0,0.0,0.0,0.0,7.2925,7.4738,7.6476,7.8395,7.9827,8.0762,8.1062,8.0785,8.0708,8.1054,0.0,0.0,0.0,0.0,0.0,0.0,0.0,0.0,0.0,0.0,8.6055,8.6863,8.7094,0.0,0.0,0.0,0.0,0.0,0.0,8.6094,8.6094,8.6094,0.0,0.0,0.0,0.0,0.0,0.0,0.0,0.0,0.0,0.0,9.1325,9.221,9.271,9.3364,9.5595,9.6749,9.7711,9.9942,10.1789,10.3212,10.3789,10.4713,10.5713,10.629,10.602,10.529,10.4212,10.3482,10.2789,10.1597,10.1279,10.1279,10.1279,10.1279,10.1279,10.1279,10.1279,10.1279,10.1279,10.2789,10.3905,10.3905,10.4597,10.4789,10.3982,10.3097,10.2212,10.1394,10.1279,10.1279,10.1279,10.1279,10.1279,10.1279,10.1279,10.1279,10.1279,10.1279,10.1279,10.1279,10.1279,10.1597,10.2097,10.151,10.1597,10.2097,10.151,0.0,0.0,10.1279,10.1279,10.1279,10.1279,10.1279,10.1279,10.1279,10.1279,10.1279,0.0,0.0,0.0,0.0,0.0,7.0188,7.3531,7.5186,7.6713,7.8535,8.0025,8.0935,8.11,8.1131,8.1239,8.1439,8.1246,0.0,0.0,0.0,0.0,0.0,0.0,0.0,0.0,0.0,8.6786,8.7401,8.8256,8.8718,0.0,0.0,8.7632,8.7363,0.0,0.0,0.0,0.0,0.0,0.0,0.0,0.0,0.0,0.0,0.0,0.0,0.0,0.0,0.0,0.0,0.0,9.2826,9.4595,9.5711,9.6788,9.9336,10.1096,10.2404,10.3289,10.4097,10.4905,10.552,10.5213,10.4482,10.3712,10.302,10.2404,10.151,10.1279,10.1279,10.1279,10.1279,10.1279,10.1279,10.1279,10.1394,10.1587,10.2981,10.3905,10.3905,10.4405,10.4405,10.3597,10.2712,10.202,10.1279,10.1279,10.1279,10.1279,10.1279,10.1279,10.1279,10.1279,10.1279,10.1279,10.1279,10.1279,10.1279,10.1597,10.202,10.2597,10.2212,10.2404,10.2904,10.2097,0.0,0.0,10.1394,10.1279,10.1279,10.1279,10.1279,10.1279,10.1279,10.1279,10.1279,0.0,0.0,0.0,0.0,0.0,0.0,7.3706,7.4787,7.6105,7.8651,7.9661,8.0375,8.1113,8.1214,8.1485,8.2216,8.1554,0.0,0.0,0.0,0.0,0.0,0.0,0.0,0.0,0.0,8.7401,8.7401,8.8256,8.8718,8.8718,8.8679,8.8218,8.7401,0.0,0.0,0.0,0.0,0.0,0.0,0.0,0.0,8.997,0.0,0.0,0.0,0.0,0.0,0.0,0.0,0.0,0.0,0.0,9.4287,9.6788,9.9336,10.0712,10.151,10.2404,10.3212,10.3905,10.3905,10.3905,10.3712,10.2789,10.2597,10.2404,10.151,10.1279,10.1279,10.1279,10.1279,10.1279,10.1279,10.1279,10.1587,10.252,10.3289,10.3905,10.3905,10.3905,10.3597,10.2712,10.1779,10.1279,10.1279,10.1279,10.1279,10.1279,10.1279,10.1279,10.1279,10.1279,10.1279,10.1279,10.1279,10.1279,10.1279,10.2212,10.2597,10.2597,10.3482,10.3905,10.3789,0.0,0.0,0.0,10.1712,10.1279,10.1279,10.1279,10.1279,10.1279,10.1279,10.1279,10.1279,0.0,0.0,0.0,0.0,0.0,0.0,0.0,7.4933,7.6298,7.882,7.9792,8.0518,8.1263,8.1824,8.2222,8.2378,8.2086,0.0,0.0,0.0,0.0,0.0,0.0,0.0,0.0,8.7709,8.8863,9.0017,9.0864,9.1595,9.2104,9.0941,9.0248,8.994,8.8786,8.8141,0.0,0.0,0.0,0.0,0.0,9.0778,9.0816,0.0,0.0,0.0,0.0,0.0,0.0,0.0,0.0,0.0,0.0,0.0,0.0,9.6749,9.8904,10.0712,10.152,10.2289,10.3212,10.3789,10.3482,10.2904,10.2712,10.2097,10.1587,10.1394,10.1279,10.1279,10.1279,10.1279,10.1279,10.1279,10.1279,10.1587,10.252,10.3405,10.3905,10.3905,10.3405,10.2712,10.1779,10.152,10.1279,10.1279,10.1279,10.1279,10.1279,10.1279,10.1279,10.1279,10.1279,10.1279,10.1279,10.1279,10.1587,10.2212,10.252,10.3212,10.4289,10.3982,10.4212,0.0,0.0,0.0,0.0,10.2289,10.1779,10.1279,10.1279,10.1279,10.1279,10.1279,10.1279,10.1279,0.0,0.0,0.0,0.0,0.0,0.0,0.0,7.4803,7.6084,7.8906,7.966,8.0318,8.138,8.2187,8.2764,8.2967,8.3172,0.0,0.0,0.0,0.0,0.0,0.0,0.0,8.7363,8.8863,9.0133,9.121,9.2364,9.321,9.3672,9.2633,9.1825,9.1171,9.0094,8.9286,0.0,0.0,0.0,0.0,9.0855,9.121,9.121,0.0,0.0,0.0,0.0,0.0,0.0,0.0,0.0,0.0,0.0,0.0,0.0,0.0,9.6673,9.8904,10.0019,10.0981,10.1789,10.2289,10.2289,10.2097,10.2097,10.1712,10.1279,10.1279,10.1279,10.1279,10.1279,10.1279,10.1279,10.1279,10.1597,10.2097,10.2981,10.3789,10.4212,10.3905,10.2789,10.1904,10.1394,10.1279,10.1279,10.1279,10.1279,10.1279,10.1279,10.1279,10.1279,10.1279,10.1279,10.1279,10.1279,10.1279,10.1702,10.2597,10.2904,10.3789,10.5107,10.4905,10.5097,0.0,0.0,0.0,0.0,10.2904,10.2289,10.1789,10.1394,10.1279,10.1279,10.1712,10.1779,10.1779,0.0,0.0,0.0,0.0,0.0,0.0,0.0,7.4446,7.5591,7.8864,7.9299,7.9856,8.138,8.235,8.3191,8.3861,0.0,0.0,0.0,0.0,0.0,0.0,0.0,0.0,8.7594,8.9979,9.1287,9.1479,9.3095,9.3864,9.3864,9.3864,9.3018,9.1479,9.1364,9.0402,0.0,0.0,0.0,0.0,9.0855,9.121,0.0,0.0,0.0,0.0,0.0,0.0,0.0,0.0,0.0,0.0,0.0,0.0,0.0,0.0,0.0,0.0,0.0,9.9298,10.0106,10.0106,10.0712,10.1279,10.1279,10.1279,0.0,10.1279,10.1279,10.1279,10.1279,10.1279,10.1279,10.1394,10.2097,10.2904,10.3915,10.4597,10.4789,10.3982,10.2404,10.1394,10.1279,10.1279,10.1279,10.1279,10.1279,10.1279,10.1279,10.1279,10.1279,10.1279,10.1279,10.1279,10.1279,10.1279,10.1789,10.2712,10.3482,10.4405,10.5213,10.602,10.6395,0.0,0.0,0.0,0.0,10.3405,10.2712,10.2597,10.1779,10.151,10.1597,10.2404,10.2712,10.2789,0.0,0.0,0.0,0.0,0.0,0.0,0.0,0.0,0.0,0.0,7.9013,7.9766,8.072,8.2683,8.3995,0.0,0.0,0.0,0.0,0.0,0.0,0.0,0.0,0.0,8.9278,9.0556,9.2133,9.4104,9.5172,9.5672,9.5672,9.5672,9.5134,9.4066,9.2749,9.1595,0.0,0.0,0.0,0.0,9.1133,9.121,0.0,0.0,0.0,0.0,9.121,9.121,0.0,0.0,0.0,0.0,0.0,0.0,0.0,0.0,9.3364,9.4518,9.5605,0.0,10.0106,10.0106,10.0712,10.1279,0.0,10.1279,10.1279,10.1279,10.1279,10.1279,10.1279,10.1279,10.151,10.2212,10.252,10.3097,10.4597,10.4992,10.4789,10.3982,10.2904,10.202,10.1394,10.1279,10.1279,10.1279,10.1279,10.1279,10.1279,10.1279,10.1279,10.1279,10.1279,10.1279,10.1279,10.1279,10.2097,10.3597,10.3789,10.4713,10.6097,10.628,10.6395,0.0,0.0,0.0,10.5107,10.4723,10.4097,10.3597,10.3405,10.3289,10.3289,10.3482,10.3597,10.3597,0.0,0.0,0.0,0.0,0.0,0.0,0.0,0.0,0.0,0.0,0.0,0.0,0.0,0.0,0.0,0.0,0.0,0.0,0.0,0.0,0.0,0.0,0.0,8.9272,9.0539,9.1771,9.3486,9.5595,9.6442,9.7057,9.7442,9.7057,9.6403,9.5518,9.3441,9.2018,0.0,0.0,0.0,9.121,9.121,0.0,0.0,0.0,0.0,0.0,9.121,9.121,0.0,9.121,9.121,9.121,0.0,0.0,0.0,0.0,9.2749,9.3787,9.4296,9.6913,9.949,9.949,10.0404,10.1279,10.1279,10.1279,10.1279,10.1279,10.1279,10.1279,10.1279,10.1587,10.2097,10.252,10.3212,10.4212,10.5482,10.5405,10.4789,10.3982,10.3097,10.2289,10.1394,10.1279,10.1279,10.1279,10.1279,10.1279,10.1279,10.1279,10.1279,10.1279,10.1279,10.1279,10.1279,10.1279,10.2212,10.3905,10.3905,10.4789,10.6395,10.6395,10.6395,0.0,0.0,0.0,10.5713,10.529,10.4789,10.4405,10.3982,10.3905,10.3905,10.4289,10.4492,10.4482,0.0,0.0,0.0,0.0,0.0,0.0,0.0,0.0,0.0,0.0,0.0,0.0,0.0,0.0,0.0,0.0,0.0,0.0,0.0,0.0,0.0,0.0,8.9454,9.0628,9.1504,9.3123,9.4767,9.6499,9.7307,9.8076,9.8788,9.8057,9.7057,9.5826,9.3633,9.2133,9.121,0.0,9.121,9.121,9.121,0.0,0.0,0.0,0.0,0.0,0.0,0.0,0.0,9.121,9.121,9.121,9.121,0.0,0.0,0.0,0.0,0.0,9.371,9.6211,9.8788,9.8788,10.0096,10.1279,10.1279,10.1279,10.1279,10.1279,10.1394,10.151,10.151,10.2212,10.2789,10.2981,10.4289,10.5597,10.628,10.579,10.4992,10.3982,10.3212,10.2404,10.1394,10.1279,10.1279,10.1279,10.1279,10.1279,10.1279,10.1279,10.1279,10.1279,10.1394,10.151,10.151,10.151,10.2289,10.3905,10.3982,10.4905,10.6395,10.6395,10.6395,10.6395,0.0,0.0,10.628,10.5597,10.529,10.5213,10.4482,10.4289,10.4405,10.4982,10.529,10.5405,0.0,0.0,0.0,0.0,0.0,0.0,0.0,0.0,0.0,0.0,0.0,0.0,0.0,0.0,0.0,0.0,0.0,0.0,0.0,0.0,0.0,9.0286,9.0346,9.1064,9.2527,9.3562,9.5181,9.7484,9.8293,9.8719,9.8788,9.8673,9.698,9.4095,9.3672,9.2633,9.121,9.121,9.121,9.121,9.121,0.0,0.0,0.0,0.0,0.0,0.0,0.0,0.0,9.121,9.121,9.121,9.121,0.0,0.0,0.0,0.0,0.0,9.371,9.6211,9.8788,9.8788,10.0096,10.1279,10.1279,10.1279,10.1279,10.1279,10.1904,10.2404,10.2404,10.3097,10.3905,10.4597,10.5597,10.6203,10.6395,10.629,10.5597,10.4097,10.3789,10.3097,10.152,10.1279,10.1279,10.1279,10.1279,10.1279,10.1279,10.1279,10.1279,10.1279,10.202,10.2404,10.2404,10.2404,10.2904,10.3905,10.4597,10.5405,10.6395,10.6395,10.6395,10.6395,0.0,10.6395,10.6395,10.629,10.6213,10.6213,10.6097,10.602,10.601,10.6213,10.6213,10.6203,0.0,0.0,0.0,0.0,0.0,0.0,0.0,0.0,0.0,0.0,0.0,0.0,0.0,0.0,0.0,0.0,0.0,0.0,0.0,8.9457,9.0254,9.1538,9.1928,9.2625,9.3643,9.4484,9.6089,9.8507,9.9251,9.9834,10.0211,9.924,9.7211,9.4364,9.3903,9.2787,9.1248,9.171,9.1902,9.1902,0.0,0.0,0.0,0.0,0.0,0.0,0.0,0.0,0.0,0.0,9.121,9.121,9.121,0.0,0.0,0.0,0.0,0.0,9.371,9.6211,9.8788,9.8788,10.0096,10.1279,10.1279,10.1712,10.202,10.202,10.2712,10.3289,10.3289,10.3982,10.4789,10.5713,10.6087,10.6395,10.6395,10.6395,10.579,10.4097,10.3905,10.3212,10.151,10.1279,10.1279,10.1279,10.1279,10.1279,10.1279,10.1702,10.202,10.202,10.2789,10.3289,10.3289,10.3712,10.4212,10.4607,10.4905,10.5597,10.6395,10.6395,10.6395,10.6395,0.0,10.6395,10.6395,10.6395,10.6395,10.6395,10.6395,10.6395,10.6395,10.6395,10.6395,10.6395,0.0,0.0,0.0,0.0,0.0,0.0,0.0,0.0,0.0,0.0,0.0,0.0,0.0,0.0,0.0,0.0,0.0,0.0,0.0,8.9703,9.0505,9.1987,9.305,9.3873,9.4467,9.5461,9.7053,9.9259,10.0209,10.0888,10.1518,9.9644,9.7557,9.5278,9.4403,9.3172,9.1825,9.2479,9.2787,9.2749,0.0,0.0,0.0,0.0,0.0,0.0,0.0,0.0,0.0,0.0,0.0,0.0,0.0,0.0,0.0,9.1518,9.2672,9.398,9.398,9.6336,9.8788,9.8788,10.0096,10.1394,10.1597,10.2097,10.2712,10.2904,10.3597,10.4212,10.4212,10.4905,10.5597,10.629,10.6395,10.6395,10.6395,10.6395,10.579,10.4097,10.3905,10.3289,10.1789,10.1587,10.1587,10.1587,10.1779,10.1779,10.1587,10.2404,10.2904,10.2904,10.3712,10.4212,10.4212,10.4982,10.529,10.5107,10.529,10.579,10.6395,10.6395,10.6395,10.6395,10.6395,10.6395,10.6395,10.6395,10.6395,10.6395,10.6395,10.6395,10.6395,10.6395,10.6395,10.6395,0.0,0.0,0.0,0.0,0.0,0.0,0.0,0.0,0.0,0.0,0.0,0.0,0.0,0.0,0.0,0.0,0.0,0.0,0.0,8.9442,9.03,9.1234,9.2833,9.4017,9.4659,9.6265,9.7849,9.9492,10.1014,10.1705,10.1489,9.9653,9.7865,9.6172,9.5288,9.4412,9.3518,9.3595,9.3595,9.3557,9.2787,0.0,0.0,0.0,0.0,0.0,0.0,0.0,0.0,0.0,0.0,0.0,0.0,0.0,9.2402,9.2402,9.3595,9.4912,9.4912,9.6797,9.8788,9.8788,10.0096,10.151,10.2289,10.2597,10.2789,10.3597,10.4492,10.4982,10.4982,10.5713,10.628,10.6395,10.6395,10.6395,10.6395,10.6395,10.579,10.4097,10.3905,10.3482,10.2597,10.252,10.252,10.252,10.3289,10.3405,10.252,10.3289,10.3789,10.3789,10.4597,10.4982,10.4982,10.5905,10.5905,10.5107,10.5905,10.628,10.6395,10.6395,10.6395,10.6395,10.6395,10.6395,10.6395,10.6395,10.6395,10.6395,10.6395,10.6395,10.6395,10.6395,10.6395,10.6395,0.0,0.0,0.0,0.0,0.0,0.0,0.0,0.0,0.0,0.0,0.0,0.0,0.0,0.0,0.0,0.0,0.0,0.0,8.8595,8.9493,9.0352,9.121,9.2873,9.4134,9.4943,9.7,9.8637,9.9763,10.1218,10.1788,10.1581,9.9826,9.8356,9.7161,9.5812,9.466,9.3876,9.4338,9.4543,9.445,9.3595,9.3249,0.0,0.0,0.0,0.0,0.0,0.0,0.0,0.0,9.121,9.1287,9.1825,9.221,9.2595,9.3095,9.4066,9.4989,9.4989,9.6874,9.8788,9.8788,10.0481,10.2212,10.252,10.3405,10.4212,10.4607,10.529,10.5905,10.5905,10.6213,10.6395,10.6395,10.6395,10.6395,10.6395,10.5905,10.5213,10.3982,10.3405,10.2712,10.1904,10.2289,10.2597,10.2597,10.3405,10.3789,10.3405,10.4212,10.4597,10.4597,10.5482,10.5905,10.5905,10.6203,10.6203,10.5905,10.6203,10.6395,10.6395,10.6395,10.6395,10.6395,10.6395,10.6395,10.6395,10.6395,10.6395,10.6395,10.6395,10.6395,10.6395,10.6395,10.6395,10.6395,0.0,0.0,0.0,0.0,0.0,0.0,0.0,0.0,0.0,0.0,0.0,0.0,0.0,0.0,0.0,0.0,0.0,0.0,8.8266,8.9125,8.9984,9.0843,9.2509,9.3945,9.5076,9.7175,9.8841,9.9933,10.1284,10.2095,10.2191,10.0107,9.8852,9.8196,9.6497,9.5368,9.4784,9.5337,9.5345,9.4948,9.4075,9.3557,0.0,0.0,0.0,0.0,0.0,0.0,0.0,0.0,9.121,9.1364,9.221,9.2672,9.3018,9.3873,9.472,9.5489,9.572,9.7259,9.8865,9.9144,10.1096,10.2981,10.2981,10.4097,10.5223,10.5482,10.602,10.6395,10.6395,10.6395,10.6395,10.6395,10.6395,10.6395,10.6395,10.5597,10.4789,10.3982,10.3097,10.252,10.2212,10.2712,10.3097,10.3405,10.4212,10.4597,10.4289,10.5097,10.5482,10.5482,10.6097,10.6395,10.6395,10.6395,10.6395,10.6395,10.6395,10.6395,10.6395,10.6395,10.6395,10.6395,10.6395,10.6395,10.6395,10.6395,10.6395,10.6395,10.6395,10.6395,10.6395,10.6395,10.6395,10.6395,0.0,0.0,0.0,0.0,0.0,0.0,0.0,0.0,0.0,0.0,8.4284,0.0,0.0,0.0,0.0,0.0,0.0,0.0,8.7406,8.8227,8.9086,8.9947,9.1625,9.3304,9.5059,9.6755,9.8417,9.999,10.1495,10.2591,10.3209,10.0495,9.9297,9.922,9.7479,9.6668,9.6583,9.6534,9.594,9.5007,9.4063,9.321,9.2402,0.0,0.0,0.0,0.0,0.0,0.0,0.0,9.121,9.1364,9.221,9.3056,9.3864,9.4758,9.5634,9.648,9.7288,9.8134,9.9029,9.9875,10.1991,10.3905,10.3905,10.4482,10.5405,10.6203,10.6395,10.6395,10.6395,10.6395,10.6395,10.6395,10.6395,10.6395,10.6395,10.5597,10.4789,10.3982,10.3097,10.2904,10.3789,10.3905,10.4212,10.4982,10.5905,10.602,10.5184,10.5905,10.6395,10.6395,10.6395,10.6395,10.6395,10.6395,10.6395,10.6395,10.6395,10.6395,10.6395,10.6395,10.6395,10.6395,10.6395,10.6395,10.6395,10.6395,10.6395,10.6395,10.6395,10.6395,10.6395,10.6395,10.6395,10.6395,0.0,0.0,0.0,0.0,0.0,0.0,0.0,0.0,0.0,8.5143,8.5534,0.0,0.0,0.0,0.0,0.0,0.0,8.7406,8.7406,8.8227,8.9086,8.9947,9.1625,9.3304,9.5059,9.734,9.9002,9.999,10.1019,10.1305,10.0812,9.933,9.8672,9.8634,9.7476,9.6598,9.5969,9.5898,9.5285,9.4295,9.3337,9.2768,9.2451,0.0,0.0,0.0,0.0,0.0,0.0,0.0,0.0,0.0,9.221,9.3056,9.3864,9.4758,9.5634,9.648,9.7288,9.8134,9.9029,9.9875,10.1991,10.3905,10.3905,10.4982,10.6097,10.628,10.6395,10.6395,10.6395,10.6395,10.6395,10.6395,10.6395,10.6395,10.6395,10.5213,10.4222,10.3905,10.3097,10.2712,10.2981,10.4097,10.4789,10.5107,10.5905,10.629,10.602,10.629,10.6395,10.6395,10.6395,10.6395,10.6395,10.6395,10.6395,10.6395,10.6395,10.6395,10.6395,10.6395,10.6395,10.6395,10.6395,10.6395,10.6395,10.6395,10.6395,10.6395,10.6395,10.6395,10.6395,10.6395,10.6395,10.6395,0.0,0.0,0.0,0.0,0.0,0.0,8.2879,8.3308,8.3894,8.4948,8.5651,8.6314,0.0,0.0,0.0,8.7406,8.7406,8.7406,8.7406,8.7874,8.8735,8.9947,9.1311,9.3146,9.5567,9.7817,9.8953,9.904,10.0196,10.0492,9.989,9.8948,9.8535,9.8496,9.7621,9.6704,9.5794,9.5719,9.4884,9.3606,9.2944,9.247,9.2043,0.0,0.0,0.0,0.0,0.0,0.0,0.0,0.0,0.0,9.221,9.3056,9.3864,9.4758,9.5826,9.698,9.7788,9.8634,9.9529,10.0404,10.1981,10.3482,10.3789,10.4905,10.5905,10.5905,10.5597,10.5405,10.5405,10.5713,10.5905,10.5905,10.6213,10.629,10.5905,10.4713,10.3789,10.3405,10.2904,10.2712,10.3097,10.4289,10.5213,10.5597,10.6097,10.6395,10.6395,10.6395,10.6395,10.6395,10.6395,10.6395,10.6395,10.6395,10.6395,10.6395,10.6395,10.6395,10.6395,10.6395,10.6395,10.6395,10.6395,10.6395,10.6395,10.6395,10.6395,10.6395,10.6395,10.6395,10.6395,10.6395,10.6395,10.6395,0.0,0.0,8.1007,8.1007,0.0,8.2331,8.2409,8.3113,8.366,8.3738,8.5182,8.6197,0.0,0.0,0.0,8.7172,8.725,8.7289,8.7289,8.7367,8.8188,8.9908,9.1077,9.3185,9.6463,9.8063,9.8446,9.7604,9.9227,9.9934,9.9852,9.9003,9.8598,9.8559,9.7777,9.684,9.5888,9.5778,9.4619,9.2929,9.2784,9.221,9.1454,9.1439,0.0,0.0,0.0,0.0,0.0,0.0,0.0,0.0,9.2133,9.2941,9.3749,9.4643,9.6019,9.748,9.8519,9.9375,10.0221,10.1096,10.202,10.2789,10.3712,10.4405,10.4905,10.4992,10.4405,10.3905,10.3905,10.4482,10.4982,10.5107,10.5713,10.5905,10.5223,10.4289,10.3482,10.2712,10.2712,10.302,10.3789,10.4713,10.5482,10.628,10.6395,10.6395,10.6395,10.6395,10.6395,10.6395,10.6395,10.6395,10.6395,10.6395,10.6395,10.6395,10.6395,10.6395,10.6395,10.6395,10.6395,10.6395,10.6395,10.6395,10.6395,10.6395,10.6395,10.6395,10.6395,10.6395,10.6395,10.6395,10.6395,10.6395,0.0,0.0,8.1007,8.1007,0.0,0.0,8.3152,8.3972,8.4753,8.5456,8.6471,8.6859,8.6158,8.6275,0.0,8.5415,8.5963,8.6392,8.6392,8.7015,8.8188,8.9908,9.2756,9.5254,9.7362,9.7792,9.7868,9.7669,9.8653,9.8823,9.8135,9.7934,9.7853,9.7814,9.7652,9.6678,9.5132,9.5067,9.3969,9.226,9.2142,9.1965,9.1785,9.1675,9.1634,0.0,0.0,0.0,0.0,0.0,0.0,0.0,9.142,9.2056,9.2903,9.3758,9.472,9.6028,9.8211,9.8942,9.9442,10.0894,10.202,10.2789,10.3712,10.3482,10.3289,10.3982,10.3982,10.3905,10.3905,10.3982,10.4405,10.4992,10.4713,10.4597,10.4982,10.3789,10.2789,10.2597,10.3212,10.3712,10.3905,10.5213,10.6213,10.6395,10.6395,10.6395,10.6395,10.6395,10.6395,10.6395,10.6395,10.6395,10.6395,10.6395,10.6395,10.6395,10.6395,10.6395,10.6395,10.6395,10.6395,10.6395,10.6395,10.6395,10.6395,10.6395,10.6395,10.6395,10.6395,10.6395,10.6395,10.6395,10.6395,10.6395,0.0,0.0,0.0,0.0,0.0,0.0,0.0,0.0,8.4946,8.5416,8.6236,8.6588,8.6158,8.5729,0.0,0.0,8.522,8.5651,8.608,8.6549,8.7915,9.0492,9.3107,9.5098,9.6425,9.6464,9.666,9.7089,9.7507,9.7691,9.768,9.8068,9.8068,9.7678,9.8056,9.7021,9.5,9.491,9.3823,9.2134,9.2059,9.1993,9.1939,9.1876,9.1847,9.1841,9.1773,0.0,0.0,0.0,0.0,0.0,0.0,0.0,9.2627,9.305,9.4323,9.5903,9.725,9.8481,9.9712,10.1019,10.1587,10.2212,10.3097,10.2904,10.2789,10.3712,10.3597,10.3289,10.3289,10.3905,10.4482,10.4482,10.4482,10.4289,10.3982,10.3212,10.2404,10.202,10.3097,10.3905,10.3905,10.5405,10.6395,10.6395,10.6395,10.6395,10.6395,10.6395,10.6395,10.6395,10.6395,10.6395,10.6395,10.6395,10.6395,10.6395,10.6395,10.6395,10.6395,10.6395,10.6395,10.6395,10.6395,10.6395,10.6395,10.6395,10.6395,10.6395,10.6395,10.6395,10.6395,10.6395,10.6395,10.6395,0.0,0.0,0.0,0.0,0.0,0.0,0.0,0.0,0.0,8.4595,8.5338,8.5807,8.5651,8.5026,8.4517,0.0,0.0,0.0,8.5807,8.6314,8.7954,9.1155,9.2756,9.4044,9.5098,9.5098,9.5449,9.6191,9.6345,9.6855,9.7714,9.8572,9.869,9.8182,9.8672,9.7568,9.53,9.5098,9.3946,9.2242,9.2246,9.2187,9.2074,9.2064,9.2059,9.2054,9.2029,9.1961,9.1859,9.176,0.0,0.0,0.0,0.0,9.2429,9.2566,9.4086,9.5756,9.62,9.8192,10.0298,10.1096,10.1394,10.1712,10.2404,10.2712,10.302,10.3789,10.3289,10.2789,10.2789,10.3982,10.4723,10.3982,10.4289,10.4212,10.2789,10.252,10.2097,10.1394,10.2789,10.3905,10.3905,10.5405,10.6395,10.6395,10.6395,10.6395,10.6395,10.6395,10.6395,10.6395,10.6395,10.6395,10.6395,10.6395,10.6395,10.6395,10.6395,10.6395,10.6395,10.6395,10.6395,10.6395,10.6395,10.6395,10.6395,10.6395,10.6395,10.6395,10.6395,10.6395,10.6395,10.6395,10.651,10.6587,0.0,0.0,0.0,0.0,0.0,0.0,0.0,0.0,0.0,0.0,8.4441,8.4675,8.3933,8.3738,8.3386,8.2682,8.3269,8.405,8.4907,0.0,0.0,9.1194,9.217,9.3458,9.5059,9.5098,9.5176,9.5254,9.6035,9.6855,9.7714,9.8572,9.9353,9.9939,9.9271,9.7971,9.6197,9.5412,9.4066,9.2474,9.2471,9.2462,9.2414,9.238,9.2366,9.2317,9.2208,9.2155,9.2118,9.187,9.1779,0.0,0.0,0.0,9.1778,9.248,9.291,9.3657,9.5807,9.82,10.0298,10.1096,10.1904,10.252,10.2597,10.3212,10.3789,10.3905,10.3789,10.3712,10.3712,10.3905,10.3982,10.3905,10.3405,10.2904,10.2597,10.1894,10.1394,10.1279,10.2789,10.3905,10.3905,10.5405,10.6395,10.6395,10.6395,10.6395,10.6395,10.6395,10.6395,10.6395,10.6395,10.6395,10.6395,10.6395,10.6395,10.6395,10.6395,10.6395,10.6395,10.6395,10.6395,10.6395,10.6395,10.6395,10.6395,10.6395,10.6395,10.6395,10.6395,10.6395,10.6395,10.6395,10.6905,10.7521,0.0,0.0,0.0,0.0,0.0,0.0,0.0,0.0,0.0,0.0,0.0,8.3933,8.3543,8.3113,8.2684,8.2331,8.2606,8.3386,8.4712,8.6781,8.854,8.9789,9.0648,9.1469,9.2211,9.2717,9.3185,9.3655,9.502,9.6621,9.8455,9.9783,10.0407,10.029,10.0915,9.9621,9.7075,9.6217,9.4838,9.3215,9.3215,9.3208,9.3231,9.3686,9.3563,9.3128,9.3046,9.2742,9.2277,9.2134,9.1748,9.1283,9.1104,0.0,0.0,0.0,9.1693,9.2666,9.5611,9.7552,9.9047,10.0308,10.1289,10.2097,10.3097,10.3597,10.4212,10.5097,10.529,10.5213,10.4723,10.4607,10.4405,10.3982,10.3212,10.2404,10.1894,10.151,10.151,10.202,10.3097,10.4097,10.4482,10.5713,10.6395,10.6395,10.6395,10.6395,10.6395,10.6395,10.6395,10.6395,10.6395,10.6395,10.6395,10.6395,10.6395,10.6395,10.6395,10.6395,10.6395,10.6395,10.6395,10.6395,10.6395,10.6395,10.6395,10.6395,10.6395,10.6395,10.6395,10.6395,10.651,10.6895,10.7405,10.779,0.0,0.0,0.0,0.0,0.0,0.0,0.0,0.0,0.0,0.0,0.0,8.3191,8.3191,0.0,0.0,0.0,8.2292,8.2995,8.4673,8.6235,8.7562,8.8657,8.932,8.9751,8.9986,9.0843,9.1585,9.2209,9.4161,9.6308,9.8727,10.0798,10.1618,10.1305,10.2281,10.111,9.8299,9.7206,9.5713,9.4138,9.4138,9.4244,9.4461,9.5127,9.4932,9.4383,9.4376,9.3697,9.2732,9.2692,9.2054,9.1244,9.1102,9.0452,0.0,0.0,0.0,9.2164,9.5032,9.6574,9.7754,9.9384,10.0616,10.1789,10.3482,10.4097,10.4597,10.6087,10.6395,10.6213,10.5597,10.5213,10.4789,10.3982,10.3212,10.2289,10.1394,10.1279,10.1587,10.252,10.3405,10.4212,10.4982,10.5905,10.6395,10.6395,10.6395,10.6395,10.6395,10.6395,10.6395,10.6395,10.6395,10.6395,10.6395,10.6395,10.6395,10.6395,10.6395,10.6395,10.6395,10.6395,10.6395,10.6395,10.6395,10.6395,10.6395,10.6395,10.6395,10.6395,10.6395,10.651,10.679,10.7482,10.7982,10.8406,0.0,0.0,0.0,0.0,0.0,0.0,8.4868,8.4011,0.0,0.0,0.0,8.237,8.237,8.2331,8.2292,8.2292,8.2292,8.2995,8.4673,8.5651,8.6939,8.8618,8.8735,0.0,8.9986,9.0843,9.1311,9.135,9.3888,9.6035,9.7831,10.1188,10.3218,10.3884,10.3101,10.1813,10.0095,9.8338,9.6621,9.502,9.502,9.5526,9.6265,9.6305,9.6305,9.6264,9.6243,9.518,9.3727,9.3635,9.3062,9.2298,9.2143,9.1485,9.0723,0.0,0.0,0.0,9.3763,9.5318,9.6886,9.8533,10.0086,10.1789,10.3482,10.4482,10.529,10.6203,10.6395,10.6395,10.628,10.5713,10.4789,10.3982,10.3212,10.2289,10.1394,10.1279,10.1587,10.252,10.3405,10.4212,10.4982,10.5905,10.6395,10.6395,10.6395,10.6395,10.6395,10.6395,10.6395,10.6395,10.6395,10.6395,10.6395,10.6395,10.6395,10.6395,10.6395,10.6395,10.6395,10.6395,10.6395,10.6395,10.6395,10.6395,10.6395,10.6395,10.6395,10.6395,10.6395,10.6895,10.7598,10.7713,10.8713,11.0109,0.0,0.0,0.0,0.0,0.0,0.0,8.5768,8.4909,8.4245,0.0,0.0,0.0,0.0,8.3074,8.2879,8.2331,8.2762,8.3543,8.4712,8.5612,8.6861,8.8618,8.8696,8.9125,8.9986,9.0843,9.1311,9.1311,9.3849,9.5996,9.7753,10.0603,10.2711,10.4118,10.4389,10.3491,10.1813,9.9509,9.8182,9.7558,9.6972,9.7636,9.8963,9.947,9.9656,9.9602,9.9048,9.7717,9.6151,9.5627,9.41,9.2451,9.2376,9.096,8.9305,8.9143,8.9997,9.1205,9.2275,9.4172,9.6056,9.7045,9.8939,10.0904,10.1991,10.3289,10.4597,10.5405,10.602,10.6395,10.6395,10.529,10.4212,10.3905,10.2712,10.1712,10.1279,10.1279,10.1779,10.3289,10.3712,10.4405,10.579,10.6203,10.6395,10.6395,10.6395,10.6395,10.6395,10.6395,10.6395,10.6395,10.6395,10.6395,10.6395,10.6395,10.6395,10.6395,10.6395,10.6395,10.6395,10.6395,10.6395,10.6395,10.6395,10.6395,10.6395,10.6395,10.6395,10.651,10.7021,10.7405,10.779,10.8906,10.9713,11.0291,0.0,9.0452,9.014,8.9281,0.0,8.7876,8.6705,8.6039,8.5454,8.4868,0.0,0.0,0.0,0.0,8.3738,8.319,8.3621,8.4323,8.5182,8.6041,8.7173,8.8657,8.8969,8.9398,8.9986,9.0843,9.1311,9.1311,9.3849,9.584,9.7323,9.99,10.2008,10.3687,10.4311,10.3882,10.2711,10.072,9.9666,9.9392,9.908,10.0017,10.1696,10.2515,10.3008,10.3102,10.2205,10.0792,9.9143,9.8053,9.6144,9.4108,9.3476,9.1249,8.8884,8.873,8.9198,9.0024,9.107,9.2764,9.4527,9.5792,9.7727,9.9718,10.1077,10.2703,10.4097,10.4905,10.579,10.6395,10.6395,10.502,10.3905,10.3905,10.2404,10.1279,10.1279,10.1279,10.1894,10.3712,10.3905,10.4597,10.6203,10.6395,10.6395,10.6395,10.6395,10.6395,10.6395,10.6395,10.6395,10.6395,10.6395,10.6395,10.6395,10.6395,10.6395,10.6395,10.6395,10.6395,10.6395,10.6395,10.6395,10.6395,10.6395,10.6395,10.6395,10.6395,10.6587,10.6895,10.7521,10.8021,10.8713,10.979,11.0406,11.0714,9.1546,9.1428,9.1155,9.0259,9.0103,8.9516,8.7796,8.7484,8.6859,8.5181,0.0,0.0,0.0,0.0,0.0,8.4907,8.4946,8.5298,8.6119,8.6976,8.7874,8.8774,8.9634,9.0103,9.0142,9.0999,9.1428,9.1428,9.3927,9.5567,9.6502,9.9041,10.111,10.2711,10.2711,10.2711,10.2711,10.1893,10.1112,10.0485,10.1307,10.2595,10.4313,10.5209,10.6014,10.6614,10.5717,10.4294,10.2587,10.091,9.9158,9.7397,9.5534,9.2593,8.975,8.9622,8.8969,8.8642,0.0,0.0,0.0,9.4842,9.6589,9.832,10.0901,10.2713,10.4107,10.4915,10.579,10.6405,10.6395,10.502,10.3905,10.3905,10.2404,10.1279,10.1279,10.1279,10.1894,10.3712,10.3905,10.4597,10.6203,10.6395,10.6395,10.6395,10.6395,10.6395,10.6395,10.6395,10.6395,10.6395,10.6395,10.6395,10.6395,10.6395,10.6395,10.6395,10.6395,10.6395,10.6395,10.6395,10.6395,10.6395,10.6395,10.651,10.651,10.6395,10.7021,10.7713,10.779,10.879,11.0224,11.0214,11.0791,11.1511,9.3966,9.4044,9.3771,9.2912,9.2248,9.1467,9.0374,8.9672,8.9125,0.0,0.0,0.0,8.8618,8.854,8.8305,8.7681,8.8188,8.8383,8.7993,8.8813,8.9945,9.1389,9.1664,9.2406,9.3655,9.3927,9.4044,9.4044,9.5371,9.6503,9.7362,9.8729,9.9939,10.0993,10.0993,10.1305,10.1815,10.1619,10.2088,10.3103,10.3298,10.478,10.7005,10.7903,10.8695,10.9198,10.8418,10.7382,10.6098,10.4385,10.2296,9.962,9.5381,9.2905,9.1319,9.0049,8.993,9.0313,9.0728,0.0,0.0,0.0,0.0,0.0,9.9339,10.0983,10.2604,10.3993,10.4985,10.5803,10.63,10.502,10.3905,10.3905,10.2404,10.1279,10.1279,10.1279,10.1894,10.3712,10.3905,10.4597,10.6203,10.6395,10.6395,10.6395,10.6395,10.6395,10.6395,10.6395,10.6395,10.6395,10.6395,10.6395,10.6395,10.6395,10.6395,10.6395,10.6395,10.6395,10.6395,10.6395,10.6703,10.729,10.729,10.7713,10.8213,10.7598,10.779,10.8598,10.929,10.979,11.0291,11.0906,11.1291,11.1511,9.4981,9.5098,9.4942,9.4434,9.3927,9.3302,9.2482,9.1897,9.1585,0.0,0.0,0.0,9.2133,9.2133,9.178,9.0882,9.1272,9.1233,9.0335,9.1116,9.2014,9.299,9.338,9.4044,9.5098,9.5098,9.5098,9.5098,9.5957,9.666,9.7167,9.8065,9.8924,9.9744,9.9744,10.0407,10.1502,10.1502,10.2517,10.4196,10.4899,10.6693,10.9191,11.0401,11.162,11.2502,11.1604,11.0713,10.9682,10.7913,10.488,10.1196,9.7103,9.4694,9.3102,9.1778,9.1202,9.1162,9.1836,9.2395,9.3159,9.4619,0.0,0.0,9.8917,10.0706,10.2383,10.3412,10.4203,10.4917,10.539,10.4301,10.3512,10.3897,10.2819,10.1712,10.1394,10.1587,10.2404,10.3712,10.4212,10.4905,10.629,10.6395,10.6395,10.6395,10.6395,10.6395,10.6395,10.6395,10.6395,10.6395,10.6395,10.6395,10.6395,10.6395,10.6395,10.6395,10.6395,10.6587,10.6895,10.6895,10.7405,10.8213,10.8213,10.8713,10.9406,10.8906,10.8983,10.9483,10.9983,11.0406,11.0791,11.128,11.1511,11.1511,0.0,9.5606,9.5684,9.5684,9.5606,9.5254,9.4512,9.4317,9.4278,0.0,9.463,9.5098,9.5879,9.6035,9.5684,9.463,9.4512,9.4083,9.299,9.3654,9.4083,9.4083,9.4903,9.541,9.5527,9.5645,9.5645,9.5527,9.6308,9.6658,9.6541,9.7323,9.8182,9.9,9.9,9.9939,10.1502,10.1619,10.2713,10.4508,10.6185,10.841,11.0789,11.2704,11.4391,11.558,11.4881,11.4009,11.2988,11.1111,10.7081,10.2612,10.0083,9.757,9.5318,9.4499,9.2997,9.1922,9.3473,9.322,9.3104,9.5493,9.7175,0.0,9.9295,10.1208,10.2798,10.289,10.3481,10.4013,10.4111,10.3383,10.301,10.3906,10.3214,10.2414,10.1712,10.2289,10.3097,10.3905,10.4723,10.5405,10.628,10.6395,10.6395,10.6395,10.6395,10.6395,10.6395,10.6395,10.6395,10.6395,10.6395,10.6395,10.6395,10.6395,10.6395,10.6395,10.651,10.7021,10.7713,10.779,10.829,10.8983,10.8983,10.9483,11.0291,11.0291,11.0291,11.0291,11.0291,11.0791,11.1511,11.1511,11.1511,11.1511,9.8104,9.8807,9.9275,9.9275,9.8729,9.818,9.8024,9.7401,9.7206,9.7907,9.9783,10.111,10.1305,10.1891,10.1383,9.9236,9.9041,9.8065,9.5801,9.5799,9.5877,9.5877,9.6738,9.7518,9.8219,9.8924,9.8924,9.8258,9.8414,9.8143,9.744,9.7636,9.8182,9.9,9.9,9.9939,10.1502,10.2203,10.3999,10.6302,10.7317,10.9308,11.1807,11.4307,11.5796,11.6598,11.6481,11.6216,11.5507,11.2298,10.8688,10.5295,10.3395,10.1088,9.8938,9.8042,9.6618,9.5349,9.57,9.559,9.5662,9.6819,9.7786,0.0,10.0302,10.0994,10.1683,10.2895,10.329,10.3483,10.4117,10.3495,10.3202,10.3896,10.331,10.2809,10.3299,10.3482,10.3905,10.4789,10.4992,10.5405,10.628,10.6395,10.6395,10.6395,10.6395,10.6395,10.6395,10.6395,10.6395,10.6395,10.6395,10.6395,10.6395,10.6395,10.6395,10.6395,10.7098,10.7521,10.7713,10.8406,10.9098,10.9906,10.9906,11.0406,11.1203,11.1203,11.1203,11.1203,11.1203,11.1406,11.1511,11.1511,11.1511,11.1511,9.9548,10.0017,10.029,10.029,9.9939,9.9666,9.9666,9.9627,10.0095,10.1383,10.4194,10.599,10.599,10.638,10.5795,10.3687,10.3101,10.1696,9.9119,9.8924,9.8768,9.8377,9.8768,9.9197,9.9627,10.0095,10.0095,9.9666,9.9195,9.8766,9.8338,9.8338,9.8572,9.9,9.9431,10.029,10.1619,10.2398,10.4311,10.681,10.8605,11.1104,11.3993,11.6101,11.7708,11.8782,11.8782,11.8184,11.6779,11.3206,11.0609,10.8493,10.6415,10.4313,10.2484,0.0,9.9849,9.8308,9.8715,9.8162,0.0,9.8552,0.0,0.0,0.0,10.1301,10.1909,10.2585,10.2798,10.2803,10.3117,10.2794,10.27,10.3409,10.3383,10.3618,10.4494,10.4522,10.4597,10.5107,10.5482,10.5905,10.6405,10.6395,10.6395,10.6395,10.6395,10.6395,10.6395,10.6395,10.6395,10.6395,10.6395,10.6395,10.6395,10.678,10.701,10.7098,10.7905,10.8482,10.8983,10.9406,10.9983,11.0791,11.0791,11.1098,11.1511,11.1511,11.1511,11.1511,11.1511,11.1511,11.1511,11.1511,11.1511,11.1588,10.0603,10.0681,10.0798,10.0798,10.0798,10.0798,10.0993,10.1696,10.2986,10.5092,10.841,11.0518,11.0284,11.0592,11.0004,10.8092,10.7109,10.5507,10.2893,10.2386,10.1881,10.1104,10.0987,10.0989,10.0993,10.0993,10.0915,10.0798,9.99,9.939,9.9234,9.9234,9.9312,9.9509,10.0407,10.1188,10.2088,10.3296,10.5092,10.7395,11.0206,11.3017,11.5906,11.7697,11.9498,12.0885,12.0895,11.9581,11.752,11.4612,11.2895,11.1516,10.9301,10.7489,0.0,0.0,0.0,10.1217,0.0,0.0,0.0,0.0,0.0,10.1786,0.0,0.0,0.0,10.2411,10.2312,10.2289,10.2303,10.21,10.2194,10.3011,10.3495,10.4088,10.4918,10.4994,10.5012,10.529,10.602,10.6395,10.6395,10.6395,10.6395,10.6395,10.6395,10.6395,10.6395,10.6395,10.6395,10.6395,10.6395,10.651,10.6587,10.729,10.779,10.7905,10.879,10.9483,11.0224,11.0406,11.0791,11.1511,11.1511,11.1511,11.1511,11.1511,11.1511,11.1511,11.1511,11.1511,11.1511,11.1511,11.1588,11.178,10.1502,10.2008,10.2515,10.2515,10.2515,10.2789,10.361,10.4389,10.6107,10.9386,11.2783,11.4695,11.3915,11.5104,11.5007,11.259,11.1509,10.9891,10.7316,10.5681,10.4486,10.369,10.3692,10.3704,10.3687,10.3689,10.3296,10.2515,10.1618,10.0915,10.0212,10.0212,10.0485,10.1307,10.2086,10.2984,10.4001,10.6419,10.7981,10.9308,11.2587,11.4695,11.5981,11.8416,12.0414,12.1807,12.168,11.9999,11.7814,0.0,11.5593,11.3388,0.0,11.0904,10.951,10.8692,0.0,0.0,0.0,0.0,0.0,0.0,10.37,0.0,0.0,0.0,10.2581,10.262,0.0,10.2493,10.2401,0.0,0.0,10.3117,10.3189,10.3383,10.4098,10.409,10.4706,10.6108,10.628,10.6395,10.6395,10.6395,10.6395,10.6395,10.6395,10.6395,10.6395,10.6395,10.6395,10.6395,10.6395,10.679,10.7521,10.7713,10.8098,10.879,10.9598,11.0098,11.0214,11.0983,11.1395,11.1511,11.1511,11.1511,11.1511,11.1511,11.1511,11.1511,11.1511,11.1511,11.1511,11.1511,11.2022,11.2599,10.2398,10.2515,10.2789,10.2789,10.3218,10.3804,10.4702,10.7317,11.0004,11.2408,11.5687,11.8099,11.8706,11.9413,11.9389,11.8293,11.6384,11.4212,11.1717,11.0418,10.8919,10.7099,10.7004,10.6487,10.5617,10.5617,10.4884,10.3608,10.2711,10.1813,10.0993,10.0993,10.1383,10.2281,10.3218,10.4311,10.5717,10.7903,10.9503,11.1104,11.45,11.6686,11.809,11.9699,12.1295,12.2591,12.1917,12.0989,11.9915,0.0,11.7012,0.0,0.0,0.0,0.0,11.1402,0.0,0.0,0.0,0.0,0.0,0.0,0.0,0.0,10.4096,0.0,10.2686,0.0,0.0,0.0,0.0,0.0,0.0,0.0,10.292,10.3181,10.3405,10.3793,10.4282,10.4887,10.4905,10.5097,10.5597,10.6097,10.6395,10.6395,10.6395,10.6395,10.6395,10.6395,10.6395,10.6395,10.6395,10.679,10.7713,10.8213,10.879,10.9713,11.0483,11.0983,11.0983,11.128,11.1511,11.1511,11.1511,11.1511,11.1511,11.1511,11.1511,11.1511,11.1511,11.1511,11.1588,11.2011,11.2406,11.2791,10.3608,10.3101,10.2906,10.3101,10.3687,10.4702,10.6497,11.02,11.3506,11.5515,11.8694,12.1481,12.3207,12.3688,12.3794,12.3599,12.1315,11.8892,11.6595,11.5093,11.3416,11.1594,11.0797,10.9791,10.8382,10.7894,10.6781,10.5082,10.4309,10.3296,10.2205,10.2205,10.2595,10.3218,10.4311,10.5797,10.759,10.9816,11.149,11.3084,11.6597,11.9202,12.0903,12.1594,12.2708,12.3701,12.2791,12.221,12.1695,11.9511,11.8591,0.0,11.6597,0.0,11.4793,0.0,0.0,0.0,11.0506,0.0,0.0,0.0,0.0,0.0,0.0,0.0,0.0,0.0,0.0,0.0,0.0,0.0,10.2789,10.2694,0.0,10.2903,10.2786,10.3203,10.3606,10.3907,10.3886,10.4212,10.4982,10.5713,10.6087,10.6395,10.6395,10.6395,10.6395,10.6395,10.6395,10.6395,10.6587,10.7213,10.7982,10.879,10.9713,11.0598,11.1214,11.1511,11.1511,11.1511,11.1511,11.1511,11.1511,11.1511,11.1511,11.1511,11.1588,11.178,11.178,11.2022,11.2203,11.2599,11.3022,11.3599,10.5287,10.3999,10.3101,10.3882,10.4118,10.5482,10.9696,11.3306,11.6409,11.8985,12.2318,12.4992,12.6703,12.8197,12.8714,12.7903,12.6101,12.4184,12.2507,11.9396,11.7515,11.7497,11.5205,11.349,11.2711,11.1185,10.9502,10.7785,10.6994,10.5719,10.4001,10.4001,10.4001,10.4118,10.5914,10.759,10.9386,11.2783,11.4682,11.5788,11.93,12.2108,12.4303,12.4385,12.4906,12.5388,12.4514,0.0,0.0,12.1594,12.0696,0.0,0.0,0.0,0.0,0.0,0.0,0.0,0.0,0.0,0.0,11.04,0.0,0.0,0.0,0.0,10.5285,0.0,0.0,0.0,0.0,0.0,10.3797,10.3789,10.2985,0.0,0.0,10.2117,10.2508,10.3809,10.3897,10.4212,10.4982,10.5097,10.5482,10.628,10.6395,10.6395,10.6395,10.6395,10.6395,10.6395,10.7213,10.8021,10.8906,10.9713,11.0598,11.1522,11.1511,11.1511,11.1511,11.1511,11.1511,11.1511,11.1511,11.1511,11.1511,11.1511,11.2022,11.2714,11.2714,11.3214,11.3791,11.3022,11.3791,11.5215,10.5619,10.5302,10.5419,10.5693,10.62,10.8105,11.2415,11.5895,11.9214,12.2302,12.5601,12.8703,13.1508,13.2717,13.3204,13.2806,13.1099,12.9082,12.6795,12.4583,12.2589,12.1093,11.9206,11.7296,11.5508,11.4294,11.2397,10.9619,10.881,10.7497,10.5795,10.5209,10.5287,10.5914,10.7005,10.8801,11.1104,11.4013,11.642,11.8514,12.1899,12.4381,12.6083,12.5516,12.5392,12.5488,12.5111,12.4707,0.0,12.2683,12.1913,12.1385,11.9989,11.9393,11.899,11.8206,11.7606,0.0,0.0,0.0,11.4495,11.3107,0.0,0.0,0.0,0.0,0.0,0.0,0.0,0.0,0.0,0.0,10.3906,10.3794,10.2985,10.2399,0.0,10.21,10.2216,10.26,10.2918,10.3397,10.4321,10.4801,10.5482,10.628,10.6395,10.6395,10.6395,10.6395,10.6395,10.6395,10.7213,10.8098,10.8906,10.979,11.0598,11.1511,11.1511,11.1511,11.1511,11.1511,11.1511,11.1511,11.2099,11.2291,11.228,11.2906,11.3291,11.3599,11.3599,11.4099,11.4791,11.4484,11.4791,11.5418,10.7306,10.7799,10.8106,10.7184,10.8814,11.1409,11.5091,11.8418,12.1778,12.5209,12.8514,13.1789,13.5084,13.6404,13.6905,13.6807,13.5496,13.35,13.0987,12.9015,12.7092,12.5311,12.3208,12.0983,11.8909,11.7688,11.5594,11.2219,11.1398,10.9786,10.7617,10.6688,10.6497,10.681,10.7903,10.9889,11.2415,11.5286,11.7989,12.0598,12.3886,12.6105,12.7184,12.661,12.6398,12.6406,0.0,12.5693,12.5407,12.3785,12.3281,12.3099,12.1893,12.1187,12.0616,11.9993,11.9494,11.8987,11.8516,11.7811,0.0,11.5684,11.4085,0.0,11.0496,0.0,0.0,0.0,0.0,0.0,0.0,0.0,10.479,10.4405,10.3309,10.2404,0.0,10.179,10.1692,10.1594,10.2011,10.2709,10.3492,10.4196,10.5099,10.5905,10.6203,10.6395,10.6395,10.6395,10.6395,10.6395,10.7521,10.8406,10.8906,11.0098,11.0906,11.1511,11.1511,11.1511,11.1511,11.178,11.1895,11.2022,11.2791,11.3214,11.3214,11.3791,11.4214,11.4484,11.4484,11.4984,11.5676,11.5407,11.5495,11.5803,11.0503,11.1209,11.1109,10.889,11.179,11.5311,11.7802,12.0982,12.441,12.7782,13.102,13.421,13.7582,13.9207,14.0011,14.0011,13.9095,13.7481,13.5012,13.259,13.0899,13.0097,12.7118,12.4584,12.2997,12.1408,11.889,11.5602,11.479,11.2697,10.9388,10.8514,10.7588,10.6888,10.8605,11.0817,11.3288,11.6719,11.9697,12.229,12.5499,12.7208,12.7789,12.7821,12.779,12.7789,12.6896,12.6508,12.612,12.5195,12.4779,12.4601,12.4485,12.3412,12.2005,12.2108,12.098,11.9792,11.9987,11.9499,11.8787,11.8019,0.0,0.0,0.0,0.0,11.1981,0.0,0.0,0.0,0.0,0.0,0.0,10.539,10.381,10.2408,10.1514,10.1314,10.1097,10.1017,10.1405,10.1903,10.2586,10.3492,10.4292,10.4992,10.5905,10.6405,10.6395,10.6395,10.6395,10.6395,10.8021,10.8906,10.8906,11.0598,11.1511,11.1511,11.1511,11.1588,11.1588,11.2406,11.2791,11.2791,11.3714,11.4099,11.4099,11.4099,11.4599,11.5418,11.5418,11.5792,11.6418,11.5599,11.5792,11.6495,11.2286,11.3296,11.4907,11.6786,11.7514,11.8598,12.1199,12.4416,12.7891,13.1895,13.521,13.8194,14.0904,14.2587,14.3214,14.2497,14.1611,14.0275,13.8387,13.5904,13.4198,13.3489,13.0299,12.7786,12.6311,12.4118,12.1417,11.8194,11.6092,11.4109,11.2117,10.99,10.8783,10.8684,10.9699,11.1283,11.3285,11.6587,12.0521,12.4598,12.6594,12.7486,12.7686,0.0,12.8319,12.8213,12.7388,12.7099,12.6888,12.5808,12.5416,12.5317,12.4695,12.4183,12.3797,12.3906,12.3608,12.3215,12.3309,12.2787,12.2119,12.148,12.0119,11.859,0.0,0.0,0.0,0.0,0.0,0.0,0.0,0.0,0.0,10.539,10.3692,10.2495,10.2289,10.2201,10.1895,10.1206,10.1116,10.1584,10.28,10.2988,10.3589,10.4992,10.529,10.5713,10.6405,0.0,10.6395,10.6395,10.8021,10.8906,10.8906,11.0598,11.1511,11.1511,11.2088,11.2406,11.2406,11.3291,11.3714,11.3714,11.4599,11.4984,11.4984,11.5599,11.5995,11.6187,11.6187,11.6303,11.6495,11.6303,11.6303,11.6495,11.4996,11.6189,11.8389,12.1696,12.2504,12.3079,12.4591,12.7605,13.0892,13.4396,13.7717,14.0598,14.3111,14.4798,14.5502,14.4882,14.4497,14.3304,14.1186,13.912,13.759,13.6887,13.3588,13.1094,12.9615,12.7208,0.0,12.1197,11.8814,11.6413,11.4104,11.1481,10.9988,10.9308,11.0117,11.15,11.3415,11.811,12.2082,12.5383,12.6911,12.7611,0.0,12.8286,12.8589,12.8796,12.8392,12.8193,12.8214,12.749,12.7087,12.669,12.6082,12.5493,12.4915,12.4915,12.4607,12.4282,12.4404,12.4212,12.3812,12.3608,12.2588,12.15,12.0792,11.9715,11.8503,0.0,0.0,0.0,0.0,0.0,0.0,10.5512,0.0,0.0,0.0,10.2304,10.1616,10.0612,10.0388,10.0605,10.1291,10.1903,10.2712,10.3915,10.4405,10.4905,10.579,10.579,10.6213,10.6895,10.8213,10.9098,10.9483,11.0791,11.1703,11.2011,11.2522,11.2906,11.3291,11.4214,11.4599,11.4599,11.5495,11.5792,11.5918,11.6303,11.6495,11.6495,11.6495,11.6495,11.6495,11.6495,11.6495,11.6495,11.8499,11.9694,12.1719,12.5006,12.6916,12.8086,12.8685,13.1092,13.3821,13.6308,13.9399,14.2305,14.4589,14.629,14.7221,14.7221,14.699,14.599,14.3682,14.1995,14.0699,13.989,13.6882,13.4406,13.2717,13.0184,12.7413,12.4118,12.1611,11.8798,11.5596,11.2979,11.0996,10.9499,11.022,11.1701,11.4013,12.0181,12.3582,12.5094,12.6704,12.7789,12.83,12.852,12.8999,12.9593,12.9693,12.9612,12.95,12.9384,12.8887,12.822,12.8011,12.6909,12.5717,12.5601,12.4986,12.4509,12.4577,12.469,12.4794,12.5001,12.4486,12.4013,12.4312,12.2489,12.0782,12.0607,11.8586,0.0,0.0,0.0,0.0,0.0,0.0,0.0,0.0,10.2101,10.1218,10.0007,9.9686,0.0,9.9088,10.0479,10.1698,10.2376,10.3212,10.4097,10.5107,0.0,10.5905,10.7598,10.8482,10.929,11.0224,0.0,11.2022,11.2714,11.2896,11.3407,11.4214,11.5099,11.5495,11.5495,11.6187,11.6495,11.6495,11.6495,11.6495,11.6495,11.6495,11.6495,11.6495,11.6495,11.6495,11.6495,12.338,12.3888,12.4991,12.8396,13.0119,13.2088,13.4899,13.5911,13.7211,13.9619,14.2909,14.5308,14.6378,14.8004,14.899,14.899,14.7721,14.6682,14.6297,14.4017,14.2299,14.1491,13.958,13.7387,13.5085,13.2116,12.9015,12.5804,12.2115,11.8998,11.6493,11.3187,11.12,11.0293,11.0405,11.289,11.7197,12.0917,12.3389,12.5001,12.7092,12.7978,12.8279,12.9597,13.0215,13.0395,13.1114,13.0483,12.9411,12.9291,12.91,12.8896,12.8102,12.7705,12.7294,12.6678,12.6421,12.619,12.6291,12.6309,12.6398,12.6608,12.6079,12.5592,12.5787,12.499,12.3711,12.2496,12.0688,11.8617,11.6212,0.0,0.0,0.0,0.0,0.0,0.0,0.0,10.2511,10.0902,9.9966,9.9077,9.8222,9.9591,10.0811,10.1491,10.2289,10.3482,10.4982,0.0,10.5905,0.0,10.8482,0.0,0.0,0.0,11.2599,11.2714,11.4214,11.4907,11.5099,11.5918,11.6303,11.6303,11.6418,11.6495,11.6495,11.6495,11.6495,11.6495,11.6495,11.6495,11.6495,11.6495,11.6495,11.6495,12.71,12.7696,12.8789,13.1708,13.3476,13.5692,13.9017,14.0712,14.1893,14.2597,14.5202,14.7406,14.8182,14.9413,15.0106,15.0106,14.9413,14.849,14.7605,14.599,14.4682,14.3912,14.1797,13.9708,13.7618,13.4398,13.1297,12.8115,12.4087,12.0819,11.7984,11.4586,11.2297,11.1197,11.2383,11.521,11.9215,12.1898,0.0,12.6101,12.7495,12.8605,12.938,13.0204,13.0987,13.1795,13.1679,13.1486,13.119,13.0704,13.0217,12.9794,12.941,12.8602,12.7782,12.7409,12.6986,12.669,12.669,12.6688,12.681,12.6887,12.6608,12.6419,12.6684,12.6007,12.5108,12.3894,12.2289,11.9987,11.6585,11.3002,0.0,0.0,0.0,0.0,0.0,0.0,10.3386,10.161,10.0185,9.888,9.789,9.8871,9.987,10.0606,10.1096,10.2212,10.4405,0.0,10.5713,0.0,0.0,0.0,0.0,0.0,0.0,11.3407,11.4714,11.5484,11.5907,11.6303,11.6495,11.6495,11.6495,11.6495,11.6495,11.6495,11.6495,11.6495,11.6495,11.6495,11.6495,11.6495,11.6495,11.6495,13.0405,13.1297,13.2601,13.5113,13.6886,13.9107,14.2195,14.4913,14.6221,14.5297,14.7298,14.899,14.9721,15.0491,15.0991,15.0991,15.0798,15.0106,14.8798,14.7798,14.6798,14.599,14.3912,14.1797,13.9912,13.691,13.3781,0.0,12.648,12.2803,11.9582,11.6308,11.3908,11.2481,11.4801,11.7503,0.0,0.0,12.5205,12.7114,12.8186,12.9392,13.0487,13.091,13.1923,13.2923,13.241,13.2603,13.2885,13.2179,13.141,13.0718,13.0602,12.941,12.8089,12.8012,12.7294,12.669,12.669,12.669,12.6715,12.681,12.6795,12.6814,12.6987,12.649,12.5795,12.4783,12.3017,12.041,11.6718,11.4295,0.0,0.0,0.0,0.0,0.0,0.0,10.442,10.2584,10.0794,9.921,9.8059,9.8524,9.9219,9.999,10.0298,10.1414,10.3789,0.0,0.0,0.0,0.0,10.979,11.1703,0.0,11.3407,0.0,11.5099,11.5918,11.6495,11.6495,11.6495,11.6495,11.6495,11.6495,11.6495,11.6495,11.6495,11.6495,11.6495,11.6495,11.6495,11.6495,11.6495,11.6495,13.3982,13.4697,13.5999,13.8606,14.0403,14.231,14.4913,14.749,14.8798,14.799,14.9413,15.0491,15.0606,15.1414,15.1914,15.1914,15.1183,15.0606,15.0491,14.899,14.7682,14.6798,14.5913,14.4182,14.1681,13.921,13.6314,0.0,0.0,12.4383,12.1191,11.7903,11.5793,11.4884,11.6584,0.0,0.0,12.4306,12.6089,12.6996,12.9291,13.0384,13.0679,13.2192,13.2885,13.3115,13.3795,13.3603,13.3,13.2923,13.2307,13.1487,13.0718,12.9794,12.8909,12.8089,12.7294,12.669,12.669,12.669,12.669,12.6703,12.6703,12.67,12.6803,12.6787,12.632,12.4811,12.19,11.9103,11.7194,11.549,11.4087,0.0,0.0,0.0,0.0,0.0,10.5913,10.4081,10.2294,10.0611,9.8966,9.8816,9.9192,9.999,10.0789,10.202,10.3789,0.0,0.0,10.879,0.0,11.0098,11.2599,11.3407,0.0,11.5187,11.5995,11.6418,11.6495,11.6495,11.6495,11.6495,11.6495,11.6495,11.6495,11.6495,11.6495,11.6495,11.6495,11.6495,11.6495,11.6495,11.6495,11.6495,13.731,13.8106,13.9414,14.1993,14.3415,14.499,14.7605,14.9721,15.0914,15.0491,15.1106,15.1491,15.1491,15.1799,15.1991,15.1991,15.1683,15.1298,15.0721,15.0106,14.9106,14.7682,14.6913,14.549,14.3412,14.1007,13.8386,0.0,0.0,0.0,12.3482,12.0192,11.8495,11.81,11.9695,12.1701,12.4103,12.5703,12.7477,12.9195,13.0113,13.0794,13.1295,13.1987,13.291,13.3795,13.3603,13.3603,13.368,13.3192,13.241,13.1602,13.1295,13.0602,12.991,12.9602,12.8909,12.8217,12.8217,12.8217,12.8217,12.8217,12.7794,12.7383,12.7508,12.7097,12.6313,12.4588,12.1998,11.9894,11.9203,11.7405,11.5785,0.0,0.0,0.0,0.0,0.0,0.0,10.5004,10.2799,10.0885,9.9739,9.9586,9.9721,0.0,10.0414,10.1597,10.3789,0.0,0.0,10.879,0.0,11.0098,11.2714,11.3599,11.4407,11.5291,11.6099,11.6495,11.6495,11.6495,11.6495,11.6495,11.6495,11.6495,11.6495,11.6495,11.6495,11.6495,11.6495,11.6495,11.6495,11.6495,11.6495,11.6506,14.031,14.1296,14.272,14.4797,14.6105,14.749,14.949,15.1298,15.2414,15.2414,15.2414,15.2299,15.1991,15.1991,15.1991,15.1991,15.1991,15.1683,15.1106,15.0798,15.0106,14.8606,14.7682,0.0,14.4797,14.2892,14.0699,13.8191,13.3798,0.0,12.6691,12.3099,12.1509,0.0,12.3113,12.4789,12.658,12.7504,12.8913,13.061,13.0794,13.1179,13.1679,13.1987,13.2795,13.391,13.3795,13.3795,13.391,13.3487,13.2603,13.1679,13.1679,13.1102,13.0487,13.0487,12.991,12.9217,12.9217,12.9217,12.9217,12.9217,12.8705,12.8205,12.8012,12.7486,12.6486,12.4486,12.2401,12.0687,12.0495,11.881,11.7419,11.7188,0.0,0.0,0.0,0.0,0.0,10.591,10.3493,10.1693,10.0615,10.0509,10.0606,0.0,0.0,10.1712,10.3789,0.0,0.0,0.0,0.0,0.0,0.0,11.3907,11.4791,11.5687,11.6187,11.6495,11.6495,11.6495,11.6599,11.6907,11.6907,11.6984,11.7303,11.7303,11.7303,11.7176,11.6984,11.6907,11.6907,11.6611,11.671,11.7024,14.2912,14.4412,14.5913,14.6682,14.8298,14.9707,15.0606,15.2183,15.3299,15.3299,15.3299,15.2991,15.2106,15.1991,15.1991,15.1991,15.1991,15.1991,15.1991,15.1183,15.0298,0.0,0.0,14.7413,14.572,14.4797,14.3211,14.0815,0.0,0.0,13.0703,12.6606,12.5011,12.5808,12.6609,12.7379,12.8205,12.9785,13.0483,13.0602,13.141,13.1679,13.1795,13.2692,13.3,13.318,13.4911,13.4411,13.3115,13.3987,13.3103,13.1679,13.1679,13.1102,13.0487,13.0487,12.991,12.9217,12.9217,12.9217,12.9217,12.9217,12.9217,12.8986,12.8089,12.7897,12.7217,12.4601,12.2793,12.1304,12.0496,11.9702,11.8883,11.8112,0.0,0.0,0.0,0.0,0.0,10.6815,10.5014,10.3289,10.1683,10.1496,10.1788,0.0,0.0,10.2981,10.3915,0.0,0.0,10.879,11.0598,0.0,11.3984,11.4791,11.5687,11.6495,11.6495,11.6495,11.6495,11.6495,11.6984,11.7792,11.7792,11.8292,11.91,11.91,11.91,11.8985,11.81,11.7792,11.7715,11.6792,11.7101,11.8018,14.5413,14.6105,14.7105,14.9106,14.9914,15.0798,15.2299,15.3376,15.4107,15.4107,15.4607,15.4491,15.2991,15.2414,15.1991,0.0,15.1991,15.1991,0.0,15.1683,15.1221,15.0414,14.949,14.8606,14.7413,14.599,14.458,14.3288,0.0,0.0,0.0,12.9816,12.8884,12.9092,12.94,12.9885,13.0587,13.051,13.0794,13.1295,13.1602,13.1679,13.1679,13.1987,13.25,13.3115,13.3603,13.35,13.3,13.3295,13.2692,13.1679,13.1679,13.1487,13.1295,13.1295,13.1102,13.091,13.091,13.091,13.091,13.091,13.0487,12.9987,12.9717,12.8294,12.6486,12.4486,12.3216,12.2216,12.1293,12.0519,11.9696,11.8887,0.0,0.0,0.0,0.0,0.0,0.0,10.5802,10.431,0.0,10.3194,0.0,0.0,0.0,0.0,0.0,0.0,0.0,0.0,11.0598,0.0,11.3984,11.4907,11.5676,11.6495,11.6495,11.6792,11.7407,11.7984,11.8407,11.8715,11.8715,11.8792,11.91,11.91,11.91,11.91,11.8792,11.8715,11.8715,11.8407,11.8486,11.8799,14.7105,14.7913,14.8798,15.0414,15.0991,15.1683,15.3106,15.4006,15.4607,15.4915,15.5492,15.5415,15.4414,15.3491,0.0,15.2106,15.1991,15.1991,15.1991,15.1991,15.1606,15.0721,14.9914,14.9106,14.8182,0.0,0.0,14.4913,14.1493,13.799,13.429,13.3107,13.2493,13.2408,13.21,13.2101,13.2192,13.1679,13.1487,13.1679,13.1679,13.1679,13.1679,13.1679,13.1987,13.2615,13.3295,13.3308,13.3115,13.368,13.318,13.2179,13.2603,13.2487,13.2102,13.1795,13.1679,13.1679,13.1679,13.1679,13.1679,13.1679,13.1295,13.091,13.0602,12.8794,12.6717,12.4909,12.3909,12.2985,12.1793,12.1189,12.0408,11.9292,0.0,11.6676,11.4291,0.0,0.0,0.0,0.0,0.0,0.0,10.4504,0.0,0.0,0.0,0.0,0.0,0.0,0.0,10.979,11.1522,0.0,11.4484,11.5291,11.5995,11.6495,11.6792,11.7407,11.8292,11.8908,11.9292,11.96,11.96,11.9715,11.9985,11.9985,11.9985,11.9985,11.9715,11.96,11.9485,11.9215,11.9405,11.9789,14.8182,14.9606,15.0721,0.0,15.1491,0.0,15.3183,15.3991,15.4799,15.5799,15.5915,15.5915,15.5799,15.5107,15.3876,15.2299,0.0,0.0,0.0,15.1991,15.1606,15.0798,14.999,14.9106,14.8298,14.7413,14.649,14.572,14.2412,13.9912,13.8309,13.6603,13.5719,13.5603,13.4795,13.3987,13.3192,13.3115,13.2615,13.1795,13.1795,13.1795,13.1679,13.1679,13.1679,13.1987,13.3603,13.368,13.3295,13.4911,13.4411,13.318,13.3987,13.368,13.291,13.2102,13.191,13.191,13.191,13.191,13.191,13.191,13.1795,13.1602,13.0794,12.9217,12.7512,12.5794,12.4716,12.3601,12.1985,12.1612,12.0997,11.9408,11.8985,11.7792,11.4484,0.0,0.0,0.0,0.0,0.0,0.0,10.5611,10.6218,0.0,0.0,0.0,0.0,0.0,11.001,11.1483,11.3214,11.4484,11.5291,11.611,11.6484,11.6611,11.7484,11.8407,11.9215,11.9215,11.9715,12.0408,12.0408,12.092,12.1612,12.1612,12.1612,12.1485,12.0677,12.0408,12.0292,11.9611,11.9912,12.0799,0.0,0.0,15.0914,15.1606,15.1914,15.2491,15.3991,15.4391,15.5107,15.6607,15.6799,15.6492,15.5915,15.5607,15.5107,15.3991,15.3299,15.2683,15.1991,15.1991,15.1914,15.1683,15.0298,14.9413,14.9221,14.7682,14.649,14.572,14.3605,14.1989,14.0989,13.9219,13.8104,13.7411,13.6603,13.568,13.4911,13.4295,13.3487,13.2692,13.2692,13.2307,13.1679,13.1679,13.2102,13.2692,13.3192,13.3603,13.4103,13.4487,13.4295,13.3987,13.4218,13.4218,13.3987,13.3718,13.3718,13.3718,13.3718,13.3718,13.3718,13.3718,13.318,13.25,13.1602,13.0102,12.8409,12.6678,12.5178,12.3793,12.2793,12.1485,12.0292,11.9292,11.7984,11.6407,11.4291,0.0,0.0,0.0,10.8909,10.8303,10.8093,10.8105,10.8414,0.0,0.0,0.0,0.0,11.1591,11.1792,11.1522,11.3791,11.5099,11.5291,11.611,11.6792,11.7484,11.8985,11.9792,11.9985,12.0677,12.11,12.1304,12.1304,12.142,12.1612,12.1612,12.1612,12.1612,12.142,12.1304,12.1304,12.1204,12.1414,12.1581,15.0491,15.0991,15.1414,15.1914,15.1991,15.2606,15.4184,15.4491,15.5107,15.6915,15.7107,15.6915,15.6415,15.6415,15.5915,15.4607,15.3799,15.3106,15.2606,15.2183,15.1991,15.1991,15.0414,14.949,14.949,14.7798,14.649,14.572,14.4412,14.3297,14.2412,14.0719,13.9681,13.9181,13.7911,13.6911,13.5988,13.5218,13.4411,13.3603,13.3603,13.3295,13.291,13.291,13.318,13.3603,13.3987,13.4411,13.4911,13.5295,13.5218,13.4911,13.5295,13.5218,13.4911,13.5295,13.4911,13.4295,13.4295,13.4295,13.4295,13.4295,13.391,13.341,13.2487,13.1295,12.9794,12.7717,12.5909,12.4293,12.3101,12.1485,11.9985,11.9215,11.7984,11.6407,11.4291,11.3599,0.0,11.0983,11.0714,11.0598,11.0598,11.069,11.0913,11.1298,0.0,0.0,11.2695,11.3503,11.3779,11.3291,11.4599,11.5495,11.5792,11.6676,11.7715,11.8985,11.9908,12.0485,12.0908,12.142,12.1597,12.1693,12.1693,12.1693,12.1693,12.1693,12.1697,12.1612,12.1612,12.1612,12.1585,12.1815,12.1821,12.19,15.0914,15.1491,15.1991,15.1991,15.1991,15.2491,15.4107,15.4376,15.5107,15.6684,15.6992,15.7107,15.7107,15.6992,15.6299,15.4799,15.3799,15.3183,15.3106,15.2414,15.1991,15.1991,15.0414,14.949,14.949,14.7798,14.6605,14.5913,14.499,14.4182,14.3297,14.1681,14.0796,14.0489,13.9104,13.7911,13.6911,13.618,13.5295,13.4487,13.4487,13.4411,13.4295,13.4295,13.4411,13.4603,13.5295,13.5603,13.5795,13.6603,13.6296,13.5795,13.6603,13.6296,13.5911,13.668,13.5988,13.4795,13.4718,13.4718,13.4718,13.4718,13.4603,13.4295,13.341,13.241,13.0987,12.8602,12.6794,12.5101,12.3408,12.1716,12.0216,11.9292,11.8292,11.6792,11.4484,0.0,11.4291,11.2088,11.2599,11.3099,11.3099,11.3214,11.3483,11.4099,11.4407,11.4484,0.0,11.5291,11.5907,11.5907,11.5715,11.6099,11.6918,11.7815,11.8892,12.0277,12.0492,12.0889,12.1581,12.1581,12.1716,12.1805,12.1805,12.1805,12.1805,12.1805,12.1711,12.1581,12.1581,12.1581,12.172,12.1794,12.1914,12.2001,15.1683,15.1914,15.1991,15.1991,15.1991,15.2299,15.3299,15.4107,15.4876,15.5915,15.6607,15.7107,15.7107,15.6415,15.5915,15.5607,15.4184,15.2991,15.2183,15.2106,15.1991,15.1991,15.0414,14.949,14.949,14.7798,14.6798,14.6682,14.5913,14.5105,14.422,14.3181,14.1989,14.0604,14.0296,13.9412,13.7886,13.7809,13.6796,13.5295,13.5295,13.4911,13.4295,13.4295,13.4718,13.5295,13.5488,13.5988,13.6603,13.6796,13.668,13.6603,13.6796,13.668,13.6796,13.7603,13.7694,13.7296,13.6603,13.6411,13.6411,13.6411,13.5911,13.5103,13.4295,13.291,13.1179,12.941,12.7678,12.5986,12.4216,12.2485,12.0908,11.9408,11.7792,11.6292,11.5215,0.0,11.4099,11.3714,11.4407,11.4907,11.4907,11.5484,11.5676,11.5099,11.6407,11.6907,11.6187,11.76,11.8484,11.8484,11.7792,11.7792,11.8715,11.9587,12.0209,12.0478,12.132,12.171,12.1903,12.1903,12.1914,12.1896,12.1896,12.1896,12.1896,12.1896,12.1886,12.1903,12.1903,12.1903,12.1886,12.2001,12.2101,12.2208,15.1914,15.1991,15.1991,15.1991,15.1991,15.2299,15.3183,15.3607,15.4184,15.4991,15.5915,15.6184,15.5799,15.5799,15.5415,15.4491,15.3684,15.2914,15.2106,15.1991,15.1991,15.1991,15.0414,14.9106,14.8106,14.7298,14.6913,14.6913,14.6105,14.5297,14.4412,14.3489,14.2489,14.1296,14.0796,13.9912,13.8681,13.8296,13.7411,13.618,13.618,13.5988,13.5603,13.5603,13.5911,13.618,13.618,13.6488,13.6796,13.6796,13.7103,13.7488,13.7488,13.7796,13.8219,13.8604,13.8719,13.8681,13.8296,13.7796,13.7488,13.7488,13.6796,13.5988,13.5103,13.3987,13.2603,13.091,12.8794,12.6986,12.5717,12.342,12.1293,12.06,11.86,0.0,0.0,11.5984,11.5907,11.5407,11.6484,11.7292,11.7292,11.7677,11.7715,11.7407,11.81,11.8292,11.7907,11.8715,11.9292,11.9715,11.8908,11.8908,11.9715,12.0214,12.0814,12.1303,12.2191,12.2698,12.2797,12.3183,12.3213,12.2807,12.2894,12.2613,12.2179,12.2197,12.2198,12.2091,12.2091,12.2091,12.2101,12.2217,12.2321,12.2307,15.1991,15.1991,15.1991,15.1991,15.1991,15.2183,15.2914,15.3183,15.3491,15.4107,15.4991,15.5184,15.4607,15.4915,15.4684,15.3376,15.3106,15.2683,15.1991,15.1991,15.1991,15.1991,15.0414,14.8721,14.6913,14.6913,14.6913,14.6913,14.6297,14.5413,14.4412,14.3682,14.2912,14.1912,14.1181,14.0412,13.9604,13.8911,13.8181,13.7411,13.7411,13.7411,13.7411,13.7411,13.7411,13.7411,13.7411,13.7411,13.7411,13.7411,13.7796,13.8411,13.8411,13.8796,13.9283,13.9475,13.9719,13.9796,13.9398,13.8796,13.8296,13.8117,13.7617,13.6796,13.5719,13.4988,13.3987,13.2102,13.0102,12.8409,12.6998,12.4613,12.2612,12.1985,0.0,0.0,0.0,11.7792,11.7907,11.7407,11.8715,11.9792,11.9985,12.0216,12.0216,11.9985,12.0216,12.0216,11.9985,12.0216,12.0485,12.1216,12.0408,12.0304,12.0916,12.1298,12.1815,12.2618,12.329,12.3802,12.3894,12.458,12.4517,12.4004,12.3985,12.3705,12.3104,12.3101,12.3082,12.2915,12.2915,12.2798,12.2614,12.2683,12.2686,12.2503,15.1991,15.1991,15.1991,15.1991,15.1991,15.1991,15.2106,15.2799,15.3299,15.3376,15.4107,15.4607,15.4491,15.3876,15.3414,15.3299,15.2606,15.2106,15.1991,15.1991,15.1991,15.1991,15.0414,14.8721,14.6913,14.6913,14.6913,14.6913,14.6798,14.599,14.4412,14.4297,14.3412,14.1912,14.1797,14.1296,14.0489,14.0412,13.9912,13.9104,13.9104,13.9104,13.9104,13.9104,13.9104,13.9104,13.9104,13.9104,13.9104,13.9104,13.9219,13.9219,13.9219,13.9296,13.9488,14.0296,14.1104,14.1412,13.9719,13.9296,13.8988,13.8296,13.8117,13.7617,13.5911,13.5488,13.4718,13.2179,13.1602,13.0487,12.7306,12.6498,12.5613,12.3216,0.0,0.0,12.01,11.9408,11.9292,11.9908,12.0793,12.1677,12.2524,12.3293,12.3408,12.2716,12.3293,12.3408,12.2716,12.3293,12.3793,12.3793,12.3024,12.2686,12.2812,12.3705,12.4289,12.4576,12.4809,12.4907,12.5112,12.5189,12.5187,12.5194,12.5194,12.5116,12.5116,12.5116,12.5116,12.5102,12.5102,12.4597,12.3898,12.3905,12.3404,12.2804,15.1991,15.1991,15.1991,15.1991,15.1991,15.1991,15.1991,15.2299,15.2491,15.2491,15.3183,15.3491,15.2991,15.3183,15.3106,15.2491,15.2183,15.1991,15.1991,15.1991,15.1491,15.0491,14.9798,14.8721,14.6913,14.6913,14.6913,14.6913,14.6913,14.599,14.4412,14.4412,14.3489,14.1912,14.1912,14.1412,14.0604,14.0604,14.0104,13.9296,13.9296,13.9296,13.9296,13.9296,13.9296,13.9296,13.9296,13.9296,13.9296,13.9296,13.9719,14.0104,14.0104,14.0489,14.0989,14.1296,14.1604,14.1797,14.1104,14.0489,13.9989,13.9681,13.8925,13.7886,13.7309,13.6296,13.5218,13.4295,13.2795,13.1295,12.9987,12.8486,12.6986,12.5486,0.0,12.2908,12.1985,12.16,12.16,12.1908,12.2601,12.3293,12.3601,12.3909,12.3985,12.3716,12.3909,12.3985,12.3716,12.3909,12.4101,12.4101,12.4293,12.4199,12.3786,12.4294,12.4611,12.4892,12.558,12.6005,12.6215,12.6796,12.6808,12.6308,12.6306,12.6005,12.5588,12.5588,12.5583,12.5505,12.5509,12.5296,12.4985,12.4985,12.4802,12.4487,15.1991,15.1991,15.1991,15.1991,15.1991,15.1991,15.1991,15.1991,15.1991,15.1991,15.2491,15.2683,15.2106,15.2491,15.2683,15.2106,15.1991,15.1991,15.1991,15.1683,15.0991,14.9606,14.9221,14.8413,14.6913,14.6913,14.6913,14.6913,14.6913,14.599,14.4412,14.4412,14.3489,14.1912,14.1912,14.1604,14.0989,14.0989,14.0681,14.0104,14.0104,14.0104,14.0104,14.0104,14.0104,14.0104,14.0104,14.0104,14.0104,14.0104,14.0489,14.0989,14.0989,14.1412,14.1912,14.1912,14.1912,14.1912,14.1912,14.1489,14.0912,14.0681,13.9681,13.8681,13.8194,13.718,13.618,13.5603,13.4103,13.2679,13.2179,13.0487,12.8794,12.7986,12.6409,12.5101,12.4512,12.4293,12.4216,12.4397,12.4986,12.5409,12.5717,12.5717,12.5717,12.5717,12.5717,12.5717,12.5717,12.5717,12.5717,12.5717,12.6294,12.6392,12.5905,12.5489,12.5404,12.5721,12.6508,12.701,12.7217,12.7886,12.791,12.7384,12.7414,12.711,12.6582,12.6612,12.6607,12.6495,12.6502,12.6293,12.6098,12.6098,12.5903,12.5718,15.1991,15.1991,15.1991,15.1991,15.1991,15.1991,15.1991,15.1991,15.1991,15.1991,15.1991,15.1991,15.1991,15.1991,15.1991,15.1991,15.1991,15.1991,15.1991,15.1183,15.0298,14.9476,14.8683,14.7798,14.6913,14.6913,14.6913,14.6913,14.6913,14.599,14.4412,14.4412,14.3489,14.1912,14.1912,14.1912,14.1912,14.1912,14.1912,14.1912,14.1912,14.1912,14.1912,14.1912,14.1912,14.1912,14.1912,14.1912,14.1912,14.1912,14.1912,14.1912,14.1912,14.1912,14.1912,14.1912,14.1912,14.1912,14.1912,14.1912,14.1681,14.0796,14.0604,14.0181,13.8502,13.8117,13.7617,13.5911,13.5488,13.4988,13.3295,13.2307,13.1487,13.0679,12.9102,12.7897,12.7897,12.7217,12.6986,12.7782,12.7897,12.8205,12.9102,12.9217,12.9217,12.9217,12.9217,12.9217,12.9217,12.9217,12.9217,12.9217,12.9217,12.9317,12.9399,12.7792,12.7181,12.7493,12.7697,12.8008,12.8197,12.8387,12.8418,12.8417,12.8417,12.8417,12.8417,12.8421,12.8421,12.8421,12.8421,12.7914,12.7095,12.7095,12.6587,12.5804,15.1991,15.1991,15.1991,15.1991,15.1991,15.1991,15.1991,15.1991,15.1991,15.1991,15.1991,15.1991,15.1991,15.1991,15.1991,15.1991,15.1991,15.1991,15.1991,15.0721,14.9798,14.949,14.8683,14.7798,14.6913,14.6913,14.6913,14.6913,14.6297,14.549,14.4412,14.3797,14.2912,14.1912,14.1912,14.1912,14.1912,14.1912,14.1912,14.1912,14.1912,14.1912,14.1912,14.1912,14.1912,14.1989,14.2489,14.2681,14.2797,14.3412,14.372,14.372,14.372,14.372,14.372,14.372,14.3181,14.2681,14.2681,14.2297,14.1797,14.1604,14.1104,14.0489,13.9989,13.8911,13.8001,13.7411,13.6411,13.5295,13.4795,13.4103,13.3218,13.241,13.1295,13.041,12.9794,12.8986,12.8486,12.8794,12.8794,12.8909,12.9217,12.9217,12.9217,12.9217,12.9217,12.9217,12.9217,12.9217,12.9217,12.9217,12.9217,12.9191,12.9317,12.8915,12.8881,12.9323,12.9483,12.9692,12.9892,12.9503,12.9181,12.9198,12.8601,12.8417,12.8382,12.8484,12.8494,12.8494,12.8494,12.8302,12.8107,12.8107,12.7912,12.7717,15.1991,15.1991,15.1991,15.1991,15.1991,15.1991,15.1991,15.1991,15.1991,15.1991,15.1991,15.1991,15.1991,15.1991,15.1991,15.1991,15.1991,15.1991,15.1991,15.0721,14.9784,14.949,14.8683,14.7798,14.6913,14.6913,14.6913,14.6913,14.6413,14.572,14.4913,14.3989,14.3181,14.2412,14.1989,14.2104,14.2412,14.2412,14.2412,14.2412,14.2412,14.2181,14.1912,14.1912,14.2104,14.2412,14.2912,14.3297,14.3682,14.422,14.4412,14.4412,14.4412,14.4412,14.4412,14.4412,14.3989,14.3489,14.3181,14.2681,14.2297,14.1989,14.1489,14.0989,14.0681,13.9796,13.8988,13.8604,13.7488,13.6488,13.6488,13.5603,13.4603,13.4103,13.3295,13.2603,13.2102,13.1295,13.0718,13.0718,13.0718,13.0602,13.0217,13.0487,13.0602,13.0217,13.0217,13.0217,13.0217,13.0217,13.0217,13.0217,13.0217,13.0217,13.0217,13.0386,13.0301,12.9896,13.019,13.0398,13.0601,13.0291,13.009,13.0108,12.9202,12.8902,12.8902,12.8499,12.8488,12.851,12.851,12.8519,12.8489,12.8489,12.8489,12.8492,15.1991,15.1991,15.1991,15.1991,15.1991,15.1991,15.1991,15.1991,15.1991,15.1991,15.1991,15.1991,15.1991,15.1991,15.1991,15.1991,15.1991,15.1991,15.1991,15.1183,15.0414,14.9606,14.8683,14.7798,14.699,14.6913,14.6913,14.6913,14.6798,14.6413,14.572,14.4797,14.3989,14.3181,14.2489,14.2489,14.3181,14.3181,14.3181,14.3181,14.3181,14.2797,14.2104,14.2104,14.2604,14.3181,14.3297,14.3797,14.4476,14.4605,14.4591,14.4591,14.4591,14.4591,14.4591,14.4591,14.4605,14.4297,14.3489,14.3181,14.2912,14.2181,14.1989,14.1681,14.0912,14.0681,14.0412,13.9604,13.8796,13.8194,13.8117,13.6796,13.5719,13.5603,13.4911,13.4411,13.4411,13.368,13.3115,13.3,13.3,13.2692,13.1795,13.241,13.2615,13.1795,13.1679,13.1679,13.1679,13.1679,13.1679,13.1679,13.1679,13.1679,13.1679,13.1804,13.1212,12.9885,13.0204,13.0485,13.0809,13.0901,13.0896,13.0895,13.0081,12.9692,12.9609,12.8804,12.8512,12.8618,12.8507,12.8492,12.8515,12.8515,12.8515,12.8515,15.1991,15.1991,15.1991,15.1991,15.1991,15.1991,15.1991,15.1991,15.1991,15.1991,15.1991,15.1991,15.1991,15.1991,15.1991,15.1991,15.1991,15.1991,15.1991,15.1183,15.0606,15.0414,14.899,14.8106,14.7913,14.7182,14.6913,14.6913,14.6297,14.5913,14.572,14.4797,14.4297,14.4105,14.3912,14.3989,14.4105,14.4105,14.4105,14.4105,14.4105,14.3989,14.3912,14.3912,14.3989,14.422,14.4913,14.5297,14.549,14.6105,14.6413,14.6413,14.6413,14.6413,14.6413,14.6413,14.5913,14.5413,14.5182,14.4105,14.3118,14.2912,14.2412,14.1912,14.1681,14.1104,14.0489,14.0412,13.9604,13.8796,13.8181,13.7809,13.7296,13.6603,13.5795,13.5218,13.5218,13.4487,13.3795,13.3115,13.3,13.2692,13.1795,13.191,13.191,13.1679,13.1679,13.1679,13.1679,13.1679,13.1679,13.1679,13.1679,13.1679,13.1679,13.1705,13.1708,13.1701,13.1986,13.2283,13.2486,13.1892,13.1586,13.1587,13.0692,13.0303,13.0193,12.9515,12.9186,12.9284,12.8683,12.8492,12.8515,12.8515,12.8515,12.8515,15.1991,15.1991,15.1991,15.1991,15.1991,15.1991,15.1991,15.1991,15.1991,15.1991,15.1991,15.1991,15.1991,15.1991,15.1991,15.1991,15.1991,15.1991,15.1991,15.1606,15.0991,15.0221,14.9298,14.8413,14.7605,14.7105,14.6913,14.6913,14.649,14.6297,14.6297,14.5413,14.499,14.499,14.4605,14.4591,14.499,14.499,14.499,14.499,14.499,14.4797,14.4412,14.4412,14.472,14.5105,14.549,14.6182,14.699,14.7413,14.7798,14.8106,14.7682,14.749,14.7413,14.699,14.6605,14.6182,14.5797,14.499,14.4105,14.3297,14.2797,14.2412,14.1989,14.1489,14.1181,14.1181,14.0489,13.9796,13.9412,13.8604,13.8001,13.7488,13.668,13.6103,13.6103,13.5411,13.4603,13.368,13.3603,13.3295,13.241,13.191,13.1679,13.1679,13.1679,13.1679,13.1679,13.1679,13.1679,13.1679,13.1679,13.1679,13.1679,13.1679,13.1816,13.2114,13.2291,13.2604,13.2801,13.2504,13.2285,13.2209,13.1393,13.098,13.0985,13.02,12.9805,12.9606,12.9205,12.8789,12.8515,12.8515,12.8515,12.8515,15.1991,15.1991,15.1991,15.1991,15.1991,15.1991,15.1991,15.1991,15.1991,15.1991,15.1991,15.1991,15.1991,15.1991,15.1991,15.1991,15.1991,15.1991,15.1991,15.1991,15.1298,14.9798,14.9606,14.8798,14.7182,14.699,14.6913,14.6913,14.6913,14.6913,14.6913,14.6221,14.5913,14.5913,14.5105,14.522,14.5913,14.5913,14.5913,14.5913,14.5913,14.549,14.4797,14.4797,14.5297,14.5913,14.5913,14.6913,14.8182,14.8182,14.8798,14.9298,14.849,14.8182,14.799,14.7182,14.6913,14.6798,14.6105,14.5797,14.5413,14.3912,14.3297,14.2912,14.2297,14.1989,14.1912,14.1912,14.1296,14.0796,14.0604,13.9488,13.8411,13.8117,13.7488,13.6988,13.6796,13.618,13.5411,13.4411,13.3987,13.3603,13.2795,13.2102,13.1679,13.1679,13.1679,13.1679,13.1679,13.1679,13.1679,13.1679,13.1679,13.1679,13.1679,13.1679,13.1819,13.1879,13.2114,13.2316,13.2509,13.2714,13.2706,13.2706,13.2008,13.1778,13.179,13.101,13.032,12.9787,12.9685,12.9203,12.8515,12.8515,12.8515,12.8515,15.1991,15.1991,15.1991,15.1991,15.1991,15.1991,15.1991,15.1991,15.1991,15.1991,15.1991,15.1991,15.1991,15.1991,15.1991,15.1991,15.1991,15.1991,15.1991,15.1991,15.1606,15.0606,14.9914,14.899,14.799,14.7298,14.6913,14.6913,14.6913,14.6913,14.6913,14.6798,14.6682,14.6682,14.6605,14.6605,14.6682,14.6682,14.6682,14.6682,14.6682,14.6682,14.6605,14.6605,14.6605,14.6682,14.6682,14.7413,14.8182,14.8182,14.8798,14.9298,14.849,14.8182,14.799,14.7182,14.6913,14.6913,14.6798,14.6221,14.5605,14.5413,14.4182,14.3105,14.2989,14.2412,14.1912,14.1912,14.1797,14.1489,14.0719,14.0412,13.9796,13.8296,13.8001,13.7694,13.6911,13.668,13.5988,13.4487,13.2987,13.1987,13.191,13.1795,13.1679,13.1679,13.1679,13.1679,13.1679,13.1679,13.1679,13.1679,13.1679,13.1679,13.1679,13.1679,13.1692,13.1705,13.1891,13.211,13.2391,13.2382,13.2518,13.2392,13.2276,13.2412,13.2409,13.1805,13.1185,13.0594,12.9908,12.9203,12.8515,12.8515,12.8515,12.8515,15.1991,15.1991,15.1991,15.1991,15.1991,15.1991,15.1991,15.1991,15.1991,15.1991,15.1991,15.1991,15.1991,15.1606,15.1298,15.1298,15.1298,15.1106,15.0606,15.0991,15.0683,14.9413,14.899,14.8413,14.749,14.7105,14.6913,14.6913,14.6913,14.6913,14.6913,14.6913,14.6913,14.6913,14.6913,14.6913,14.6913,14.6913,14.6913,14.6913,14.6913,14.6913,14.6913,14.6913,14.6913,14.6913,14.6913,14.749,14.8298,14.8798,14.9221,14.9413,14.899,14.8606,14.799,14.7182,14.6913,14.6913,14.6913,14.6605,14.6297,14.5797,14.4797,14.3682,14.3181,14.2489,14.1912,14.1912,14.1912,14.1797,14.1412,14.0912,14.0219,13.8988,13.8411,13.7809,13.6911,13.6796,13.618,13.4487,13.2795,13.1679,13.1679,13.1679,13.1679,13.1679,13.1679,13.1679,13.1679,13.1679,13.1679,13.1679,13.1679,13.1679,13.1679,13.1679,13.1679,13.1679,13.1781,13.1901,13.2082,13.2188,13.2182,13.2193,13.2285,13.2409,13.2586,13.1897,13.1302,13.0699,13.0012,12.9203,12.8515,12.8515,12.8515,12.8515]}]]